<?xml version='1.0' encoding='UTF-8'?><gpx version="1.1" creator="JPX - https://github.com/jenetics/jpx" xmlns="http://www.topografix.com/GPX/1/1"><trk><trkseg><trkpt lat="45.2921487" lon="11.7824104"><ele>5.0</ele><time>2026-04-25T13:17:15.59Z</time></trkpt><trkpt lat="45.2921838" lon="11.7823104"><ele>5.0</ele><time>2026-04-25T13:17:18.59Z</time></trkpt><trkpt lat="45.292227" lon="11.7821994"><ele>5.0</ele><time>2026-04-25T13:17:21.59Z</time></trkpt><trkpt lat="45.2922549" lon="11.7821072"><ele>5.0</ele><time>2026-04-25T13:17:23.59Z</time></trkpt><trkpt lat="45.2922875" lon="11.7820103"><ele>5.0</ele><time>2026-04-25T13:17:25.59Z</time></trkpt><trkpt lat="45.2923194" lon="11.7819115"><ele>5.0</ele><time>2026-04-25T13:17:27.59Z</time></trkpt><trkpt lat="45.292351" lon="11.781814"><ele>5.166666666666667</ele><time>2026-04-25T13:17:29.59Z</time></trkpt><trkpt lat="45.2923814" lon="11.7817149"><ele>5.333333333333334</ele><time>2026-04-25T13:17:31.59Z</time></trkpt><trkpt lat="45.2924117" lon="11.7816144"><ele>5.5</ele><time>2026-04-25T13:17:33.591Z</time></trkpt><trkpt lat="45.2924422" lon="11.7815124"><ele>5.666666666666667</ele><time>2026-04-25T13:17:35.591Z</time></trkpt><trkpt lat="45.2924768" lon="11.7814111"><ele>5.833333333333333</ele><time>2026-04-25T13:17:37.59Z</time></trkpt><trkpt lat="45.2925136" lon="11.7813048"><ele>6.0</ele><time>2026-04-25T13:17:39.59Z</time></trkpt><trkpt lat="45.2925446" lon="11.7811926"><ele>6.0</ele><time>2026-04-25T13:17:41.59Z</time></trkpt><trkpt lat="45.2925768" lon="11.7810783"><ele>6.0</ele><time>2026-04-25T13:17:43.59Z</time></trkpt><trkpt lat="45.2926157" lon="11.7809708"><ele>6.0</ele><time>2026-04-25T13:17:45.592Z</time></trkpt><trkpt lat="45.2926517" lon="11.7808625"><ele>6.0</ele><time>2026-04-25T13:17:47.59Z</time></trkpt><trkpt lat="45.2926858" lon="11.7807507"><ele>6.0</ele><time>2026-04-25T13:17:49.592Z</time></trkpt><trkpt lat="45.2927227" lon="11.7806373"><ele>6.0</ele><time>2026-04-25T13:17:51.59Z</time></trkpt><trkpt lat="45.2927566" lon="11.7805272"><ele>6.0</ele><time>2026-04-25T13:17:53.59Z</time></trkpt><trkpt lat="45.2927906" lon="11.7804221"><ele>6.0</ele><time>2026-04-25T13:17:55.591Z</time></trkpt><trkpt lat="45.2928272" lon="11.7803118"><ele>6.0</ele><time>2026-04-25T13:17:57.59Z</time></trkpt><trkpt lat="45.2928624" lon="11.7801975"><ele>6.0</ele><time>2026-04-25T13:17:59.59Z</time></trkpt><trkpt lat="45.2928983" lon="11.780081"><ele>6.0</ele><time>2026-04-25T13:18:01.591Z</time></trkpt><trkpt lat="45.2929355" lon="11.779965"><ele>6.0</ele><time>2026-04-25T13:18:03.59Z</time></trkpt><trkpt lat="45.2929709" lon="11.7798444"><ele>6.0</ele><time>2026-04-25T13:18:05.59Z</time></trkpt><trkpt lat="45.2930117" lon="11.7797299"><ele>6.0</ele><time>2026-04-25T13:18:07.59Z</time></trkpt><trkpt lat="45.2930495" lon="11.7796372"><ele>6.0</ele><time>2026-04-25T13:18:09.59Z</time></trkpt><trkpt lat="45.293131" lon="11.779599"><ele>6.0</ele><time>2026-04-25T13:18:12.59Z</time></trkpt><trkpt lat="45.2931984" lon="11.7796163"><ele>6.0</ele><time>2026-04-25T13:18:14.59Z</time></trkpt><trkpt lat="45.2932688" lon="11.7796388"><ele>6.0</ele><time>2026-04-25T13:18:16.591Z</time></trkpt><trkpt lat="45.2933366" lon="11.7796787"><ele>5.833333333333333</ele><time>2026-04-25T13:18:18.591Z</time></trkpt><trkpt lat="45.2934064" lon="11.7797168"><ele>5.666666666666667</ele><time>2026-04-25T13:18:20.59Z</time></trkpt><trkpt lat="45.2934757" lon="11.7797589"><ele>5.5</ele><time>2026-04-25T13:18:22.591Z</time></trkpt><trkpt lat="45.2935457" lon="11.7797954"><ele>5.333333333333334</ele><time>2026-04-25T13:18:24.591Z</time></trkpt><trkpt lat="45.2936132" lon="11.7798365"><ele>5.166666666666667</ele><time>2026-04-25T13:18:26.591Z</time></trkpt><trkpt lat="45.2936847" lon="11.7798733"><ele>5.0</ele><time>2026-04-25T13:18:28.59Z</time></trkpt><trkpt lat="45.293747" lon="11.7799434"><ele>5.0</ele><time>2026-04-25T13:18:31.59Z</time></trkpt><trkpt lat="45.2937665" lon="11.7798556"><ele>5.0</ele><time>2026-04-25T13:18:36.591Z</time></trkpt><trkpt lat="45.2936939" lon="11.7798275"><ele>5.0</ele><time>2026-04-25T13:18:38.59Z</time></trkpt><trkpt lat="45.2936174" lon="11.7797864"><ele>5.0</ele><time>2026-04-25T13:18:40.59Z</time></trkpt><trkpt lat="45.2935406" lon="11.7797438"><ele>5.0</ele><time>2026-04-25T13:18:42.591Z</time></trkpt><trkpt lat="45.2934611" lon="11.7796973"><ele>5.0</ele><time>2026-04-25T13:18:44.59Z</time></trkpt><trkpt lat="45.2933805" lon="11.7796527"><ele>5.0</ele><time>2026-04-25T13:18:46.59Z</time></trkpt><trkpt lat="45.2932935" lon="11.7796113"><ele>5.0</ele><time>2026-04-25T13:18:48.59Z</time></trkpt><trkpt lat="45.2932047" lon="11.7795652"><ele>5.0</ele><time>2026-04-25T13:18:50.591Z</time></trkpt><trkpt lat="45.2931125" lon="11.7795185"><ele>5.0</ele><time>2026-04-25T13:18:52.59Z</time></trkpt><trkpt lat="45.2930164" lon="11.7794683"><ele>5.0</ele><time>2026-04-25T13:18:54.59Z</time></trkpt><trkpt lat="45.2929196" lon="11.7794289"><ele>5.2</ele><time>2026-04-25T13:18:56.591Z</time></trkpt><trkpt lat="45.292824" lon="11.7793872"><ele>5.4</ele><time>2026-04-25T13:18:58.591Z</time></trkpt><trkpt lat="45.2927253" lon="11.7793484"><ele>5.6</ele><time>2026-04-25T13:19:00.591Z</time></trkpt><trkpt lat="45.2926263" lon="11.7793065"><ele>5.8</ele><time>2026-04-25T13:19:02.591Z</time></trkpt><trkpt lat="45.2925237" lon="11.7792744"><ele>6.0</ele><time>2026-04-25T13:19:04.591Z</time></trkpt><trkpt lat="45.2924173" lon="11.7792513"><ele>5.5</ele><time>2026-04-25T13:19:06.59Z</time></trkpt><trkpt lat="45.292308" lon="11.7792333"><ele>5.0</ele><time>2026-04-25T13:19:08.59Z</time></trkpt><trkpt lat="45.2922009" lon="11.7792021"><ele>4.5</ele><time>2026-04-25T13:19:10.59Z</time></trkpt><trkpt lat="45.2920882" lon="11.7791685"><ele>4.0</ele><time>2026-04-25T13:19:12.59Z</time></trkpt><trkpt lat="45.2919732" lon="11.7791381"><ele>5.0</ele><time>2026-04-25T13:19:14.591Z</time></trkpt><trkpt lat="45.2918671" lon="11.7790718"><ele>6.0</ele><time>2026-04-25T13:19:16.591Z</time></trkpt><trkpt lat="45.2917574" lon="11.7790228"><ele>7.0</ele><time>2026-04-25T13:19:18.59Z</time></trkpt><trkpt lat="45.2916477" lon="11.7789751"><ele>8.0</ele><time>2026-04-25T13:19:20.59Z</time></trkpt><trkpt lat="45.2915492" lon="11.7789406"><ele>9.0</ele><time>2026-04-25T13:19:22.59Z</time></trkpt><trkpt lat="45.2914897" lon="11.7789046"><ele>8.833333333333334</ele><time>2026-04-25T13:19:24.59Z</time></trkpt><trkpt lat="45.2914199" lon="11.7788624"><ele>8.666666666666666</ele><time>2026-04-25T13:19:27.591Z</time></trkpt><trkpt lat="45.2913538" lon="11.7788811"><ele>8.5</ele><time>2026-04-25T13:19:29.591Z</time></trkpt><trkpt lat="45.2913049" lon="11.7789698"><ele>8.333333333333332</ele><time>2026-04-25T13:19:31.591Z</time></trkpt><trkpt lat="45.2912744" lon="11.7790863"><ele>8.166666666666666</ele><time>2026-04-25T13:19:33.591Z</time></trkpt><trkpt lat="45.2912439" lon="11.7792225"><ele>8.0</ele><time>2026-04-25T13:19:35.59Z</time></trkpt><trkpt lat="45.2912135" lon="11.779364"><ele>7.800000000000001</ele><time>2026-04-25T13:19:37.59Z</time></trkpt><trkpt lat="45.2911783" lon="11.77951"><ele>7.6000000000000005</ele><time>2026-04-25T13:19:39.589Z</time></trkpt><trkpt lat="45.2911423" lon="11.7796577"><ele>7.3999999999999995</ele><time>2026-04-25T13:19:41.589Z</time></trkpt><trkpt lat="45.2911086" lon="11.7798045"><ele>7.199999999999999</ele><time>2026-04-25T13:19:43.589Z</time></trkpt><trkpt lat="45.2910758" lon="11.7799499"><ele>7.0</ele><time>2026-04-25T13:19:45.589Z</time></trkpt><trkpt lat="45.2910388" lon="11.7800956"><ele>7.0</ele><time>2026-04-25T13:19:47.589Z</time></trkpt><trkpt lat="45.2909977" lon="11.7802395"><ele>6.999999999999999</ele><time>2026-04-25T13:19:49.589Z</time></trkpt><trkpt lat="45.2909668" lon="11.7803896"><ele>6.999999999999999</ele><time>2026-04-25T13:19:51.589Z</time></trkpt><trkpt lat="45.2909341" lon="11.7805431"><ele>7.0</ele><time>2026-04-25T13:19:53.589Z</time></trkpt><trkpt lat="45.2909025" lon="11.7806981"><ele>7.0</ele><time>2026-04-25T13:19:55.59Z</time></trkpt><trkpt lat="45.2908655" lon="11.7808523"><ele>7.0</ele><time>2026-04-25T13:19:57.589Z</time></trkpt><trkpt lat="45.2908343" lon="11.7810087"><ele>7.0</ele><time>2026-04-25T13:19:59.589Z</time></trkpt><trkpt lat="45.2907945" lon="11.7811678"><ele>7.0</ele><time>2026-04-25T13:20:01.589Z</time></trkpt><trkpt lat="45.2907613" lon="11.7813257"><ele>7.0</ele><time>2026-04-25T13:20:03.589Z</time></trkpt><trkpt lat="45.2907244" lon="11.7814813"><ele>7.0</ele><time>2026-04-25T13:20:05.59Z</time></trkpt><trkpt lat="45.2906871" lon="11.7816385"><ele>6.999999999999999</ele><time>2026-04-25T13:20:07.589Z</time></trkpt><trkpt lat="45.2906489" lon="11.781794"><ele>6.999999999999999</ele><time>2026-04-25T13:20:09.59Z</time></trkpt><trkpt lat="45.2906107" lon="11.7819466"><ele>7.0</ele><time>2026-04-25T13:20:11.59Z</time></trkpt><trkpt lat="45.2905833" lon="11.7820715"><ele>7.0</ele><time>2026-04-25T13:20:13.59Z</time></trkpt><trkpt lat="45.2905634" lon="11.7821663"><ele>7.000000000000001</ele><time>2026-04-25T13:20:15.591Z</time></trkpt><trkpt lat="45.2905382" lon="11.7822711"><ele>7.0</ele><time>2026-04-25T13:20:17.59Z</time></trkpt><trkpt lat="45.290515" lon="11.7823875"><ele>7.0</ele><time>2026-04-25T13:20:19.59Z</time></trkpt><trkpt lat="45.2904884" lon="11.7825097"><ele>7.0</ele><time>2026-04-25T13:20:21.591Z</time></trkpt><trkpt lat="45.2904594" lon="11.782632"><ele>7.000000000000001</ele><time>2026-04-25T13:20:23.589Z</time></trkpt><trkpt lat="45.2904297" lon="11.7827449"><ele>7.0</ele><time>2026-04-25T13:20:25.59Z</time></trkpt><trkpt lat="45.2903789" lon="11.7828298"><ele>7.333333333333334</ele><time>2026-04-25T13:20:30.59Z</time></trkpt><trkpt lat="45.2903278" lon="11.7828939"><ele>7.666666666666667</ele><time>2026-04-25T13:20:32.59Z</time></trkpt><trkpt lat="45.2902838" lon="11.7829912"><ele>8.0</ele><time>2026-04-25T13:20:34.59Z</time></trkpt><trkpt lat="45.2902512" lon="11.7831021"><ele>8.333333333333334</ele><time>2026-04-25T13:20:36.59Z</time></trkpt><trkpt lat="45.2902215" lon="11.7832182"><ele>8.666666666666666</ele><time>2026-04-25T13:20:38.59Z</time></trkpt><trkpt lat="45.2901919" lon="11.783336"><ele>9.0</ele><time>2026-04-25T13:20:40.59Z</time></trkpt><trkpt lat="45.2901718" lon="11.7834589"><ele>8.833333333333334</ele><time>2026-04-25T13:20:42.59Z</time></trkpt><trkpt lat="45.29016" lon="11.7835616"><ele>8.666666666666666</ele><time>2026-04-25T13:20:44.59Z</time></trkpt><trkpt lat="45.2901582" lon="11.783662"><ele>8.5</ele><time>2026-04-25T13:20:47.589Z</time></trkpt><trkpt lat="45.2901914" lon="11.7837391"><ele>8.333333333333332</ele><time>2026-04-25T13:20:49.59Z</time></trkpt><trkpt lat="45.2902542" lon="11.7837972"><ele>8.166666666666666</ele><time>2026-04-25T13:20:51.589Z</time></trkpt><trkpt lat="45.290335" lon="11.7838374"><ele>8.0</ele><time>2026-04-25T13:20:53.59Z</time></trkpt><trkpt lat="45.2904201" lon="11.7838924"><ele>8.0</ele><time>2026-04-25T13:20:55.59Z</time></trkpt><trkpt lat="45.2905122" lon="11.7839451"><ele>8.0</ele><time>2026-04-25T13:20:57.589Z</time></trkpt><trkpt lat="45.2906073" lon="11.7840011"><ele>8.0</ele><time>2026-04-25T13:20:59.589Z</time></trkpt><trkpt lat="45.2907048" lon="11.7840652"><ele>8.0</ele><time>2026-04-25T13:21:01.589Z</time></trkpt><trkpt lat="45.2908062" lon="11.7841292"><ele>8.0</ele><time>2026-04-25T13:21:03.59Z</time></trkpt><trkpt lat="45.2909054" lon="11.7841911"><ele>8.0</ele><time>2026-04-25T13:21:05.589Z</time></trkpt><trkpt lat="45.2909626" lon="11.7842297"><ele>8.0</ele><time>2026-04-25T13:21:06.59Z</time></trkpt><trkpt lat="45.2910682" lon="11.7842984"><ele>8.0</ele><time>2026-04-25T13:21:08.589Z</time></trkpt><trkpt lat="45.2911824" lon="11.7843686"><ele>8.0</ele><time>2026-04-25T13:21:10.589Z</time></trkpt><trkpt lat="45.2912823" lon="11.7844525"><ele>8.0</ele><time>2026-04-25T13:21:12.589Z</time></trkpt><trkpt lat="45.2913895" lon="11.7845265"><ele>7.6000000000000005</ele><time>2026-04-25T13:21:14.589Z</time></trkpt><trkpt lat="45.291492" lon="11.7846036"><ele>7.200000000000001</ele><time>2026-04-25T13:21:16.589Z</time></trkpt><trkpt lat="45.2915718" lon="11.7846847"><ele>6.8</ele><time>2026-04-25T13:21:18.59Z</time></trkpt><trkpt lat="45.2916273" lon="11.7847851"><ele>6.4</ele><time>2026-04-25T13:21:20.589Z</time></trkpt><trkpt lat="45.2916683" lon="11.7848891"><ele>6.0</ele><time>2026-04-25T13:21:22.589Z</time></trkpt><trkpt lat="45.2916989" lon="11.7850061"><ele>6.0</ele><time>2026-04-25T13:21:24.591Z</time></trkpt><trkpt lat="45.2917071" lon="11.7851327"><ele>6.0</ele><time>2026-04-25T13:21:26.589Z</time></trkpt><trkpt lat="45.2917005" lon="11.7852595"><ele>6.0</ele><time>2026-04-25T13:21:28.59Z</time></trkpt><trkpt lat="45.2916841" lon="11.7853754"><ele>6.0</ele><time>2026-04-25T13:21:30.589Z</time></trkpt><trkpt lat="45.291653" lon="11.7854748"><ele>6.0</ele><time>2026-04-25T13:21:32.589Z</time></trkpt><trkpt lat="45.2916164" lon="11.7855661"><ele>6.0</ele><time>2026-04-25T13:21:34.59Z</time></trkpt><trkpt lat="45.2915797" lon="11.7856564"><ele>5.999999999999999</ele><time>2026-04-25T13:21:36.591Z</time></trkpt><trkpt lat="45.2915425" lon="11.785749"><ele>6.0</ele><time>2026-04-25T13:21:38.59Z</time></trkpt><trkpt lat="45.2915077" lon="11.7858409"><ele>6.0</ele><time>2026-04-25T13:21:40.589Z</time></trkpt><trkpt lat="45.2914723" lon="11.7859175"><ele>6.0</ele><time>2026-04-25T13:21:42.589Z</time></trkpt><trkpt lat="45.2914378" lon="11.7860113"><ele>6.0</ele><time>2026-04-25T13:21:45.591Z</time></trkpt><trkpt lat="45.2913937" lon="11.7860901"><ele>5.999999999999999</ele><time>2026-04-25T13:21:50.589Z</time></trkpt><trkpt lat="45.2914499" lon="11.7861628"><ele>6.0</ele><time>2026-04-25T13:21:54.589Z</time></trkpt><trkpt lat="45.2915199" lon="11.7861708"><ele>6.199999999999999</ele><time>2026-04-25T13:21:56.59Z</time></trkpt><trkpt lat="45.2915943" lon="11.786196"><ele>6.3999999999999995</ele><time>2026-04-25T13:21:58.589Z</time></trkpt><trkpt lat="45.291681" lon="11.7862273"><ele>6.6</ele><time>2026-04-25T13:22:00.589Z</time></trkpt><trkpt lat="45.2917767" lon="11.7862643"><ele>6.8</ele><time>2026-04-25T13:22:02.59Z</time></trkpt><trkpt lat="45.2918759" lon="11.7863032"><ele>7.0</ele><time>2026-04-25T13:22:04.589Z</time></trkpt><trkpt lat="45.2919793" lon="11.7863399"><ele>7.0</ele><time>2026-04-25T13:22:06.589Z</time></trkpt><trkpt lat="45.2920837" lon="11.7863742"><ele>6.999999999999999</ele><time>2026-04-25T13:22:08.59Z</time></trkpt><trkpt lat="45.2921888" lon="11.7864101"><ele>6.999999999999999</ele><time>2026-04-25T13:22:10.589Z</time></trkpt><trkpt lat="45.292297" lon="11.7864519"><ele>7.0</ele><time>2026-04-25T13:22:12.59Z</time></trkpt><trkpt lat="45.2924" lon="11.7865157"><ele>7.0</ele><time>2026-04-25T13:22:14.589Z</time></trkpt><trkpt lat="45.2925105" lon="11.7865492"><ele>6.75</ele><time>2026-04-25T13:22:16.589Z</time></trkpt><trkpt lat="45.2926172" lon="11.7865908"><ele>6.5</ele><time>2026-04-25T13:22:18.59Z</time></trkpt><trkpt lat="45.2927245" lon="11.7866359"><ele>6.25</ele><time>2026-04-25T13:22:20.59Z</time></trkpt><trkpt lat="45.2928322" lon="11.7866897"><ele>6.0</ele><time>2026-04-25T13:22:22.59Z</time></trkpt><trkpt lat="45.2929408" lon="11.7867482"><ele>6.0</ele><time>2026-04-25T13:22:24.589Z</time></trkpt><trkpt lat="45.2930429" lon="11.7868215"><ele>6.0</ele><time>2026-04-25T13:22:26.588Z</time></trkpt><trkpt lat="45.2931412" lon="11.7869099"><ele>6.0</ele><time>2026-04-25T13:22:28.588Z</time></trkpt><trkpt lat="45.2932387" lon="11.7870034"><ele>6.0</ele><time>2026-04-25T13:22:30.589Z</time></trkpt><trkpt lat="45.293335" lon="11.7870974"><ele>7.0</ele><time>2026-04-25T13:22:32.589Z</time></trkpt><trkpt lat="45.2934387" lon="11.7871812"><ele>8.0</ele><time>2026-04-25T13:22:34.59Z</time></trkpt><trkpt lat="45.2935385" lon="11.7872743"><ele>9.0</ele><time>2026-04-25T13:22:36.588Z</time></trkpt><trkpt lat="45.2936392" lon="11.7873653"><ele>10.0</ele><time>2026-04-25T13:22:38.589Z</time></trkpt><trkpt lat="45.2937367" lon="11.787456"><ele>10.0</ele><time>2026-04-25T13:22:40.588Z</time></trkpt><trkpt lat="45.293835" lon="11.78755"><ele>10.0</ele><time>2026-04-25T13:22:42.588Z</time></trkpt><trkpt lat="45.2939332" lon="11.7876448"><ele>10.0</ele><time>2026-04-25T13:22:44.588Z</time></trkpt><trkpt lat="45.2940355" lon="11.7877341"><ele>10.0</ele><time>2026-04-25T13:22:46.588Z</time></trkpt><trkpt lat="45.2941385" lon="11.7878277"><ele>9.8</ele><time>2026-04-25T13:22:48.588Z</time></trkpt><trkpt lat="45.2942422" lon="11.7879209"><ele>9.6</ele><time>2026-04-25T13:22:50.589Z</time></trkpt><trkpt lat="45.2943499" lon="11.7880165"><ele>9.4</ele><time>2026-04-25T13:22:52.588Z</time></trkpt><trkpt lat="45.2944073" lon="11.7880602"><ele>9.2</ele><time>2026-04-25T13:22:53.588Z</time></trkpt><trkpt lat="45.2944616" lon="11.7881059"><ele>9.0</ele><time>2026-04-25T13:22:54.588Z</time></trkpt><trkpt lat="45.2945563" lon="11.7882131"><ele>9.0</ele><time>2026-04-25T13:22:56.588Z</time></trkpt><trkpt lat="45.294664" lon="11.7883015"><ele>9.0</ele><time>2026-04-25T13:22:58.588Z</time></trkpt><trkpt lat="45.2947875" lon="11.7883364"><ele>9.0</ele><time>2026-04-25T13:23:00.589Z</time></trkpt><trkpt lat="45.2948507" lon="11.7883407"><ele>9.0</ele><time>2026-04-25T13:23:01.588Z</time></trkpt><trkpt lat="45.2949728" lon="11.7883447"><ele>9.0</ele><time>2026-04-25T13:23:03.588Z</time></trkpt><trkpt lat="45.2950948" lon="11.7883655"><ele>8.75</ele><time>2026-04-25T13:23:05.588Z</time></trkpt><trkpt lat="45.295213" lon="11.7884195"><ele>8.5</ele><time>2026-04-25T13:23:07.588Z</time></trkpt><trkpt lat="45.295319" lon="11.7885078"><ele>8.25</ele><time>2026-04-25T13:23:09.588Z</time></trkpt><trkpt lat="45.2954181" lon="11.7886063"><ele>8.0</ele><time>2026-04-25T13:23:11.588Z</time></trkpt><trkpt lat="45.2955161" lon="11.7887054"><ele>9.0</ele><time>2026-04-25T13:23:13.589Z</time></trkpt><trkpt lat="45.2956108" lon="11.7888033"><ele>10.0</ele><time>2026-04-25T13:23:15.588Z</time></trkpt><trkpt lat="45.2957046" lon="11.788903"><ele>11.0</ele><time>2026-04-25T13:23:17.588Z</time></trkpt><trkpt lat="45.2957954" lon="11.7890024"><ele>12.0</ele><time>2026-04-25T13:23:19.588Z</time></trkpt><trkpt lat="45.2958847" lon="11.789096"><ele>12.0</ele><time>2026-04-25T13:23:21.588Z</time></trkpt><trkpt lat="45.2959685" lon="11.7891795"><ele>12.0</ele><time>2026-04-25T13:23:23.588Z</time></trkpt><trkpt lat="45.2960487" lon="11.7892642"><ele>12.0</ele><time>2026-04-25T13:23:25.588Z</time></trkpt><trkpt lat="45.2961293" lon="11.7893421"><ele>12.0</ele><time>2026-04-25T13:23:27.589Z</time></trkpt><trkpt lat="45.2962075" lon="11.7893889"><ele>12.0</ele><time>2026-04-25T13:23:29.589Z</time></trkpt><trkpt lat="45.2962715" lon="11.7894484"><ele>11.833333333333334</ele><time>2026-04-25T13:23:32.588Z</time></trkpt><trkpt lat="45.2963415" lon="11.7895015"><ele>11.666666666666666</ele><time>2026-04-25T13:23:35.589Z</time></trkpt><trkpt lat="45.2964163" lon="11.7895317"><ele>11.5</ele><time>2026-04-25T13:23:37.588Z</time></trkpt><trkpt lat="45.2964962" lon="11.7895639"><ele>11.333333333333332</ele><time>2026-04-25T13:23:39.588Z</time></trkpt><trkpt lat="45.2965706" lon="11.7896351"><ele>11.166666666666666</ele><time>2026-04-25T13:23:41.589Z</time></trkpt><trkpt lat="45.296658" lon="11.7897134"><ele>11.0</ele><time>2026-04-25T13:23:43.589Z</time></trkpt><trkpt lat="45.2967567" lon="11.7897901"><ele>11.0</ele><time>2026-04-25T13:23:45.588Z</time></trkpt><trkpt lat="45.2968616" lon="11.7898676"><ele>11.0</ele><time>2026-04-25T13:23:47.589Z</time></trkpt><trkpt lat="45.2969201" lon="11.7899084"><ele>11.0</ele><time>2026-04-25T13:23:48.588Z</time></trkpt><trkpt lat="45.2969779" lon="11.7899502"><ele>11.0</ele><time>2026-04-25T13:23:49.588Z</time></trkpt><trkpt lat="45.2970396" lon="11.7899905"><ele>11.0</ele><time>2026-04-25T13:23:50.588Z</time></trkpt><trkpt lat="45.2971018" lon="11.7900336"><ele>11.0</ele><time>2026-04-25T13:23:51.589Z</time></trkpt><trkpt lat="45.2971625" lon="11.7900811"><ele>11.0</ele><time>2026-04-25T13:23:52.589Z</time></trkpt><trkpt lat="45.2972254" lon="11.7901288"><ele>11.0</ele><time>2026-04-25T13:23:53.588Z</time></trkpt><trkpt lat="45.2972884" lon="11.7901765"><ele>11.0</ele><time>2026-04-25T13:23:54.589Z</time></trkpt><trkpt lat="45.2973512" lon="11.7902214"><ele>11.0</ele><time>2026-04-25T13:23:55.588Z</time></trkpt><trkpt lat="45.2974123" lon="11.7902679"><ele>11.0</ele><time>2026-04-25T13:23:56.589Z</time></trkpt><trkpt lat="45.2974717" lon="11.7903185"><ele>11.0</ele><time>2026-04-25T13:23:57.588Z</time></trkpt><trkpt lat="45.2975334" lon="11.7903634"><ele>11.0</ele><time>2026-04-25T13:23:58.589Z</time></trkpt><trkpt lat="45.2975925" lon="11.7904086"><ele>10.571428571428571</ele><time>2026-04-25T13:23:59.588Z</time></trkpt><trkpt lat="45.2976513" lon="11.7904538"><ele>10.142857142857142</ele><time>2026-04-25T13:24:00.589Z</time></trkpt><trkpt lat="45.2977105" lon="11.7905005"><ele>9.714285714285714</ele><time>2026-04-25T13:24:01.589Z</time></trkpt><trkpt lat="45.2977721" lon="11.7905482"><ele>9.285714285714285</ele><time>2026-04-25T13:24:02.589Z</time></trkpt><trkpt lat="45.2978341" lon="11.7905932"><ele>8.857142857142856</ele><time>2026-04-25T13:24:03.588Z</time></trkpt><trkpt lat="45.2978944" lon="11.7906379"><ele>8.428571428571429</ele><time>2026-04-25T13:24:04.589Z</time></trkpt><trkpt lat="45.2979528" lon="11.7906802"><ele>8.0</ele><time>2026-04-25T13:24:05.588Z</time></trkpt><trkpt lat="45.2980098" lon="11.7907231"><ele>7.999999999999999</ele><time>2026-04-25T13:24:06.589Z</time></trkpt><trkpt lat="45.2980677" lon="11.7907679"><ele>8.0</ele><time>2026-04-25T13:24:07.588Z</time></trkpt><trkpt lat="45.2981244" lon="11.7908098"><ele>8.0</ele><time>2026-04-25T13:24:08.589Z</time></trkpt><trkpt lat="45.2982366" lon="11.7908932"><ele>8.0</ele><time>2026-04-25T13:24:10.589Z</time></trkpt><trkpt lat="45.2982945" lon="11.7909362"><ele>7.999999999999999</ele><time>2026-04-25T13:24:11.588Z</time></trkpt><trkpt lat="45.2983512" lon="11.7909784"><ele>8.0</ele><time>2026-04-25T13:24:12.588Z</time></trkpt><trkpt lat="45.2984094" lon="11.7910212"><ele>8.0</ele><time>2026-04-25T13:24:13.588Z</time></trkpt><trkpt lat="45.298468" lon="11.7910661"><ele>7.999999999999999</ele><time>2026-04-25T13:24:14.588Z</time></trkpt><trkpt lat="45.2985273" lon="11.7911093"><ele>8.0</ele><time>2026-04-25T13:24:15.589Z</time></trkpt><trkpt lat="45.2985865" lon="11.7911513"><ele>8.0</ele><time>2026-04-25T13:24:16.589Z</time></trkpt><trkpt lat="45.2986443" lon="11.7911959"><ele>7.999999999999999</ele><time>2026-04-25T13:24:17.588Z</time></trkpt><trkpt lat="45.2987035" lon="11.7912406"><ele>8.0</ele><time>2026-04-25T13:24:18.589Z</time></trkpt><trkpt lat="45.2987631" lon="11.7912838"><ele>8.0</ele><time>2026-04-25T13:24:19.588Z</time></trkpt><trkpt lat="45.2988208" lon="11.7913279"><ele>8.0</ele><time>2026-04-25T13:24:20.588Z</time></trkpt><trkpt lat="45.2988788" lon="11.7913738"><ele>7.999999999999999</ele><time>2026-04-25T13:24:21.588Z</time></trkpt><trkpt lat="45.2989392" lon="11.791417"><ele>8.0</ele><time>2026-04-25T13:24:22.588Z</time></trkpt><trkpt lat="45.2990005" lon="11.79146"><ele>8.0</ele><time>2026-04-25T13:24:23.588Z</time></trkpt><trkpt lat="45.2990601" lon="11.7915041"><ele>7.999999999999999</ele><time>2026-04-25T13:24:24.589Z</time></trkpt><trkpt lat="45.2991192" lon="11.7915474"><ele>8.0</ele><time>2026-04-25T13:24:25.588Z</time></trkpt><trkpt lat="45.2991782" lon="11.7915911"><ele>8.0</ele><time>2026-04-25T13:24:26.588Z</time></trkpt><trkpt lat="45.2992362" lon="11.7916378"><ele>8.142857142857142</ele><time>2026-04-25T13:24:27.588Z</time></trkpt><trkpt lat="45.2992967" lon="11.7916797"><ele>8.285714285714285</ele><time>2026-04-25T13:24:28.588Z</time></trkpt><trkpt lat="45.2993564" lon="11.7917225"><ele>8.428571428571429</ele><time>2026-04-25T13:24:29.588Z</time></trkpt><trkpt lat="45.2994159" lon="11.7917662"><ele>8.571428571428571</ele><time>2026-04-25T13:24:30.588Z</time></trkpt><trkpt lat="45.2994729" lon="11.7918121"><ele>8.714285714285715</ele><time>2026-04-25T13:24:31.589Z</time></trkpt><trkpt lat="45.2995313" lon="11.7918549"><ele>8.857142857142858</ele><time>2026-04-25T13:24:32.588Z</time></trkpt><trkpt lat="45.2995902" lon="11.7918978"><ele>9.0</ele><time>2026-04-25T13:24:33.588Z</time></trkpt><trkpt lat="45.2996481" lon="11.7919409"><ele>8.857142857142858</ele><time>2026-04-25T13:24:34.588Z</time></trkpt><trkpt lat="45.2997062" lon="11.7919854"><ele>8.714285714285715</ele><time>2026-04-25T13:24:35.588Z</time></trkpt><trkpt lat="45.2997643" lon="11.7920268"><ele>8.571428571428571</ele><time>2026-04-25T13:24:36.589Z</time></trkpt><trkpt lat="45.2998248" lon="11.7920627"><ele>8.428571428571429</ele><time>2026-04-25T13:24:37.589Z</time></trkpt><trkpt lat="45.2999441" lon="11.7921031"><ele>8.285714285714285</ele><time>2026-04-25T13:24:39.588Z</time></trkpt><trkpt lat="45.3000066" lon="11.7920897"><ele>8.142857142857142</ele><time>2026-04-25T13:24:40.588Z</time></trkpt><trkpt lat="45.3000631" lon="11.7920492"><ele>8.0</ele><time>2026-04-25T13:24:41.588Z</time></trkpt><trkpt lat="45.3001106" lon="11.7919904"><ele>8.0</ele><time>2026-04-25T13:24:42.588Z</time></trkpt><trkpt lat="45.3001467" lon="11.7919119"><ele>7.999999999999999</ele><time>2026-04-25T13:24:43.588Z</time></trkpt><trkpt lat="45.3001783" lon="11.7918321"><ele>8.0</ele><time>2026-04-25T13:24:44.59Z</time></trkpt><trkpt lat="45.300208" lon="11.7917512"><ele>8.0</ele><time>2026-04-25T13:24:45.588Z</time></trkpt><trkpt lat="45.300236" lon="11.7916691"><ele>7.999999999999999</ele><time>2026-04-25T13:24:46.588Z</time></trkpt><trkpt lat="45.3002612" lon="11.7915838"><ele>8.0</ele><time>2026-04-25T13:24:47.59Z</time></trkpt><trkpt lat="45.3002893" lon="11.7914993"><ele>8.0</ele><time>2026-04-25T13:24:48.588Z</time></trkpt><trkpt lat="45.3003167" lon="11.7914156"><ele>8.166666666666666</ele><time>2026-04-25T13:24:49.588Z</time></trkpt><trkpt lat="45.300342" lon="11.7913323"><ele>8.333333333333332</ele><time>2026-04-25T13:24:50.589Z</time></trkpt><trkpt lat="45.3003689" lon="11.7912499"><ele>8.5</ele><time>2026-04-25T13:24:51.588Z</time></trkpt><trkpt lat="45.3003957" lon="11.7911689"><ele>8.666666666666666</ele><time>2026-04-25T13:24:52.588Z</time></trkpt><trkpt lat="45.3004482" lon="11.7910061"><ele>8.833333333333334</ele><time>2026-04-25T13:24:54.59Z</time></trkpt><trkpt lat="45.3004953" lon="11.7908432"><ele>9.0</ele><time>2026-04-25T13:24:56.588Z</time></trkpt><trkpt lat="45.3005476" lon="11.7906921"><ele>7.75</ele><time>2026-04-25T13:24:58.588Z</time></trkpt><trkpt lat="45.3006321" lon="11.7905969"><ele>6.5</ele><time>2026-04-25T13:25:00.589Z</time></trkpt><trkpt lat="45.3007446" lon="11.7905778"><ele>5.25</ele><time>2026-04-25T13:25:02.588Z</time></trkpt><trkpt lat="45.3008601" lon="11.7905729"><ele>4.0</ele><time>2026-04-25T13:25:04.588Z</time></trkpt><trkpt lat="45.3009789" lon="11.7905753"><ele>4.0</ele><time>2026-04-25T13:25:06.588Z</time></trkpt><trkpt lat="45.301101" lon="11.7905717"><ele>4.0</ele><time>2026-04-25T13:25:08.59Z</time></trkpt><trkpt lat="45.3012252" lon="11.7905646"><ele>4.0</ele><time>2026-04-25T13:25:10.589Z</time></trkpt><trkpt lat="45.3013424" lon="11.7905559"><ele>4.0</ele><time>2026-04-25T13:25:12.589Z</time></trkpt><trkpt lat="45.3014647" lon="11.7905529"><ele>3.9999999999999996</ele><time>2026-04-25T13:25:14.588Z</time></trkpt><trkpt lat="45.3015877" lon="11.7905509"><ele>4.0</ele><time>2026-04-25T13:25:16.589Z</time></trkpt><trkpt lat="45.301711" lon="11.7905693"><ele>4.0</ele><time>2026-04-25T13:25:18.588Z</time></trkpt><trkpt lat="45.3017742" lon="11.790585"><ele>4.0</ele><time>2026-04-25T13:25:19.588Z</time></trkpt><trkpt lat="45.3018356" lon="11.7906054"><ele>3.9999999999999996</ele><time>2026-04-25T13:25:20.589Z</time></trkpt><trkpt lat="45.3018973" lon="11.7906309"><ele>4.0</ele><time>2026-04-25T13:25:21.589Z</time></trkpt><trkpt lat="45.3019577" lon="11.7906602"><ele>4.0</ele><time>2026-04-25T13:25:22.589Z</time></trkpt><trkpt lat="45.3020184" lon="11.7906882"><ele>3.9999999999999996</ele><time>2026-04-25T13:25:23.589Z</time></trkpt><trkpt lat="45.3021335" lon="11.7907611"><ele>4.0</ele><time>2026-04-25T13:25:25.588Z</time></trkpt><trkpt lat="45.3021943" lon="11.7907949"><ele>4.0</ele><time>2026-04-25T13:25:26.588Z</time></trkpt><trkpt lat="45.302255" lon="11.7908292"><ele>3.9999999999999996</ele><time>2026-04-25T13:25:27.588Z</time></trkpt><trkpt lat="45.3023143" lon="11.7908643"><ele>4.0</ele><time>2026-04-25T13:25:28.588Z</time></trkpt><trkpt lat="45.3023708" lon="11.7909063"><ele>4.0</ele><time>2026-04-25T13:25:29.588Z</time></trkpt><trkpt lat="45.3024301" lon="11.7909445"><ele>4.285714285714286</ele><time>2026-04-25T13:25:30.589Z</time></trkpt><trkpt lat="45.3024879" lon="11.7909818"><ele>4.571428571428571</ele><time>2026-04-25T13:25:31.588Z</time></trkpt><trkpt lat="45.3025434" lon="11.7910263"><ele>4.857142857142857</ele><time>2026-04-25T13:25:32.588Z</time></trkpt><trkpt lat="45.3025986" lon="11.7910776"><ele>5.142857142857142</ele><time>2026-04-25T13:25:33.589Z</time></trkpt><trkpt lat="45.3026484" lon="11.7911339"><ele>5.428571428571429</ele><time>2026-04-25T13:25:34.589Z</time></trkpt><trkpt lat="45.3026962" lon="11.7911944"><ele>5.7142857142857135</ele><time>2026-04-25T13:25:35.589Z</time></trkpt><trkpt lat="45.3027403" lon="11.7912605"><ele>6.0</ele><time>2026-04-25T13:25:36.587Z</time></trkpt><trkpt lat="45.3028223" lon="11.7913849"><ele>6.0</ele><time>2026-04-25T13:25:38.587Z</time></trkpt><trkpt lat="45.3029166" lon="11.7914882"><ele>6.0</ele><time>2026-04-25T13:25:40.588Z</time></trkpt><trkpt lat="45.3030246" lon="11.7915596"><ele>6.0</ele><time>2026-04-25T13:25:42.587Z</time></trkpt><trkpt lat="45.3031357" lon="11.7916216"><ele>6.0</ele><time>2026-04-25T13:25:44.588Z</time></trkpt><trkpt lat="45.3032495" lon="11.7916808"><ele>6.0</ele><time>2026-04-25T13:25:46.587Z</time></trkpt><trkpt lat="45.3033648" lon="11.791736"><ele>6.0</ele><time>2026-04-25T13:25:48.587Z</time></trkpt><trkpt lat="45.3034782" lon="11.7917934"><ele>6.0</ele><time>2026-04-25T13:25:50.587Z</time></trkpt><trkpt lat="45.3035939" lon="11.7918505"><ele>6.0</ele><time>2026-04-25T13:25:52.588Z</time></trkpt><trkpt lat="45.3037078" lon="11.7919052"><ele>6.0</ele><time>2026-04-25T13:25:54.587Z</time></trkpt><trkpt lat="45.3038225" lon="11.7919545"><ele>6.0</ele><time>2026-04-25T13:25:56.587Z</time></trkpt><trkpt lat="45.3039384" lon="11.7919884"><ele>6.0</ele><time>2026-04-25T13:25:58.588Z</time></trkpt><trkpt lat="45.3040569" lon="11.7919918"><ele>6.0</ele><time>2026-04-25T13:26:00.588Z</time></trkpt><trkpt lat="45.3041727" lon="11.7919591"><ele>6.0</ele><time>2026-04-25T13:26:02.588Z</time></trkpt><trkpt lat="45.3042837" lon="11.7919041"><ele>6.0</ele><time>2026-04-25T13:26:04.588Z</time></trkpt><trkpt lat="45.3043896" lon="11.7918486"><ele>6.0</ele><time>2026-04-25T13:26:06.587Z</time></trkpt><trkpt lat="45.3044931" lon="11.7917848"><ele>6.0</ele><time>2026-04-25T13:26:08.588Z</time></trkpt><trkpt lat="45.3045904" lon="11.7917003"><ele>6.0</ele><time>2026-04-25T13:26:10.588Z</time></trkpt><trkpt lat="45.3046922" lon="11.7916153"><ele>6.0</ele><time>2026-04-25T13:26:12.588Z</time></trkpt><trkpt lat="45.3048016" lon="11.7915392"><ele>6.0</ele><time>2026-04-25T13:26:14.589Z</time></trkpt><trkpt lat="45.3049223" lon="11.7914867"><ele>6.0</ele><time>2026-04-25T13:26:16.587Z</time></trkpt><trkpt lat="45.3050472" lon="11.7914572"><ele>6.0</ele><time>2026-04-25T13:26:18.587Z</time></trkpt><trkpt lat="45.3051099" lon="11.791448"><ele>6.0</ele><time>2026-04-25T13:26:19.589Z</time></trkpt><trkpt lat="45.3051735" lon="11.7914477"><ele>6.0</ele><time>2026-04-25T13:26:20.587Z</time></trkpt><trkpt lat="45.3052985" lon="11.7914656"><ele>6.0</ele><time>2026-04-25T13:26:22.587Z</time></trkpt><trkpt lat="45.305417" lon="11.7915069"><ele>6.0</ele><time>2026-04-25T13:26:24.587Z</time></trkpt><trkpt lat="45.3055097" lon="11.7916138"><ele>6.0</ele><time>2026-04-25T13:26:26.587Z</time></trkpt><trkpt lat="45.3055905" lon="11.7917475"><ele>6.0</ele><time>2026-04-25T13:26:28.587Z</time></trkpt><trkpt lat="45.3056619" lon="11.7918939"><ele>6.0</ele><time>2026-04-25T13:26:30.589Z</time></trkpt><trkpt lat="45.3057416" lon="11.7920304"><ele>6.0</ele><time>2026-04-25T13:26:32.587Z</time></trkpt><trkpt lat="45.3058385" lon="11.792138"><ele>6.199999999999999</ele><time>2026-04-25T13:26:34.588Z</time></trkpt><trkpt lat="45.3059567" lon="11.7921833"><ele>6.3999999999999995</ele><time>2026-04-25T13:26:36.588Z</time></trkpt><trkpt lat="45.3060772" lon="11.792138"><ele>6.6</ele><time>2026-04-25T13:26:38.587Z</time></trkpt><trkpt lat="45.3061279" lon="11.7920844"><ele>6.8</ele><time>2026-04-25T13:26:39.587Z</time></trkpt><trkpt lat="45.3062205" lon="11.7919651"><ele>7.0</ele><time>2026-04-25T13:26:41.588Z</time></trkpt><trkpt lat="45.3062628" lon="11.7918982"><ele>6.857142857142857</ele><time>2026-04-25T13:26:42.588Z</time></trkpt><trkpt lat="45.3063054" lon="11.7918314"><ele>6.714285714285714</ele><time>2026-04-25T13:26:43.588Z</time></trkpt><trkpt lat="45.3063477" lon="11.7917621"><ele>6.571428571428571</ele><time>2026-04-25T13:26:44.587Z</time></trkpt><trkpt lat="45.3063875" lon="11.7916874"><ele>6.428571428571429</ele><time>2026-04-25T13:26:45.587Z</time></trkpt><trkpt lat="45.3064194" lon="11.7916059"><ele>6.285714285714286</ele><time>2026-04-25T13:26:46.587Z</time></trkpt><trkpt lat="45.3064469" lon="11.7915207"><ele>6.142857142857142</ele><time>2026-04-25T13:26:47.587Z</time></trkpt><trkpt lat="45.3064679" lon="11.7914303"><ele>6.0</ele><time>2026-04-25T13:26:48.588Z</time></trkpt><trkpt lat="45.3064873" lon="11.7913374"><ele>5.857142857142857</ele><time>2026-04-25T13:26:49.587Z</time></trkpt><trkpt lat="45.3065037" lon="11.7912445"><ele>5.714285714285714</ele><time>2026-04-25T13:26:50.587Z</time></trkpt><trkpt lat="45.3065139" lon="11.791151"><ele>5.571428571428571</ele><time>2026-04-25T13:26:51.587Z</time></trkpt><trkpt lat="45.3065243" lon="11.7910583"><ele>5.428571428571429</ele><time>2026-04-25T13:26:52.588Z</time></trkpt><trkpt lat="45.3065365" lon="11.7909632"><ele>5.285714285714286</ele><time>2026-04-25T13:26:53.587Z</time></trkpt><trkpt lat="45.306547" lon="11.79087"><ele>5.142857142857142</ele><time>2026-04-25T13:26:54.587Z</time></trkpt><trkpt lat="45.3065605" lon="11.7907777"><ele>5.0</ele><time>2026-04-25T13:26:55.587Z</time></trkpt><trkpt lat="45.3065736" lon="11.7906867"><ele>5.4</ele><time>2026-04-25T13:26:56.587Z</time></trkpt><trkpt lat="45.3065858" lon="11.7905985"><ele>5.8</ele><time>2026-04-25T13:26:57.587Z</time></trkpt><trkpt lat="45.3066169" lon="11.7904306"><ele>6.199999999999999</ele><time>2026-04-25T13:26:59.587Z</time></trkpt><trkpt lat="45.3066467" lon="11.7902704"><ele>6.6</ele><time>2026-04-25T13:27:01.588Z</time></trkpt><trkpt lat="45.3066779" lon="11.7901245"><ele>7.0</ele><time>2026-04-25T13:27:03.587Z</time></trkpt><trkpt lat="45.3067105" lon="11.7899839"><ele>8.0</ele><time>2026-04-25T13:27:05.587Z</time></trkpt><trkpt lat="45.3067477" lon="11.7898575"><ele>9.0</ele><time>2026-04-25T13:27:07.588Z</time></trkpt><trkpt lat="45.3067917" lon="11.7897557"><ele>10.0</ele><time>2026-04-25T13:27:09.588Z</time></trkpt><trkpt lat="45.3068386" lon="11.7896749"><ele>11.0</ele><time>2026-04-25T13:27:11.589Z</time></trkpt><trkpt lat="45.3068969" lon="11.7896165"><ele>11.999999999999998</ele><time>2026-04-25T13:27:13.587Z</time></trkpt><trkpt lat="45.3069795" lon="11.789573"><ele>13.0</ele><time>2026-04-25T13:27:16.587Z</time></trkpt><trkpt lat="45.3070435" lon="11.7895587"><ele>13.0</ele><time>2026-04-25T13:27:18.589Z</time></trkpt><trkpt lat="45.3071064" lon="11.789546"><ele>13.0</ele><time>2026-04-25T13:27:20.587Z</time></trkpt><trkpt lat="45.3071715" lon="11.7895445"><ele>13.0</ele><time>2026-04-25T13:27:22.587Z</time></trkpt><trkpt lat="45.307243" lon="11.7895466"><ele>13.0</ele><time>2026-04-25T13:27:24.588Z</time></trkpt><trkpt lat="45.3073173" lon="11.7895528"><ele>13.0</ele><time>2026-04-25T13:27:26.587Z</time></trkpt><trkpt lat="45.3073963" lon="11.7895592"><ele>13.0</ele><time>2026-04-25T13:27:28.587Z</time></trkpt><trkpt lat="45.3074782" lon="11.7895671"><ele>13.0</ele><time>2026-04-25T13:27:30.587Z</time></trkpt><trkpt lat="45.3075624" lon="11.7895761"><ele>12.200000000000001</ele><time>2026-04-25T13:27:32.587Z</time></trkpt><trkpt lat="45.3076573" lon="11.7895692"><ele>11.4</ele><time>2026-04-25T13:27:34.588Z</time></trkpt><trkpt lat="45.3077589" lon="11.7895439"><ele>10.600000000000001</ele><time>2026-04-25T13:27:36.587Z</time></trkpt><trkpt lat="45.3078562" lon="11.7894904"><ele>9.8</ele><time>2026-04-25T13:27:38.588Z</time></trkpt><trkpt lat="45.3079533" lon="11.7894376"><ele>9.0</ele><time>2026-04-25T13:27:40.588Z</time></trkpt><trkpt lat="45.30806" lon="11.7893879"><ele>9.4</ele><time>2026-04-25T13:27:42.588Z</time></trkpt><trkpt lat="45.3081746" lon="11.789368"><ele>9.8</ele><time>2026-04-25T13:27:44.588Z</time></trkpt><trkpt lat="45.3082856" lon="11.7893655"><ele>10.200000000000001</ele><time>2026-04-25T13:27:46.588Z</time></trkpt><trkpt lat="45.3083877" lon="11.7894004"><ele>10.600000000000001</ele><time>2026-04-25T13:27:48.587Z</time></trkpt><trkpt lat="45.3084802" lon="11.7894549"><ele>11.0</ele><time>2026-04-25T13:27:50.587Z</time></trkpt><trkpt lat="45.3085812" lon="11.789515"><ele>11.0</ele><time>2026-04-25T13:27:52.587Z</time></trkpt><trkpt lat="45.3086849" lon="11.7895734"><ele>11.0</ele><time>2026-04-25T13:27:54.587Z</time></trkpt><trkpt lat="45.3087971" lon="11.7896312"><ele>11.0</ele><time>2026-04-25T13:27:56.588Z</time></trkpt><trkpt lat="45.3089143" lon="11.7896711"><ele>11.0</ele><time>2026-04-25T13:27:58.587Z</time></trkpt><trkpt lat="45.3089789" lon="11.7896737"><ele>11.0</ele><time>2026-04-25T13:27:59.588Z</time></trkpt><trkpt lat="45.309046" lon="11.7896607"><ele>11.0</ele><time>2026-04-25T13:28:00.588Z</time></trkpt><trkpt lat="45.3091124" lon="11.7896391"><ele>11.0</ele><time>2026-04-25T13:28:01.587Z</time></trkpt><trkpt lat="45.309178" lon="11.7896054"><ele>11.0</ele><time>2026-04-25T13:28:02.588Z</time></trkpt><trkpt lat="45.3092456" lon="11.7895707"><ele>11.0</ele><time>2026-04-25T13:28:03.588Z</time></trkpt><trkpt lat="45.3093154" lon="11.7895388"><ele>11.0</ele><time>2026-04-25T13:28:04.588Z</time></trkpt><trkpt lat="45.3093855" lon="11.7895122"><ele>11.0</ele><time>2026-04-25T13:28:05.588Z</time></trkpt><trkpt lat="45.3094558" lon="11.7894925"><ele>11.0</ele><time>2026-04-25T13:28:06.587Z</time></trkpt><trkpt lat="45.3095295" lon="11.7894723"><ele>11.0</ele><time>2026-04-25T13:28:07.587Z</time></trkpt><trkpt lat="45.3096042" lon="11.7894582"><ele>11.0</ele><time>2026-04-25T13:28:08.588Z</time></trkpt><trkpt lat="45.3096766" lon="11.7894438"><ele>11.0</ele><time>2026-04-25T13:28:09.587Z</time></trkpt><trkpt lat="45.3097496" lon="11.7894276"><ele>11.0</ele><time>2026-04-25T13:28:10.588Z</time></trkpt><trkpt lat="45.3098231" lon="11.7894148"><ele>11.0</ele><time>2026-04-25T13:28:11.588Z</time></trkpt><trkpt lat="45.3098969" lon="11.7894014"><ele>11.0</ele><time>2026-04-25T13:28:12.587Z</time></trkpt><trkpt lat="45.3099681" lon="11.7893876"><ele>11.0</ele><time>2026-04-25T13:28:13.588Z</time></trkpt><trkpt lat="45.3100367" lon="11.7893768"><ele>10.857142857142858</ele><time>2026-04-25T13:28:14.588Z</time></trkpt><trkpt lat="45.3101084" lon="11.7893629"><ele>10.714285714285714</ele><time>2026-04-25T13:28:15.588Z</time></trkpt><trkpt lat="45.3101796" lon="11.7893505"><ele>10.571428571428571</ele><time>2026-04-25T13:28:16.587Z</time></trkpt><trkpt lat="45.310252" lon="11.7893362"><ele>10.428571428571429</ele><time>2026-04-25T13:28:17.587Z</time></trkpt><trkpt lat="45.3103248" lon="11.7893201"><ele>10.285714285714286</ele><time>2026-04-25T13:28:18.587Z</time></trkpt><trkpt lat="45.3103962" lon="11.7893032"><ele>10.142857142857142</ele><time>2026-04-25T13:28:19.589Z</time></trkpt><trkpt lat="45.3104657" lon="11.7892841"><ele>10.0</ele><time>2026-04-25T13:28:20.587Z</time></trkpt><trkpt lat="45.3105351" lon="11.7892656"><ele>9.857142857142858</ele><time>2026-04-25T13:28:21.588Z</time></trkpt><trkpt lat="45.3106037" lon="11.7892414"><ele>9.714285714285715</ele><time>2026-04-25T13:28:22.588Z</time></trkpt><trkpt lat="45.3106697" lon="11.7892149"><ele>9.571428571428573</ele><time>2026-04-25T13:28:23.587Z</time></trkpt><trkpt lat="45.3107355" lon="11.7891852"><ele>9.428571428571429</ele><time>2026-04-25T13:28:24.587Z</time></trkpt><trkpt lat="45.3108028" lon="11.789153"><ele>9.285714285714286</ele><time>2026-04-25T13:28:25.587Z</time></trkpt><trkpt lat="45.3108687" lon="11.7891191"><ele>9.142857142857144</ele><time>2026-04-25T13:28:26.588Z</time></trkpt><trkpt lat="45.3109322" lon="11.7890796"><ele>9.0</ele><time>2026-04-25T13:28:27.587Z</time></trkpt><trkpt lat="45.3109953" lon="11.7890419"><ele>9.000000000000002</ele><time>2026-04-25T13:28:28.587Z</time></trkpt><trkpt lat="45.3110575" lon="11.7890053"><ele>9.0</ele><time>2026-04-25T13:28:29.587Z</time></trkpt><trkpt lat="45.3111179" lon="11.7889672"><ele>9.0</ele><time>2026-04-25T13:28:30.588Z</time></trkpt><trkpt lat="45.3111787" lon="11.7889316"><ele>9.0</ele><time>2026-04-25T13:28:31.588Z</time></trkpt><trkpt lat="45.3112406" lon="11.7888978"><ele>9.0</ele><time>2026-04-25T13:28:32.588Z</time></trkpt><trkpt lat="45.3113023" lon="11.7888681"><ele>9.000000000000002</ele><time>2026-04-25T13:28:33.587Z</time></trkpt><trkpt lat="45.3113643" lon="11.7888489"><ele>9.0</ele><time>2026-04-25T13:28:34.588Z</time></trkpt><trkpt lat="45.3114848" lon="11.7888706"><ele>8.833333333333334</ele><time>2026-04-25T13:28:36.588Z</time></trkpt><trkpt lat="45.3115895" lon="11.7889092"><ele>8.666666666666666</ele><time>2026-04-25T13:28:38.587Z</time></trkpt><trkpt lat="45.3116742" lon="11.7889353"><ele>8.5</ele><time>2026-04-25T13:28:40.587Z</time></trkpt><trkpt lat="45.3117527" lon="11.7889379"><ele>8.333333333333332</ele><time>2026-04-25T13:28:43.587Z</time></trkpt><trkpt lat="45.3118239" lon="11.788931"><ele>8.166666666666666</ele><time>2026-04-25T13:28:49.588Z</time></trkpt><trkpt lat="45.3118954" lon="11.788903"><ele>8.0</ele><time>2026-04-25T13:29:43.587Z</time></trkpt><trkpt lat="45.3119769" lon="11.788874"><ele>7.999999999999999</ele><time>2026-04-25T13:29:47.586Z</time></trkpt><trkpt lat="45.3120571" lon="11.7888157"><ele>8.0</ele><time>2026-04-25T13:29:50.586Z</time></trkpt><trkpt lat="45.3121334" lon="11.7887377"><ele>8.0</ele><time>2026-04-25T13:29:53.588Z</time></trkpt><trkpt lat="45.3121883" lon="11.788685"><ele>8.0</ele><time>2026-04-25T13:29:55.586Z</time></trkpt><trkpt lat="45.3122592" lon="11.7886463"><ele>7.999999999999999</ele><time>2026-04-25T13:29:57.586Z</time></trkpt><trkpt lat="45.3123329" lon="11.7886246"><ele>8.0</ele><time>2026-04-25T13:29:59.587Z</time></trkpt><trkpt lat="45.3124024" lon="11.7886126"><ele>7.833333333333333</ele><time>2026-04-25T13:30:02.586Z</time></trkpt><trkpt lat="45.3124647" lon="11.7885646"><ele>7.666666666666666</ele><time>2026-04-25T13:30:09.586Z</time></trkpt><trkpt lat="45.3125229" lon="11.7885189"><ele>7.5</ele><time>2026-04-25T13:30:13.587Z</time></trkpt><trkpt lat="45.3125923" lon="11.7884839"><ele>7.333333333333334</ele><time>2026-04-25T13:30:16.586Z</time></trkpt><trkpt lat="45.3126759" lon="11.7884202"><ele>7.166666666666667</ele><time>2026-04-25T13:30:19.587Z</time></trkpt><trkpt lat="45.3127365" lon="11.7883656"><ele>7.0</ele><time>2026-04-25T13:30:21.586Z</time></trkpt><trkpt lat="45.3127959" lon="11.788299"><ele>7.3999999999999995</ele><time>2026-04-25T13:30:23.588Z</time></trkpt><trkpt lat="45.312859" lon="11.7882179"><ele>7.799999999999999</ele><time>2026-04-25T13:30:25.587Z</time></trkpt><trkpt lat="45.3129276" lon="11.7881248"><ele>8.2</ele><time>2026-04-25T13:30:27.586Z</time></trkpt><trkpt lat="45.3130047" lon="11.7880191"><ele>8.6</ele><time>2026-04-25T13:30:29.588Z</time></trkpt><trkpt lat="45.3130908" lon="11.7878999"><ele>9.0</ele><time>2026-04-25T13:30:31.587Z</time></trkpt><trkpt lat="45.3131371" lon="11.7878367"><ele>9.000000000000002</ele><time>2026-04-25T13:30:32.586Z</time></trkpt><trkpt lat="45.3131836" lon="11.7877747"><ele>9.0</ele><time>2026-04-25T13:30:33.587Z</time></trkpt><trkpt lat="45.3132827" lon="11.7876678"><ele>9.0</ele><time>2026-04-25T13:30:35.586Z</time></trkpt><trkpt lat="45.3133378" lon="11.7876217"><ele>9.0</ele><time>2026-04-25T13:30:36.587Z</time></trkpt><trkpt lat="45.3133934" lon="11.7875781"><ele>9.0</ele><time>2026-04-25T13:30:37.587Z</time></trkpt><trkpt lat="45.3134528" lon="11.7875449"><ele>9.000000000000002</ele><time>2026-04-25T13:30:38.586Z</time></trkpt><trkpt lat="45.3135141" lon="11.787518"><ele>9.0</ele><time>2026-04-25T13:30:39.588Z</time></trkpt><trkpt lat="45.3135763" lon="11.7875005"><ele>9.142857142857144</ele><time>2026-04-25T13:30:40.588Z</time></trkpt><trkpt lat="45.3136392" lon="11.7874843"><ele>9.285714285714286</ele><time>2026-04-25T13:30:41.586Z</time></trkpt><trkpt lat="45.3137049" lon="11.7874731"><ele>9.428571428571429</ele><time>2026-04-25T13:30:42.586Z</time></trkpt><trkpt lat="45.3137676" lon="11.7874539"><ele>9.571428571428573</ele><time>2026-04-25T13:30:43.587Z</time></trkpt><trkpt lat="45.3138311" lon="11.7874346"><ele>9.714285714285715</ele><time>2026-04-25T13:30:44.587Z</time></trkpt><trkpt lat="45.3138941" lon="11.7874076"><ele>9.857142857142858</ele><time>2026-04-25T13:30:45.587Z</time></trkpt><trkpt lat="45.313955" lon="11.7873773"><ele>10.0</ele><time>2026-04-25T13:30:46.586Z</time></trkpt><trkpt lat="45.3140181" lon="11.7873401"><ele>10.0</ele><time>2026-04-25T13:30:47.586Z</time></trkpt><trkpt lat="45.3140777" lon="11.7872954"><ele>10.0</ele><time>2026-04-25T13:30:48.586Z</time></trkpt><trkpt lat="45.3141374" lon="11.7872488"><ele>10.0</ele><time>2026-04-25T13:30:49.586Z</time></trkpt><trkpt lat="45.3141989" lon="11.7871986"><ele>10.0</ele><time>2026-04-25T13:30:50.586Z</time></trkpt><trkpt lat="45.3142616" lon="11.7871472"><ele>10.0</ele><time>2026-04-25T13:30:51.586Z</time></trkpt><trkpt lat="45.3143232" lon="11.7870919"><ele>10.0</ele><time>2026-04-25T13:30:52.586Z</time></trkpt><trkpt lat="45.3143847" lon="11.7870347"><ele>10.0</ele><time>2026-04-25T13:30:53.586Z</time></trkpt><trkpt lat="45.3144437" lon="11.7869746"><ele>10.0</ele><time>2026-04-25T13:30:54.587Z</time></trkpt><trkpt lat="45.3145034" lon="11.7869138"><ele>10.0</ele><time>2026-04-25T13:30:55.587Z</time></trkpt><trkpt lat="45.3145637" lon="11.7868509"><ele>10.0</ele><time>2026-04-25T13:30:56.586Z</time></trkpt><trkpt lat="45.3146252" lon="11.7867911"><ele>10.0</ele><time>2026-04-25T13:30:57.586Z</time></trkpt><trkpt lat="45.314686" lon="11.7867375"><ele>10.0</ele><time>2026-04-25T13:30:58.586Z</time></trkpt><trkpt lat="45.3147531" lon="11.7866918"><ele>10.0</ele><time>2026-04-25T13:30:59.586Z</time></trkpt><trkpt lat="45.3148185" lon="11.7866443"><ele>10.0</ele><time>2026-04-25T13:31:00.586Z</time></trkpt><trkpt lat="45.3148841" lon="11.7865999"><ele>10.142857142857142</ele><time>2026-04-25T13:31:01.587Z</time></trkpt><trkpt lat="45.3149486" lon="11.7865569"><ele>10.285714285714286</ele><time>2026-04-25T13:31:02.586Z</time></trkpt><trkpt lat="45.3150143" lon="11.7865162"><ele>10.428571428571429</ele><time>2026-04-25T13:31:03.587Z</time></trkpt><trkpt lat="45.3150785" lon="11.7864792"><ele>10.571428571428571</ele><time>2026-04-25T13:31:04.586Z</time></trkpt><trkpt lat="45.3151412" lon="11.7864374"><ele>10.714285714285714</ele><time>2026-04-25T13:31:05.587Z</time></trkpt><trkpt lat="45.315201" lon="11.7863901"><ele>10.857142857142858</ele><time>2026-04-25T13:31:06.587Z</time></trkpt><trkpt lat="45.3152565" lon="11.7863305"><ele>11.0</ele><time>2026-04-25T13:31:07.586Z</time></trkpt><trkpt lat="45.3153087" lon="11.7862659"><ele>11.0</ele><time>2026-04-25T13:31:08.587Z</time></trkpt><trkpt lat="45.3153604" lon="11.7861991"><ele>11.0</ele><time>2026-04-25T13:31:09.588Z</time></trkpt><trkpt lat="45.315411" lon="11.786129"><ele>11.0</ele><time>2026-04-25T13:31:10.586Z</time></trkpt><trkpt lat="45.3154536" lon="11.7860523"><ele>11.0</ele><time>2026-04-25T13:31:11.586Z</time></trkpt><trkpt lat="45.3155003" lon="11.7859787"><ele>11.0</ele><time>2026-04-25T13:31:12.586Z</time></trkpt><trkpt lat="45.315546" lon="11.7859025"><ele>11.0</ele><time>2026-04-25T13:31:13.586Z</time></trkpt><trkpt lat="45.3155888" lon="11.7858299"><ele>11.0</ele><time>2026-04-25T13:31:14.587Z</time></trkpt><trkpt lat="45.3156307" lon="11.7857606"><ele>10.857142857142858</ele><time>2026-04-25T13:31:15.586Z</time></trkpt><trkpt lat="45.3156746" lon="11.785692"><ele>10.714285714285714</ele><time>2026-04-25T13:31:16.586Z</time></trkpt><trkpt lat="45.3157162" lon="11.7856231"><ele>10.571428571428571</ele><time>2026-04-25T13:31:17.587Z</time></trkpt><trkpt lat="45.3157996" lon="11.7854893"><ele>10.428571428571429</ele><time>2026-04-25T13:31:19.587Z</time></trkpt><trkpt lat="45.3158399" lon="11.785417"><ele>10.285714285714286</ele><time>2026-04-25T13:31:20.587Z</time></trkpt><trkpt lat="45.3158823" lon="11.7853493"><ele>10.142857142857142</ele><time>2026-04-25T13:31:21.587Z</time></trkpt><trkpt lat="45.3159251" lon="11.7852827"><ele>10.0</ele><time>2026-04-25T13:31:22.587Z</time></trkpt><trkpt lat="45.3160046" lon="11.7851616"><ele>10.2</ele><time>2026-04-25T13:31:24.586Z</time></trkpt><trkpt lat="45.3160859" lon="11.7850478"><ele>10.4</ele><time>2026-04-25T13:31:26.586Z</time></trkpt><trkpt lat="45.316171" lon="11.7849429"><ele>10.600000000000001</ele><time>2026-04-25T13:31:28.586Z</time></trkpt><trkpt lat="45.3162529" lon="11.7848433"><ele>10.8</ele><time>2026-04-25T13:31:30.586Z</time></trkpt><trkpt lat="45.3163387" lon="11.7847493"><ele>11.0</ele><time>2026-04-25T13:31:32.587Z</time></trkpt><trkpt lat="45.3164288" lon="11.7846597"><ele>11.0</ele><time>2026-04-25T13:31:34.587Z</time></trkpt><trkpt lat="45.3165247" lon="11.7845878"><ele>11.0</ele><time>2026-04-25T13:31:36.587Z</time></trkpt><trkpt lat="45.3166301" lon="11.7845257"><ele>11.0</ele><time>2026-04-25T13:31:38.586Z</time></trkpt><trkpt lat="45.3167335" lon="11.7844842"><ele>11.0</ele><time>2026-04-25T13:31:40.587Z</time></trkpt><trkpt lat="45.3168455" lon="11.7844498"><ele>11.0</ele><time>2026-04-25T13:31:42.587Z</time></trkpt><trkpt lat="45.3169522" lon="11.7844285"><ele>11.0</ele><time>2026-04-25T13:31:44.587Z</time></trkpt><trkpt lat="45.3170518" lon="11.7844104"><ele>11.0</ele><time>2026-04-25T13:31:46.586Z</time></trkpt><trkpt lat="45.3171542" lon="11.7843858"><ele>11.0</ele><time>2026-04-25T13:31:48.586Z</time></trkpt><trkpt lat="45.3172547" lon="11.7843421"><ele>11.0</ele><time>2026-04-25T13:31:50.587Z</time></trkpt><trkpt lat="45.3173377" lon="11.7842852"><ele>11.0</ele><time>2026-04-25T13:31:52.586Z</time></trkpt><trkpt lat="45.3174063" lon="11.784232"><ele>11.571428571428571</ele><time>2026-04-25T13:31:54.586Z</time></trkpt><trkpt lat="45.3174767" lon="11.784185"><ele>12.142857142857142</ele><time>2026-04-25T13:31:57.586Z</time></trkpt><trkpt lat="45.3174745" lon="11.7840707"><ele>12.714285714285715</ele><time>2026-04-25T13:32:00.586Z</time></trkpt><trkpt lat="45.3174392" lon="11.7839952"><ele>13.285714285714285</ele><time>2026-04-25T13:32:02.587Z</time></trkpt><trkpt lat="45.3174038" lon="11.7839136"><ele>13.857142857142856</ele><time>2026-04-25T13:32:04.587Z</time></trkpt><trkpt lat="45.3173676" lon="11.7838292"><ele>14.428571428571429</ele><time>2026-04-25T13:32:06.586Z</time></trkpt><trkpt lat="45.3173331" lon="11.7837485"><ele>15.0</ele><time>2026-04-25T13:32:08.587Z</time></trkpt><trkpt lat="45.3172988" lon="11.7836706"><ele>15.0</ele><time>2026-04-25T13:32:10.585Z</time></trkpt><trkpt lat="45.3172646" lon="11.7835943"><ele>15.0</ele><time>2026-04-25T13:32:12.585Z</time></trkpt><trkpt lat="45.3172218" lon="11.7834787"><ele>15.0</ele><time>2026-04-25T13:32:15.585Z</time></trkpt><trkpt lat="45.3171809" lon="11.7833702"><ele>15.0</ele><time>2026-04-25T13:32:18.585Z</time></trkpt><trkpt lat="45.3171485" lon="11.7832515"><ele>15.0</ele><time>2026-04-25T13:32:21.586Z</time></trkpt><trkpt lat="45.3171349" lon="11.7831239"><ele>15.0</ele><time>2026-04-25T13:32:24.585Z</time></trkpt><trkpt lat="45.3171228" lon="11.7830031"><ele>15.333333333333334</ele><time>2026-04-25T13:32:27.586Z</time></trkpt><trkpt lat="45.3171078" lon="11.782882"><ele>15.666666666666668</ele><time>2026-04-25T13:32:30.586Z</time></trkpt><trkpt lat="45.3170822" lon="11.7827546"><ele>16.0</ele><time>2026-04-25T13:32:33.585Z</time></trkpt><trkpt lat="45.317067" lon="11.7826246"><ele>16.333333333333336</ele><time>2026-04-25T13:32:36.585Z</time></trkpt><trkpt lat="45.3170451" lon="11.7825072"><ele>16.666666666666668</ele><time>2026-04-25T13:32:39.585Z</time></trkpt><trkpt lat="45.3170137" lon="11.7823892"><ele>17.0</ele><time>2026-04-25T13:32:42.586Z</time></trkpt><trkpt lat="45.3169935" lon="11.7822651"><ele>18.0</ele><time>2026-04-25T13:32:45.585Z</time></trkpt><trkpt lat="45.3169546" lon="11.7821476"><ele>19.0</ele><time>2026-04-25T13:32:48.585Z</time></trkpt><trkpt lat="45.316899" lon="11.7820471"><ele>20.0</ele><time>2026-04-25T13:32:51.586Z</time></trkpt><trkpt lat="45.316841" lon="11.7819481"><ele>21.0</ele><time>2026-04-25T13:32:54.585Z</time></trkpt><trkpt lat="45.3167862" lon="11.7818448"><ele>22.0</ele><time>2026-04-25T13:32:57.585Z</time></trkpt><trkpt lat="45.3167361" lon="11.7817365"><ele>23.166666666666664</ele><time>2026-04-25T13:33:00.585Z</time></trkpt><trkpt lat="45.3166894" lon="11.7816355"><ele>24.333333333333332</ele><time>2026-04-25T13:33:03.585Z</time></trkpt><trkpt lat="45.3166495" lon="11.7815454"><ele>25.5</ele><time>2026-04-25T13:33:07.586Z</time></trkpt><trkpt lat="45.3166083" lon="11.7814488"><ele>26.666666666666664</ele><time>2026-04-25T13:33:11.586Z</time></trkpt><trkpt lat="45.3165664" lon="11.7813573"><ele>27.833333333333332</ele><time>2026-04-25T13:33:15.586Z</time></trkpt><trkpt lat="45.3165303" lon="11.7812631"><ele>29.0</ele><time>2026-04-25T13:33:19.586Z</time></trkpt><trkpt lat="45.3164959" lon="11.7811641"><ele>29.000000000000004</ele><time>2026-04-25T13:33:23.585Z</time></trkpt><trkpt lat="45.3164627" lon="11.7810648"><ele>29.0</ele><time>2026-04-25T13:33:27.586Z</time></trkpt><trkpt lat="45.3164373" lon="11.780972"><ele>29.000000000000004</ele><time>2026-04-25T13:33:31.586Z</time></trkpt><trkpt lat="45.3164124" lon="11.7808835"><ele>29.000000000000004</ele><time>2026-04-25T13:33:35.586Z</time></trkpt><trkpt lat="45.3163924" lon="11.7807925"><ele>29.0</ele><time>2026-04-25T13:33:38.586Z</time></trkpt><trkpt lat="45.3163676" lon="11.7806822"><ele>29.000000000000004</ele><time>2026-04-25T13:33:42.587Z</time></trkpt><trkpt lat="45.3163428" lon="11.7805711"><ele>29.000000000000004</ele><time>2026-04-25T13:33:46.586Z</time></trkpt><trkpt lat="45.3163227" lon="11.7804583"><ele>30.571428571428577</ele><time>2026-04-25T13:33:50.585Z</time></trkpt><trkpt lat="45.3162956" lon="11.7803458"><ele>32.142857142857146</ele><time>2026-04-25T13:33:54.585Z</time></trkpt><trkpt lat="45.316278" lon="11.7802335"><ele>33.714285714285715</ele><time>2026-04-25T13:33:58.585Z</time></trkpt><trkpt lat="45.3162552" lon="11.7801468"><ele>35.28571428571429</ele><time>2026-04-25T13:34:01.585Z</time></trkpt><trkpt lat="45.3162158" lon="11.7800625"><ele>36.85714285714286</ele><time>2026-04-25T13:34:04.586Z</time></trkpt><trkpt lat="45.3161737" lon="11.7799858"><ele>38.42857142857143</ele><time>2026-04-25T13:34:07.587Z</time></trkpt><trkpt lat="45.3161317" lon="11.7799102"><ele>40.0</ele><time>2026-04-25T13:34:10.585Z</time></trkpt><trkpt lat="45.3160909" lon="11.7798357"><ele>41.285714285714285</ele><time>2026-04-25T13:34:13.585Z</time></trkpt><trkpt lat="45.3160559" lon="11.7797498"><ele>42.57142857142857</ele><time>2026-04-25T13:34:16.585Z</time></trkpt><trkpt lat="45.3160334" lon="11.7796589"><ele>43.85714285714286</ele><time>2026-04-25T13:34:19.587Z</time></trkpt><trkpt lat="45.3160174" lon="11.7795635"><ele>45.14285714285714</ele><time>2026-04-25T13:34:22.585Z</time></trkpt><trkpt lat="45.3160065" lon="11.7794681"><ele>46.42857142857143</ele><time>2026-04-25T13:34:25.585Z</time></trkpt><trkpt lat="45.3159963" lon="11.779372"><ele>47.714285714285715</ele><time>2026-04-25T13:34:28.586Z</time></trkpt><trkpt lat="45.315982" lon="11.7792812"><ele>49.0</ele><time>2026-04-25T13:34:31.585Z</time></trkpt><trkpt lat="45.3159765" lon="11.7791885"><ele>49.857142857142854</ele><time>2026-04-25T13:34:34.586Z</time></trkpt><trkpt lat="45.3159652" lon="11.7790956"><ele>50.714285714285715</ele><time>2026-04-25T13:34:37.586Z</time></trkpt><trkpt lat="45.3159649" lon="11.7790005"><ele>51.57142857142857</ele><time>2026-04-25T13:34:40.585Z</time></trkpt><trkpt lat="45.3159561" lon="11.7788848"><ele>52.42857142857143</ele><time>2026-04-25T13:34:44.587Z</time></trkpt><trkpt lat="45.3159496" lon="11.7787945"><ele>53.285714285714285</ele><time>2026-04-25T13:34:47.586Z</time></trkpt><trkpt lat="45.3159404" lon="11.7786818"><ele>54.14285714285714</ele><time>2026-04-25T13:34:51.585Z</time></trkpt><trkpt lat="45.3159343" lon="11.7785769"><ele>55.0</ele><time>2026-04-25T13:34:55.585Z</time></trkpt><trkpt lat="45.315903" lon="11.7784974"><ele>55.33333333333333</ele><time>2026-04-25T13:34:58.586Z</time></trkpt><trkpt lat="45.3158424" lon="11.7784164"><ele>55.666666666666664</ele><time>2026-04-25T13:35:02.586Z</time></trkpt><trkpt lat="45.315784" lon="11.7783346"><ele>56.0</ele><time>2026-04-25T13:35:06.585Z</time></trkpt><trkpt lat="45.3157299" lon="11.7782629"><ele>56.33333333333333</ele><time>2026-04-25T13:35:10.585Z</time></trkpt><trkpt lat="45.3156744" lon="11.7781859"><ele>56.666666666666664</ele><time>2026-04-25T13:35:14.585Z</time></trkpt><trkpt lat="45.3156105" lon="11.7781164"><ele>57.0</ele><time>2026-04-25T13:35:18.586Z</time></trkpt><trkpt lat="45.3155402" lon="11.7780543"><ele>59.166666666666664</ele><time>2026-04-25T13:35:22.584Z</time></trkpt><trkpt lat="45.3154705" lon="11.7779951"><ele>61.33333333333333</ele><time>2026-04-25T13:35:26.584Z</time></trkpt><trkpt lat="45.3154015" lon="11.777932"><ele>63.5</ele><time>2026-04-25T13:35:30.585Z</time></trkpt><trkpt lat="45.3153286" lon="11.7778726"><ele>65.66666666666666</ele><time>2026-04-25T13:35:34.585Z</time></trkpt><trkpt lat="45.3152512" lon="11.7778312"><ele>67.83333333333333</ele><time>2026-04-25T13:35:38.584Z</time></trkpt><trkpt lat="45.3151747" lon="11.7777984"><ele>70.0</ele><time>2026-04-25T13:35:42.584Z</time></trkpt><trkpt lat="45.3150997" lon="11.7777536"><ele>70.0</ele><time>2026-04-25T13:35:46.585Z</time></trkpt><trkpt lat="45.3150243" lon="11.7777059"><ele>70.0</ele><time>2026-04-25T13:35:50.584Z</time></trkpt><trkpt lat="45.3149497" lon="11.7776566"><ele>70.0</ele><time>2026-04-25T13:35:54.586Z</time></trkpt><trkpt lat="45.3148854" lon="11.7775831"><ele>70.0</ele><time>2026-04-25T13:35:58.585Z</time></trkpt><trkpt lat="45.3148476" lon="11.7774812"><ele>70.0</ele><time>2026-04-25T13:36:02.585Z</time></trkpt><trkpt lat="45.3148445" lon="11.7773897"><ele>70.0</ele><time>2026-04-25T13:36:05.585Z</time></trkpt><trkpt lat="45.3148686" lon="11.7773046"><ele>69.57142857142857</ele><time>2026-04-25T13:36:08.584Z</time></trkpt><trkpt lat="45.3148875" lon="11.7772073"><ele>69.14285714285714</ele><time>2026-04-25T13:36:13.584Z</time></trkpt><trkpt lat="45.3148209" lon="11.7772192"><ele>68.71428571428572</ele><time>2026-04-25T13:36:16.585Z</time></trkpt><trkpt lat="45.3147698" lon="11.7772827"><ele>68.28571428571428</ele><time>2026-04-25T13:36:21.584Z</time></trkpt><trkpt lat="45.3148409" lon="11.7772276"><ele>67.85714285714286</ele><time>2026-04-25T13:37:20.584Z</time></trkpt><trkpt lat="45.3149163" lon="11.7771713"><ele>67.42857142857143</ele><time>2026-04-25T13:37:23.584Z</time></trkpt><trkpt lat="45.3149437" lon="11.777076"><ele>67.0</ele><time>2026-04-25T13:37:26.584Z</time></trkpt><trkpt lat="45.3149478" lon="11.7769662"><ele>67.0</ele><time>2026-04-25T13:37:29.585Z</time></trkpt><trkpt lat="45.3149074" lon="11.7768731"><ele>67.0</ele><time>2026-04-25T13:37:32.585Z</time></trkpt><trkpt lat="45.3148422" lon="11.7768089"><ele>67.0</ele><time>2026-04-25T13:37:35.584Z</time></trkpt><trkpt lat="45.3147688" lon="11.7767804"><ele>67.0</ele><time>2026-04-25T13:37:38.584Z</time></trkpt><trkpt lat="45.3146925" lon="11.7767614"><ele>67.0</ele><time>2026-04-25T13:37:41.585Z</time></trkpt><trkpt lat="45.3146158" lon="11.7767418"><ele>67.0</ele><time>2026-04-25T13:37:44.584Z</time></trkpt><trkpt lat="45.3145461" lon="11.776707"><ele>69.42857142857143</ele><time>2026-04-25T13:37:48.585Z</time></trkpt><trkpt lat="45.3144742" lon="11.7766788"><ele>71.85714285714286</ele><time>2026-04-25T13:37:52.584Z</time></trkpt><trkpt lat="45.3144069" lon="11.7766249"><ele>74.28571428571428</ele><time>2026-04-25T13:37:56.585Z</time></trkpt><trkpt lat="45.3143473" lon="11.7765661"><ele>76.71428571428572</ele><time>2026-04-25T13:38:00.585Z</time></trkpt><trkpt lat="45.3142987" lon="11.7764957"><ele>79.14285714285714</ele><time>2026-04-25T13:38:04.585Z</time></trkpt><trkpt lat="45.3142788" lon="11.7763996"><ele>81.57142857142857</ele><time>2026-04-25T13:38:08.585Z</time></trkpt><trkpt lat="45.314264" lon="11.7763086"><ele>84.0</ele><time>2026-04-25T13:38:12.584Z</time></trkpt><trkpt lat="45.314266" lon="11.7762107"><ele>84.0</ele><time>2026-04-25T13:38:16.585Z</time></trkpt><trkpt lat="45.3142936" lon="11.7761115"><ele>84.0</ele><time>2026-04-25T13:38:20.584Z</time></trkpt><trkpt lat="45.3143473" lon="11.7760434"><ele>84.0</ele><time>2026-04-25T13:38:24.585Z</time></trkpt><trkpt lat="45.3144214" lon="11.7760007"><ele>84.0</ele><time>2026-04-25T13:38:28.585Z</time></trkpt><trkpt lat="45.314503" lon="11.775992"><ele>84.0</ele><time>2026-04-25T13:38:32.585Z</time></trkpt><trkpt lat="45.3145781" lon="11.7759901"><ele>84.0</ele><time>2026-04-25T13:38:36.584Z</time></trkpt><trkpt lat="45.3146543" lon="11.7759954"><ele>84.66666666666667</ele><time>2026-04-25T13:38:40.583Z</time></trkpt><trkpt lat="45.3147353" lon="11.776004"><ele>85.33333333333333</ele><time>2026-04-25T13:38:44.584Z</time></trkpt><trkpt lat="45.3148" lon="11.7760077"><ele>86.0</ele><time>2026-04-25T13:38:47.583Z</time></trkpt><trkpt lat="45.3148816" lon="11.7760102"><ele>86.66666666666666</ele><time>2026-04-25T13:38:51.583Z</time></trkpt><trkpt lat="45.3149634" lon="11.7760104"><ele>87.33333333333333</ele><time>2026-04-25T13:38:55.584Z</time></trkpt><trkpt lat="45.3150265" lon="11.7760123"><ele>88.0</ele><time>2026-04-25T13:38:58.584Z</time></trkpt><trkpt lat="45.3151095" lon="11.7760148"><ele>88.0</ele><time>2026-04-25T13:39:02.584Z</time></trkpt><trkpt lat="45.3151934" lon="11.7760062"><ele>88.0</ele><time>2026-04-25T13:39:06.583Z</time></trkpt><trkpt lat="45.3152761" lon="11.7760049"><ele>88.0</ele><time>2026-04-25T13:39:10.584Z</time></trkpt><trkpt lat="45.3153582" lon="11.7759956"><ele>88.0</ele><time>2026-04-25T13:39:14.584Z</time></trkpt><trkpt lat="45.3154414" lon="11.7759915"><ele>88.0</ele><time>2026-04-25T13:39:18.584Z</time></trkpt><trkpt lat="45.3155245" lon="11.7759827"><ele>88.0</ele><time>2026-04-25T13:39:22.585Z</time></trkpt><trkpt lat="45.3155866" lon="11.7759624"><ele>88.0</ele><time>2026-04-25T13:39:25.583Z</time></trkpt><trkpt lat="45.3156431" lon="11.7759212"><ele>88.0</ele><time>2026-04-25T13:39:28.584Z</time></trkpt><trkpt lat="45.3156937" lon="11.7758676"><ele>88.0</ele><time>2026-04-25T13:39:31.584Z</time></trkpt><trkpt lat="45.3157528" lon="11.7757823"><ele>88.0</ele><time>2026-04-25T13:39:35.583Z</time></trkpt><trkpt lat="45.3157955" lon="11.7757143"><ele>88.0</ele><time>2026-04-25T13:39:38.583Z</time></trkpt><trkpt lat="45.3158266" lon="11.7756342"><ele>88.0</ele><time>2026-04-25T13:39:41.584Z</time></trkpt><trkpt lat="45.3158545" lon="11.7755471"><ele>88.0</ele><time>2026-04-25T13:39:44.584Z</time></trkpt><trkpt lat="45.3158736" lon="11.7754602"><ele>88.0</ele><time>2026-04-25T13:39:47.584Z</time></trkpt><trkpt lat="45.315876" lon="11.7753693"><ele>88.0</ele><time>2026-04-25T13:39:50.583Z</time></trkpt><trkpt lat="45.3158667" lon="11.7752797"><ele>88.0</ele><time>2026-04-25T13:39:53.584Z</time></trkpt><trkpt lat="45.3158534" lon="11.7751648"><ele>88.0</ele><time>2026-04-25T13:39:57.583Z</time></trkpt><trkpt lat="45.3158314" lon="11.7750562"><ele>88.0</ele><time>2026-04-25T13:40:01.583Z</time></trkpt><trkpt lat="45.3158027" lon="11.7749476"><ele>88.0</ele><time>2026-04-25T13:40:05.583Z</time></trkpt><trkpt lat="45.3157712" lon="11.7748402"><ele>89.66666666666666</ele><time>2026-04-25T13:40:09.583Z</time></trkpt><trkpt lat="45.3157409" lon="11.7747336"><ele>91.33333333333333</ele><time>2026-04-25T13:40:13.584Z</time></trkpt><trkpt lat="45.3157141" lon="11.7746327"><ele>93.0</ele><time>2026-04-25T13:40:17.583Z</time></trkpt><trkpt lat="45.3156837" lon="11.7745436"><ele>94.66666666666666</ele><time>2026-04-25T13:40:21.583Z</time></trkpt><trkpt lat="45.3156533" lon="11.7744404"><ele>96.33333333333333</ele><time>2026-04-25T13:40:25.583Z</time></trkpt><trkpt lat="45.3156213" lon="11.7743353"><ele>98.0</ele><time>2026-04-25T13:40:29.584Z</time></trkpt><trkpt lat="45.315595" lon="11.7742307"><ele>99.16666666666666</ele><time>2026-04-25T13:40:33.583Z</time></trkpt><trkpt lat="45.3155734" lon="11.7741223"><ele>100.33333333333333</ele><time>2026-04-25T13:40:37.583Z</time></trkpt><trkpt lat="45.315553" lon="11.7740128"><ele>101.5</ele><time>2026-04-25T13:40:41.584Z</time></trkpt><trkpt lat="45.3155332" lon="11.773905"><ele>102.66666666666666</ele><time>2026-04-25T13:40:45.584Z</time></trkpt><trkpt lat="45.3155118" lon="11.7737927"><ele>103.83333333333333</ele><time>2026-04-25T13:40:49.583Z</time></trkpt><trkpt lat="45.3154878" lon="11.7736856"><ele>105.0</ele><time>2026-04-25T13:40:53.584Z</time></trkpt><trkpt lat="45.315473" lon="11.7735755"><ele>105.28571428571429</ele><time>2026-04-25T13:40:57.583Z</time></trkpt><trkpt lat="45.3154501" lon="11.7734783"><ele>105.57142857142857</ele><time>2026-04-25T13:41:01.583Z</time></trkpt><trkpt lat="45.3154203" lon="11.773391"><ele>105.85714285714286</ele><time>2026-04-25T13:41:05.583Z</time></trkpt><trkpt lat="45.3153875" lon="11.7733081"><ele>106.14285714285714</ele><time>2026-04-25T13:41:09.585Z</time></trkpt><trkpt lat="45.315354" lon="11.7732172"><ele>106.42857142857143</ele><time>2026-04-25T13:41:13.583Z</time></trkpt><trkpt lat="45.3153311" lon="11.7731105"><ele>106.71428571428572</ele><time>2026-04-25T13:41:18.584Z</time></trkpt><trkpt lat="45.3153297" lon="11.7730029"><ele>107.0</ele><time>2026-04-25T13:41:22.584Z</time></trkpt><trkpt lat="45.315302" lon="11.7729201"><ele>107.00000000000001</ele><time>2026-04-25T13:41:26.583Z</time></trkpt><trkpt lat="45.3153171" lon="11.7730208"><ele>107.0</ele><time>2026-04-25T13:41:42.583Z</time></trkpt><trkpt lat="45.3153418" lon="11.7731038"><ele>107.0</ele><time>2026-04-25T13:42:18.583Z</time></trkpt><trkpt lat="45.3153241" lon="11.7732085"><ele>107.0</ele><time>2026-04-25T13:42:21.583Z</time></trkpt><trkpt lat="45.3153253" lon="11.7733095"><ele>107.0</ele><time>2026-04-25T13:42:24.583Z</time></trkpt><trkpt lat="45.3153045" lon="11.7734124"><ele>107.00000000000001</ele><time>2026-04-25T13:42:28.583Z</time></trkpt><trkpt lat="45.3152291" lon="11.7734351"><ele>107.0</ele><time>2026-04-25T13:42:31.583Z</time></trkpt><trkpt lat="45.3151696" lon="11.7734857"><ele>107.00000000000001</ele><time>2026-04-25T13:42:34.583Z</time></trkpt><trkpt lat="45.3151035" lon="11.7735252"><ele>107.0</ele><time>2026-04-25T13:42:38.582Z</time></trkpt><trkpt lat="45.315038" lon="11.7735662"><ele>107.0</ele><time>2026-04-25T13:42:42.582Z</time></trkpt><trkpt lat="45.3149712" lon="11.7735861"><ele>107.0</ele><time>2026-04-25T13:42:45.582Z</time></trkpt><trkpt lat="45.31491" lon="11.7735609"><ele>107.0</ele><time>2026-04-25T13:42:48.583Z</time></trkpt><trkpt lat="45.3148506" lon="11.7735272"><ele>107.00000000000001</ele><time>2026-04-25T13:42:51.582Z</time></trkpt><trkpt lat="45.3147895" lon="11.7734955"><ele>107.0</ele><time>2026-04-25T13:42:54.583Z</time></trkpt><trkpt lat="45.3147285" lon="11.7734668"><ele>107.57142857142858</ele><time>2026-04-25T13:42:57.582Z</time></trkpt><trkpt lat="45.3146682" lon="11.7734325"><ele>108.14285714285714</ele><time>2026-04-25T13:43:00.582Z</time></trkpt><trkpt lat="45.3145942" lon="11.7733897"><ele>108.71428571428572</ele><time>2026-04-25T13:43:04.583Z</time></trkpt><trkpt lat="45.3145319" lon="11.7733655"><ele>109.28571428571429</ele><time>2026-04-25T13:43:07.582Z</time></trkpt><trkpt lat="45.3144712" lon="11.7733399"><ele>109.85714285714286</ele><time>2026-04-25T13:43:10.582Z</time></trkpt><trkpt lat="45.3143906" lon="11.7733016"><ele>110.42857142857143</ele><time>2026-04-25T13:43:14.582Z</time></trkpt><trkpt lat="45.3143319" lon="11.7732643"><ele>111.0</ele><time>2026-04-25T13:43:17.583Z</time></trkpt><trkpt lat="45.3142757" lon="11.7732207"><ele>111.0</ele><time>2026-04-25T13:43:20.582Z</time></trkpt><trkpt lat="45.3142175" lon="11.7731711"><ele>111.0</ele><time>2026-04-25T13:43:23.583Z</time></trkpt><trkpt lat="45.3141528" lon="11.7731304"><ele>111.0</ele><time>2026-04-25T13:43:26.583Z</time></trkpt><trkpt lat="45.3140864" lon="11.7731055"><ele>111.0</ele><time>2026-04-25T13:43:29.582Z</time></trkpt><trkpt lat="45.3140161" lon="11.7730804"><ele>111.0</ele><time>2026-04-25T13:43:32.582Z</time></trkpt><trkpt lat="45.3139484" lon="11.7730588"><ele>111.0</ele><time>2026-04-25T13:43:35.582Z</time></trkpt><trkpt lat="45.3138789" lon="11.7730383"><ele>111.0</ele><time>2026-04-25T13:43:38.582Z</time></trkpt><trkpt lat="45.3138124" lon="11.7730078"><ele>110.85714285714285</ele><time>2026-04-25T13:43:41.582Z</time></trkpt><trkpt lat="45.3137459" lon="11.7729866"><ele>110.71428571428572</ele><time>2026-04-25T13:43:44.583Z</time></trkpt><trkpt lat="45.3136778" lon="11.7729666"><ele>110.57142857142857</ele><time>2026-04-25T13:43:47.582Z</time></trkpt><trkpt lat="45.3136139" lon="11.7729464"><ele>110.42857142857142</ele><time>2026-04-25T13:43:50.582Z</time></trkpt><trkpt lat="45.3135468" lon="11.7729297"><ele>110.28571428571428</ele><time>2026-04-25T13:43:53.583Z</time></trkpt><trkpt lat="45.3134769" lon="11.7729007"><ele>110.14285714285714</ele><time>2026-04-25T13:43:56.583Z</time></trkpt><trkpt lat="45.3134047" lon="11.772875"><ele>110.0</ele><time>2026-04-25T13:43:59.582Z</time></trkpt><trkpt lat="45.3133333" lon="11.7728538"><ele>109.99999999999999</ele><time>2026-04-25T13:44:02.583Z</time></trkpt><trkpt lat="45.313267" lon="11.7728339"><ele>110.0</ele><time>2026-04-25T13:44:05.582Z</time></trkpt><trkpt lat="45.3132018" lon="11.7728079"><ele>110.0</ele><time>2026-04-25T13:44:08.583Z</time></trkpt><trkpt lat="45.3131361" lon="11.7727839"><ele>110.0</ele><time>2026-04-25T13:44:11.582Z</time></trkpt><trkpt lat="45.3130694" lon="11.7727645"><ele>110.0</ele><time>2026-04-25T13:44:14.583Z</time></trkpt><trkpt lat="45.3130018" lon="11.7727416"><ele>109.99999999999999</ele><time>2026-04-25T13:44:17.583Z</time></trkpt><trkpt lat="45.3129378" lon="11.7727418"><ele>110.0</ele><time>2026-04-25T13:44:20.582Z</time></trkpt><trkpt lat="45.312861" lon="11.7727263"><ele>111.28571428571428</ele><time>2026-04-25T13:44:24.582Z</time></trkpt><trkpt lat="45.3127873" lon="11.7727104"><ele>112.57142857142857</ele><time>2026-04-25T13:44:28.582Z</time></trkpt><trkpt lat="45.3127157" lon="11.7727078"><ele>113.85714285714286</ele><time>2026-04-25T13:44:32.582Z</time></trkpt><trkpt lat="45.3126453" lon="11.7727012"><ele>115.14285714285714</ele><time>2026-04-25T13:44:36.583Z</time></trkpt><trkpt lat="45.3125704" lon="11.7726875"><ele>116.42857142857143</ele><time>2026-04-25T13:44:40.582Z</time></trkpt><trkpt lat="45.3124959" lon="11.7726808"><ele>117.71428571428571</ele><time>2026-04-25T13:44:44.582Z</time></trkpt><trkpt lat="45.3124222" lon="11.7726758"><ele>119.0</ele><time>2026-04-25T13:44:48.582Z</time></trkpt><trkpt lat="45.3123505" lon="11.7726628"><ele>119.42857142857143</ele><time>2026-04-25T13:44:52.582Z</time></trkpt><trkpt lat="45.312283" lon="11.7726594"><ele>119.85714285714286</ele><time>2026-04-25T13:44:56.582Z</time></trkpt><trkpt lat="45.312212" lon="11.7726473"><ele>120.28571428571428</ele><time>2026-04-25T13:45:00.582Z</time></trkpt><trkpt lat="45.3121393" lon="11.7726386"><ele>120.71428571428571</ele><time>2026-04-25T13:45:04.582Z</time></trkpt><trkpt lat="45.312072" lon="11.7726292"><ele>121.14285714285714</ele><time>2026-04-25T13:45:08.582Z</time></trkpt><trkpt lat="45.3120075" lon="11.7726069"><ele>121.57142857142856</ele><time>2026-04-25T13:45:12.581Z</time></trkpt><trkpt lat="45.3119407" lon="11.7725816"><ele>121.99999999999999</ele><time>2026-04-25T13:45:16.582Z</time></trkpt><trkpt lat="45.311876" lon="11.7725364"><ele>124.85714285714283</ele><time>2026-04-25T13:45:20.581Z</time></trkpt><trkpt lat="45.3118141" lon="11.7724941"><ele>127.71428571428571</ele><time>2026-04-25T13:45:24.582Z</time></trkpt><trkpt lat="45.3117597" lon="11.7724446"><ele>130.57142857142856</ele><time>2026-04-25T13:45:28.581Z</time></trkpt><trkpt lat="45.3117007" lon="11.7723886"><ele>133.42857142857142</ele><time>2026-04-25T13:45:34.583Z</time></trkpt><trkpt lat="45.3116561" lon="11.7722957"><ele>136.28571428571428</ele><time>2026-04-25T13:45:39.581Z</time></trkpt><trkpt lat="45.3116273" lon="11.772196"><ele>139.14285714285714</ele><time>2026-04-25T13:45:43.583Z</time></trkpt><trkpt lat="45.3116024" lon="11.7720939"><ele>142.0</ele><time>2026-04-25T13:45:47.581Z</time></trkpt><trkpt lat="45.311573" lon="11.7719942"><ele>142.0</ele><time>2026-04-25T13:45:51.581Z</time></trkpt><trkpt lat="45.31155" lon="11.7719092"><ele>142.0</ele><time>2026-04-25T13:45:54.581Z</time></trkpt><trkpt lat="45.3115111" lon="11.7718131"><ele>142.0</ele><time>2026-04-25T13:45:58.582Z</time></trkpt><trkpt lat="45.3114599" lon="11.7717384"><ele>142.0</ele><time>2026-04-25T13:46:01.582Z</time></trkpt><trkpt lat="45.3114118" lon="11.7716354"><ele>142.0</ele><time>2026-04-25T13:46:04.582Z</time></trkpt><trkpt lat="45.3114214" lon="11.7715096"><ele>142.0</ele><time>2026-04-25T13:46:07.582Z</time></trkpt><trkpt lat="45.3114652" lon="11.7713955"><ele>141.0</ele><time>2026-04-25T13:46:10.582Z</time></trkpt><trkpt lat="45.3115023" lon="11.7712849"><ele>140.0</ele><time>2026-04-25T13:46:13.581Z</time></trkpt><trkpt lat="45.3115364" lon="11.7711765"><ele>139.0</ele><time>2026-04-25T13:46:16.583Z</time></trkpt><trkpt lat="45.311549" lon="11.7710551"><ele>138.0</ele><time>2026-04-25T13:46:19.581Z</time></trkpt><trkpt lat="45.3115256" lon="11.7709578"><ele>137.0</ele><time>2026-04-25T13:46:22.581Z</time></trkpt><trkpt lat="45.3114684" lon="11.7708697"><ele>136.0</ele><time>2026-04-25T13:46:25.582Z</time></trkpt><trkpt lat="45.3114038" lon="11.7708108"><ele>140.0</ele><time>2026-04-25T13:46:28.581Z</time></trkpt><trkpt lat="45.3113314" lon="11.7707749"><ele>144.0</ele><time>2026-04-25T13:46:31.581Z</time></trkpt><trkpt lat="45.3112508" lon="11.7707408"><ele>148.0</ele><time>2026-04-25T13:46:34.581Z</time></trkpt><trkpt lat="45.3111723" lon="11.7707076"><ele>152.0</ele><time>2026-04-25T13:46:37.582Z</time></trkpt><trkpt lat="45.3111048" lon="11.7706641"><ele>156.0</ele><time>2026-04-25T13:46:40.581Z</time></trkpt><trkpt lat="45.3110413" lon="11.770606"><ele>160.0</ele><time>2026-04-25T13:46:43.581Z</time></trkpt><trkpt lat="45.3109821" lon="11.7705644"><ele>160.0</ele><time>2026-04-25T13:46:46.581Z</time></trkpt><trkpt lat="45.3109354" lon="11.770499"><ele>160.0</ele><time>2026-04-25T13:46:49.581Z</time></trkpt><trkpt lat="45.3108884" lon="11.7704351"><ele>160.0</ele><time>2026-04-25T13:46:52.582Z</time></trkpt><trkpt lat="45.3108416" lon="11.7703726"><ele>160.0</ele><time>2026-04-25T13:46:55.582Z</time></trkpt><trkpt lat="45.3107804" lon="11.7702952"><ele>160.0</ele><time>2026-04-25T13:46:59.581Z</time></trkpt><trkpt lat="45.3107205" lon="11.7702239"><ele>160.0</ele><time>2026-04-25T13:47:03.582Z</time></trkpt><trkpt lat="45.3106856" lon="11.7701484"><ele>160.0</ele><time>2026-04-25T13:47:06.582Z</time></trkpt><trkpt lat="45.3106352" lon="11.7700635"><ele>160.0</ele><time>2026-04-25T13:47:10.582Z</time></trkpt><trkpt lat="45.3105571" lon="11.7700292"><ele>160.0</ele><time>2026-04-25T13:47:14.581Z</time></trkpt><trkpt lat="45.3104846" lon="11.7700076"><ele>160.0</ele><time>2026-04-25T13:47:18.582Z</time></trkpt><trkpt lat="45.3104079" lon="11.7700086"><ele>160.0</ele><time>2026-04-25T13:47:22.582Z</time></trkpt><trkpt lat="45.3103313" lon="11.7700148"><ele>160.0</ele><time>2026-04-25T13:47:26.581Z</time></trkpt><trkpt lat="45.3102389" lon="11.7700204"><ele>160.0</ele><time>2026-04-25T13:47:31.581Z</time></trkpt><trkpt lat="45.3101614" lon="11.7700042"><ele>160.0</ele><time>2026-04-25T13:47:35.581Z</time></trkpt><trkpt lat="45.3100769" lon="11.7699797"><ele>160.0</ele><time>2026-04-25T13:47:39.582Z</time></trkpt><trkpt lat="45.3100066" lon="11.7699281"><ele>160.0</ele><time>2026-04-25T13:47:43.581Z</time></trkpt><trkpt lat="45.3099459" lon="11.7699026"><ele>160.0</ele><time>2026-04-25T13:47:46.581Z</time></trkpt><trkpt lat="45.3098842" lon="11.7698772"><ele>160.0</ele><time>2026-04-25T13:47:49.582Z</time></trkpt><trkpt lat="45.3098049" lon="11.7698457"><ele>160.0</ele><time>2026-04-25T13:47:53.581Z</time></trkpt><trkpt lat="45.3097302" lon="11.7698173"><ele>160.0</ele><time>2026-04-25T13:47:57.581Z</time></trkpt><trkpt lat="45.3096569" lon="11.7697889"><ele>160.0</ele><time>2026-04-25T13:48:01.581Z</time></trkpt><trkpt lat="45.3095857" lon="11.7697609"><ele>160.0</ele><time>2026-04-25T13:48:05.582Z</time></trkpt><trkpt lat="45.3095294" lon="11.7697163"><ele>160.0</ele><time>2026-04-25T13:48:09.581Z</time></trkpt><trkpt lat="45.3095921" lon="11.7697417"><ele>160.0</ele><time>2026-04-25T13:49:07.582Z</time></trkpt><trkpt lat="45.3096571" lon="11.7697741"><ele>160.0</ele><time>2026-04-25T13:49:09.582Z</time></trkpt><trkpt lat="45.3097498" lon="11.7698059"><ele>160.0</ele><time>2026-04-25T13:49:11.58Z</time></trkpt><trkpt lat="45.3098218" lon="11.7698426"><ele>160.0</ele><time>2026-04-25T13:49:12.58Z</time></trkpt><trkpt lat="45.3099278" lon="11.7698955"><ele>160.0</ele><time>2026-04-25T13:49:14.58Z</time></trkpt><trkpt lat="45.3099947" lon="11.7699221"><ele>160.0</ele><time>2026-04-25T13:49:15.58Z</time></trkpt><trkpt lat="45.3100573" lon="11.7699433"><ele>160.0</ele><time>2026-04-25T13:49:16.581Z</time></trkpt><trkpt lat="45.3101232" lon="11.7699688"><ele>160.0</ele><time>2026-04-25T13:49:17.58Z</time></trkpt><trkpt lat="45.3101834" lon="11.7699952"><ele>160.0</ele><time>2026-04-25T13:49:18.581Z</time></trkpt><trkpt lat="45.3102476" lon="11.7700215"><ele>160.0</ele><time>2026-04-25T13:49:19.58Z</time></trkpt><trkpt lat="45.3103683" lon="11.7700311"><ele>160.0</ele><time>2026-04-25T13:49:21.58Z</time></trkpt><trkpt lat="45.3104326" lon="11.7700211"><ele>160.0</ele><time>2026-04-25T13:49:22.58Z</time></trkpt><trkpt lat="45.3104965" lon="11.7700136"><ele>160.0</ele><time>2026-04-25T13:49:23.581Z</time></trkpt><trkpt lat="45.3106099" lon="11.7700452"><ele>160.0</ele><time>2026-04-25T13:49:25.581Z</time></trkpt><trkpt lat="45.310712" lon="11.7701568"><ele>160.0</ele><time>2026-04-25T13:49:27.58Z</time></trkpt><trkpt lat="45.310765" lon="11.7702289"><ele>160.0</ele><time>2026-04-25T13:49:28.58Z</time></trkpt><trkpt lat="45.3108125" lon="11.7703075"><ele>160.0</ele><time>2026-04-25T13:49:29.581Z</time></trkpt><trkpt lat="45.3108672" lon="11.7703945"><ele>160.0</ele><time>2026-04-25T13:49:30.58Z</time></trkpt><trkpt lat="45.3109224" lon="11.7704731"><ele>160.0</ele><time>2026-04-25T13:49:31.581Z</time></trkpt><trkpt lat="45.3109827" lon="11.7705376"><ele>160.0</ele><time>2026-04-25T13:49:32.58Z</time></trkpt><trkpt lat="45.3110435" lon="11.7706016"><ele>160.0</ele><time>2026-04-25T13:49:33.581Z</time></trkpt><trkpt lat="45.3111047" lon="11.7706609"><ele>160.0</ele><time>2026-04-25T13:49:34.581Z</time></trkpt><trkpt lat="45.3111624" lon="11.7706982"><ele>160.0</ele><time>2026-04-25T13:49:35.581Z</time></trkpt><trkpt lat="45.3112887" lon="11.7707263"><ele>160.0</ele><time>2026-04-25T13:49:37.58Z</time></trkpt><trkpt lat="45.3113911" lon="11.7707817"><ele>160.0</ele><time>2026-04-25T13:49:39.58Z</time></trkpt><trkpt lat="45.3114923" lon="11.7708554"><ele>160.0</ele><time>2026-04-25T13:49:41.582Z</time></trkpt><trkpt lat="45.3115518" lon="11.7709779"><ele>160.0</ele><time>2026-04-25T13:49:43.58Z</time></trkpt><trkpt lat="45.3115686" lon="11.7711379"><ele>160.0</ele><time>2026-04-25T13:49:45.581Z</time></trkpt><trkpt lat="45.311545" lon="11.7712322"><ele>155.2</ele><time>2026-04-25T13:49:46.581Z</time></trkpt><trkpt lat="45.3115198" lon="11.7713171"><ele>150.4</ele><time>2026-04-25T13:49:47.58Z</time></trkpt><trkpt lat="45.3114929" lon="11.7713987"><ele>145.6</ele><time>2026-04-25T13:49:48.581Z</time></trkpt><trkpt lat="45.3114421" lon="11.7715605"><ele>140.8</ele><time>2026-04-25T13:49:50.58Z</time></trkpt><trkpt lat="45.3114775" lon="11.77172"><ele>136.0</ele><time>2026-04-25T13:49:52.58Z</time></trkpt><trkpt lat="45.311553" lon="11.7718427"><ele>137.2</ele><time>2026-04-25T13:49:54.581Z</time></trkpt><trkpt lat="45.3115917" lon="11.7719841"><ele>138.39999999999998</ele><time>2026-04-25T13:49:56.581Z</time></trkpt><trkpt lat="45.3116242" lon="11.7721143"><ele>139.6</ele><time>2026-04-25T13:49:58.581Z</time></trkpt><trkpt lat="45.3116604" lon="11.772251"><ele>140.79999999999998</ele><time>2026-04-25T13:50:00.58Z</time></trkpt><trkpt lat="45.3117017" lon="11.7723618"><ele>142.0</ele><time>2026-04-25T13:50:02.58Z</time></trkpt><trkpt lat="45.3117309" lon="11.7724446"><ele>142.0</ele><time>2026-04-25T13:51:29.581Z</time></trkpt><trkpt lat="45.3118168" lon="11.7724915"><ele>142.0</ele><time>2026-04-25T13:51:44.579Z</time></trkpt><trkpt lat="45.311902" lon="11.7725654"><ele>142.0</ele><time>2026-04-25T13:51:47.579Z</time></trkpt><trkpt lat="45.3119909" lon="11.7726121"><ele>142.0</ele><time>2026-04-25T13:51:49.579Z</time></trkpt><trkpt lat="45.3121004" lon="11.7726411"><ele>142.0</ele><time>2026-04-25T13:51:51.58Z</time></trkpt><trkpt lat="45.3122142" lon="11.7726561"><ele>138.66666666666669</ele><time>2026-04-25T13:51:53.58Z</time></trkpt><trkpt lat="45.3123255" lon="11.7726663"><ele>135.33333333333334</ele><time>2026-04-25T13:51:55.579Z</time></trkpt><trkpt lat="45.3124492" lon="11.7726806"><ele>132.0</ele><time>2026-04-25T13:51:57.58Z</time></trkpt><trkpt lat="45.3125125" lon="11.7726878"><ele>128.66666666666666</ele><time>2026-04-25T13:51:58.58Z</time></trkpt><trkpt lat="45.3125757" lon="11.7726877"><ele>125.33333333333333</ele><time>2026-04-25T13:51:59.58Z</time></trkpt><trkpt lat="45.3126434" lon="11.7726934"><ele>122.0</ele><time>2026-04-25T13:52:00.58Z</time></trkpt><trkpt lat="45.3127093" lon="11.7726954"><ele>121.49999999999999</ele><time>2026-04-25T13:52:01.579Z</time></trkpt><trkpt lat="45.3127737" lon="11.7727007"><ele>121.0</ele><time>2026-04-25T13:52:02.579Z</time></trkpt><trkpt lat="45.3128749" lon="11.7727037"><ele>120.5</ele><time>2026-04-25T13:52:04.579Z</time></trkpt><trkpt lat="45.3129374" lon="11.7727145"><ele>120.0</ele><time>2026-04-25T13:52:06.58Z</time></trkpt><trkpt lat="45.3130142" lon="11.7727303"><ele>119.49999999999999</ele><time>2026-04-25T13:52:08.579Z</time></trkpt><trkpt lat="45.3130814" lon="11.7727624"><ele>119.0</ele><time>2026-04-25T13:52:10.579Z</time></trkpt><trkpt lat="45.3131776" lon="11.7727943"><ele>117.2</ele><time>2026-04-25T13:52:12.58Z</time></trkpt><trkpt lat="45.3132764" lon="11.7728244"><ele>115.4</ele><time>2026-04-25T13:52:14.58Z</time></trkpt><trkpt lat="45.3133909" lon="11.7728655"><ele>113.6</ele><time>2026-04-25T13:52:16.579Z</time></trkpt><trkpt lat="45.3135082" lon="11.7728917"><ele>111.8</ele><time>2026-04-25T13:52:18.58Z</time></trkpt><trkpt lat="45.3136175" lon="11.7729224"><ele>110.0</ele><time>2026-04-25T13:52:20.579Z</time></trkpt><trkpt lat="45.3137317" lon="11.7729681"><ele>110.0</ele><time>2026-04-25T13:52:22.58Z</time></trkpt><trkpt lat="45.3138457" lon="11.7730035"><ele>110.0</ele><time>2026-04-25T13:52:24.58Z</time></trkpt><trkpt lat="45.3139619" lon="11.7730335"><ele>110.0</ele><time>2026-04-25T13:52:26.58Z</time></trkpt><trkpt lat="45.3140733" lon="11.7730747"><ele>110.0</ele><time>2026-04-25T13:52:28.58Z</time></trkpt><trkpt lat="45.3141798" lon="11.7731228"><ele>110.2</ele><time>2026-04-25T13:52:30.579Z</time></trkpt><trkpt lat="45.3142845" lon="11.7731957"><ele>110.4</ele><time>2026-04-25T13:52:32.579Z</time></trkpt><trkpt lat="45.3143413" lon="11.7732368"><ele>110.6</ele><time>2026-04-25T13:52:33.579Z</time></trkpt><trkpt lat="45.314456" lon="11.7733002"><ele>110.8</ele><time>2026-04-25T13:52:35.58Z</time></trkpt><trkpt lat="45.3145763" lon="11.7733641"><ele>111.0</ele><time>2026-04-25T13:52:37.579Z</time></trkpt><trkpt lat="45.3146392" lon="11.7734002"><ele>111.0</ele><time>2026-04-25T13:52:38.58Z</time></trkpt><trkpt lat="45.3147007" lon="11.7734343"><ele>111.0</ele><time>2026-04-25T13:52:39.579Z</time></trkpt><trkpt lat="45.3147618" lon="11.7734706"><ele>111.0</ele><time>2026-04-25T13:52:40.58Z</time></trkpt><trkpt lat="45.3148209" lon="11.7735085"><ele>111.0</ele><time>2026-04-25T13:52:41.579Z</time></trkpt><trkpt lat="45.3148814" lon="11.7735488"><ele>111.0</ele><time>2026-04-25T13:52:42.58Z</time></trkpt><trkpt lat="45.3149921" lon="11.773594"><ele>111.0</ele><time>2026-04-25T13:52:44.58Z</time></trkpt><trkpt lat="45.3151011" lon="11.7735583"><ele>110.8</ele><time>2026-04-25T13:52:46.58Z</time></trkpt><trkpt lat="45.3152123" lon="11.7734932"><ele>110.6</ele><time>2026-04-25T13:52:48.579Z</time></trkpt><trkpt lat="45.3152952" lon="11.7734273"><ele>110.4</ele><time>2026-04-25T13:52:50.579Z</time></trkpt><trkpt lat="45.3153618" lon="11.7734193"><ele>110.2</ele><time>2026-04-25T13:52:53.58Z</time></trkpt><trkpt lat="45.3154253" lon="11.7734915"><ele>110.0</ele><time>2026-04-25T13:53:31.58Z</time></trkpt><trkpt lat="45.3154596" lon="11.7736107"><ele>110.0</ele><time>2026-04-25T13:53:34.58Z</time></trkpt><trkpt lat="45.3154737" lon="11.7737296"><ele>110.0</ele><time>2026-04-25T13:53:36.58Z</time></trkpt><trkpt lat="45.3155008" lon="11.7738706"><ele>110.0</ele><time>2026-04-25T13:53:38.58Z</time></trkpt><trkpt lat="45.3155343" lon="11.7740453"><ele>110.0</ele><time>2026-04-25T13:53:40.58Z</time></trkpt><trkpt lat="45.315554" lon="11.7741434"><ele>110.0</ele><time>2026-04-25T13:53:41.579Z</time></trkpt><trkpt lat="45.3155738" lon="11.7742515"><ele>107.99999999999999</ele><time>2026-04-25T13:53:42.579Z</time></trkpt><trkpt lat="45.3155997" lon="11.7743646"><ele>106.0</ele><time>2026-04-25T13:53:43.579Z</time></trkpt><trkpt lat="45.3156366" lon="11.7744771"><ele>104.0</ele><time>2026-04-25T13:53:44.58Z</time></trkpt><trkpt lat="45.3156779" lon="11.7745941"><ele>102.0</ele><time>2026-04-25T13:53:45.579Z</time></trkpt><trkpt lat="45.3157192" lon="11.7747102"><ele>99.99999999999999</ele><time>2026-04-25T13:53:46.58Z</time></trkpt><trkpt lat="45.3157554" lon="11.7748288"><ele>98.0</ele><time>2026-04-25T13:53:47.579Z</time></trkpt><trkpt lat="45.3157849" lon="11.7749444"><ele>97.99999999999999</ele><time>2026-04-25T13:53:48.58Z</time></trkpt><trkpt lat="45.3158092" lon="11.7750628"><ele>98.0</ele><time>2026-04-25T13:53:49.58Z</time></trkpt><trkpt lat="45.3158335" lon="11.7751791"><ele>98.0</ele><time>2026-04-25T13:53:50.579Z</time></trkpt><trkpt lat="45.3158478" lon="11.7752942"><ele>98.0</ele><time>2026-04-25T13:53:51.578Z</time></trkpt><trkpt lat="45.3158517" lon="11.7754026"><ele>97.99999999999999</ele><time>2026-04-25T13:53:52.579Z</time></trkpt><trkpt lat="45.3158375" lon="11.7755117"><ele>98.0</ele><time>2026-04-25T13:53:53.578Z</time></trkpt><trkpt lat="45.3158074" lon="11.7756113"><ele>96.66666666666666</ele><time>2026-04-25T13:53:54.578Z</time></trkpt><trkpt lat="45.3157575" lon="11.7757011"><ele>95.33333333333333</ele><time>2026-04-25T13:53:55.579Z</time></trkpt><trkpt lat="45.3157078" lon="11.775786"><ele>94.0</ele><time>2026-04-25T13:53:56.579Z</time></trkpt><trkpt lat="45.3156506" lon="11.7758594"><ele>92.66666666666666</ele><time>2026-04-25T13:53:57.578Z</time></trkpt><trkpt lat="45.3155803" lon="11.7759151"><ele>91.33333333333333</ele><time>2026-04-25T13:53:58.578Z</time></trkpt><trkpt lat="45.3155004" lon="11.7759375"><ele>90.0</ele><time>2026-04-25T13:53:59.578Z</time></trkpt><trkpt lat="45.3154171" lon="11.7759472"><ele>90.0</ele><time>2026-04-25T13:54:00.58Z</time></trkpt><trkpt lat="45.3153345" lon="11.7759556"><ele>90.0</ele><time>2026-04-25T13:54:01.578Z</time></trkpt><trkpt lat="45.3152481" lon="11.775957"><ele>90.0</ele><time>2026-04-25T13:54:02.578Z</time></trkpt><trkpt lat="45.3151622" lon="11.7759597"><ele>90.0</ele><time>2026-04-25T13:54:03.579Z</time></trkpt><trkpt lat="45.3150749" lon="11.7759582"><ele>90.0</ele><time>2026-04-25T13:54:04.579Z</time></trkpt><trkpt lat="45.3149848" lon="11.7759524"><ele>90.0</ele><time>2026-04-25T13:54:05.578Z</time></trkpt><trkpt lat="45.3148956" lon="11.775949"><ele>90.0</ele><time>2026-04-25T13:54:06.579Z</time></trkpt><trkpt lat="45.3148073" lon="11.7759442"><ele>90.0</ele><time>2026-04-25T13:54:07.578Z</time></trkpt><trkpt lat="45.3147176" lon="11.7759365"><ele>90.0</ele><time>2026-04-25T13:54:08.579Z</time></trkpt><trkpt lat="45.314633" lon="11.775927"><ele>90.0</ele><time>2026-04-25T13:54:09.579Z</time></trkpt><trkpt lat="45.3145502" lon="11.7759216"><ele>90.0</ele><time>2026-04-25T13:54:10.578Z</time></trkpt><trkpt lat="45.3144735" lon="11.775927"><ele>90.0</ele><time>2026-04-25T13:54:11.578Z</time></trkpt><trkpt lat="45.3143982" lon="11.7759467"><ele>89.66666666666667</ele><time>2026-04-25T13:54:12.578Z</time></trkpt><trkpt lat="45.3143305" lon="11.7759917"><ele>89.33333333333333</ele><time>2026-04-25T13:54:13.579Z</time></trkpt><trkpt lat="45.3142736" lon="11.7760635"><ele>89.0</ele><time>2026-04-25T13:54:14.578Z</time></trkpt><trkpt lat="45.3142387" lon="11.7761665"><ele>88.66666666666666</ele><time>2026-04-25T13:54:15.579Z</time></trkpt><trkpt lat="45.3142261" lon="11.7762832"><ele>88.33333333333333</ele><time>2026-04-25T13:54:16.578Z</time></trkpt><trkpt lat="45.3142412" lon="11.7764091"><ele>88.0</ele><time>2026-04-25T13:54:17.578Z</time></trkpt><trkpt lat="45.3142869" lon="11.7765292"><ele>87.2</ele><time>2026-04-25T13:54:18.579Z</time></trkpt><trkpt lat="45.3143495" lon="11.7766413"><ele>86.4</ele><time>2026-04-25T13:54:19.578Z</time></trkpt><trkpt lat="45.3144381" lon="11.7767025"><ele>85.60000000000001</ele><time>2026-04-25T13:54:20.58Z</time></trkpt><trkpt lat="45.3145332" lon="11.7767427"><ele>84.80000000000001</ele><time>2026-04-25T13:54:21.578Z</time></trkpt><trkpt lat="45.3146284" lon="11.7767781"><ele>84.0</ele><time>2026-04-25T13:54:22.579Z</time></trkpt><trkpt lat="45.3147198" lon="11.776804"><ele>82.83333333333333</ele><time>2026-04-25T13:54:23.579Z</time></trkpt><trkpt lat="45.3147994" lon="11.7768348"><ele>81.66666666666667</ele><time>2026-04-25T13:54:24.578Z</time></trkpt><trkpt lat="45.3148624" lon="11.7768773"><ele>80.5</ele><time>2026-04-25T13:54:25.579Z</time></trkpt><trkpt lat="45.3148996" lon="11.7769527"><ele>79.33333333333334</ele><time>2026-04-25T13:54:26.578Z</time></trkpt><trkpt lat="45.3149104" lon="11.7770554"><ele>78.16666666666667</ele><time>2026-04-25T13:54:27.578Z</time></trkpt><trkpt lat="45.3148892" lon="11.7771616"><ele>77.0</ele><time>2026-04-25T13:54:28.579Z</time></trkpt><trkpt lat="45.3148487" lon="11.7772639"><ele>75.83333333333334</ele><time>2026-04-25T13:54:29.58Z</time></trkpt><trkpt lat="45.314825" lon="11.7773797"><ele>74.66666666666667</ele><time>2026-04-25T13:54:30.578Z</time></trkpt><trkpt lat="45.3148327" lon="11.7774974"><ele>73.5</ele><time>2026-04-25T13:54:31.579Z</time></trkpt><trkpt lat="45.3148776" lon="11.7775978"><ele>72.33333333333333</ele><time>2026-04-25T13:54:32.579Z</time></trkpt><trkpt lat="45.3149443" lon="11.7776835"><ele>71.16666666666666</ele><time>2026-04-25T13:54:33.579Z</time></trkpt><trkpt lat="45.3150269" lon="11.7777503"><ele>70.0</ele><time>2026-04-25T13:54:34.579Z</time></trkpt><trkpt lat="45.3151205" lon="11.7777975"><ele>70.0</ele><time>2026-04-25T13:54:35.579Z</time></trkpt><trkpt lat="45.315211" lon="11.7778522"><ele>70.0</ele><time>2026-04-25T13:54:36.578Z</time></trkpt><trkpt lat="45.3153075" lon="11.777912"><ele>70.0</ele><time>2026-04-25T13:54:37.579Z</time></trkpt><trkpt lat="45.3153983" lon="11.7779819"><ele>70.0</ele><time>2026-04-25T13:54:38.578Z</time></trkpt><trkpt lat="45.3154925" lon="11.7780557"><ele>70.0</ele><time>2026-04-25T13:54:39.578Z</time></trkpt><trkpt lat="45.3155825" lon="11.7781375"><ele>67.4</ele><time>2026-04-25T13:54:40.578Z</time></trkpt><trkpt lat="45.3156661" lon="11.7782247"><ele>64.8</ele><time>2026-04-25T13:54:41.579Z</time></trkpt><trkpt lat="45.3157413" lon="11.7783145"><ele>62.2</ele><time>2026-04-25T13:54:42.578Z</time></trkpt><trkpt lat="45.3158081" lon="11.7784118"><ele>59.6</ele><time>2026-04-25T13:54:43.579Z</time></trkpt><trkpt lat="45.3158691" lon="11.7785243"><ele>57.0</ele><time>2026-04-25T13:54:44.578Z</time></trkpt><trkpt lat="45.3159132" lon="11.7786659"><ele>56.5</ele><time>2026-04-25T13:54:45.578Z</time></trkpt><trkpt lat="45.3159323" lon="11.7788242"><ele>56.0</ele><time>2026-04-25T13:54:46.578Z</time></trkpt><trkpt lat="45.3159473" lon="11.778988"><ele>55.5</ele><time>2026-04-25T13:54:47.578Z</time></trkpt><trkpt lat="45.3159614" lon="11.779154"><ele>55.0</ele><time>2026-04-25T13:54:48.579Z</time></trkpt><trkpt lat="45.3159751" lon="11.7793183"><ele>53.5</ele><time>2026-04-25T13:54:49.579Z</time></trkpt><trkpt lat="45.3159925" lon="11.7794846"><ele>52.0</ele><time>2026-04-25T13:54:50.578Z</time></trkpt><trkpt lat="45.3160223" lon="11.7796497"><ele>50.5</ele><time>2026-04-25T13:54:51.578Z</time></trkpt><trkpt lat="45.3160696" lon="11.7798009"><ele>49.0</ele><time>2026-04-25T13:54:52.578Z</time></trkpt><trkpt lat="45.3161299" lon="11.7799398"><ele>49.0</ele><time>2026-04-25T13:54:53.578Z</time></trkpt><trkpt lat="45.3161858" lon="11.7800713"><ele>49.0</ele><time>2026-04-25T13:54:54.578Z</time></trkpt><trkpt lat="45.3162354" lon="11.7801923"><ele>49.0</ele><time>2026-04-25T13:54:55.578Z</time></trkpt><trkpt lat="45.3162695" lon="11.7803229"><ele>49.0</ele><time>2026-04-25T13:54:56.578Z</time></trkpt><trkpt lat="45.3162993" lon="11.7804518"><ele>49.0</ele><time>2026-04-25T13:54:57.578Z</time></trkpt><trkpt lat="45.316325" lon="11.7805804"><ele>47.400000000000006</ele><time>2026-04-25T13:54:58.578Z</time></trkpt><trkpt lat="45.316351" lon="11.7807068"><ele>45.8</ele><time>2026-04-25T13:54:59.579Z</time></trkpt><trkpt lat="45.3163768" lon="11.7808385"><ele>44.2</ele><time>2026-04-25T13:55:00.579Z</time></trkpt><trkpt lat="45.3164038" lon="11.7809626"><ele>42.599999999999994</ele><time>2026-04-25T13:55:01.578Z</time></trkpt><trkpt lat="45.3164339" lon="11.7810925"><ele>41.0</ele><time>2026-04-25T13:55:02.578Z</time></trkpt><trkpt lat="45.3164734" lon="11.7812178"><ele>38.599999999999994</ele><time>2026-04-25T13:55:03.578Z</time></trkpt><trkpt lat="45.316521" lon="11.7813411"><ele>36.199999999999996</ele><time>2026-04-25T13:55:04.578Z</time></trkpt><trkpt lat="45.3165721" lon="11.7814593"><ele>33.8</ele><time>2026-04-25T13:55:05.578Z</time></trkpt><trkpt lat="45.316622" lon="11.781568"><ele>31.4</ele><time>2026-04-25T13:55:06.578Z</time></trkpt><trkpt lat="45.316671" lon="11.7816716"><ele>29.0</ele><time>2026-04-25T13:55:07.58Z</time></trkpt><trkpt lat="45.3167142" lon="11.7817626"><ele>28.999999999999996</ele><time>2026-04-25T13:55:08.579Z</time></trkpt><trkpt lat="45.3167513" lon="11.7818444"><ele>29.0</ele><time>2026-04-25T13:55:09.58Z</time></trkpt><trkpt lat="45.3168076" lon="11.7819885"><ele>29.0</ele><time>2026-04-25T13:55:11.579Z</time></trkpt><trkpt lat="45.3168525" lon="11.7820803"><ele>29.0</ele><time>2026-04-25T13:55:13.579Z</time></trkpt><trkpt lat="45.3168776" lon="11.78217"><ele>28.999999999999996</ele><time>2026-04-25T13:55:15.579Z</time></trkpt><trkpt lat="45.316873" lon="11.7822896"><ele>29.0</ele><time>2026-04-25T13:55:17.579Z</time></trkpt><trkpt lat="45.3169172" lon="11.7824148"><ele>27.833333333333332</ele><time>2026-04-25T13:55:19.579Z</time></trkpt><trkpt lat="45.3169874" lon="11.7825434"><ele>26.666666666666664</ele><time>2026-04-25T13:55:21.578Z</time></trkpt><trkpt lat="45.3170193" lon="11.7827155"><ele>25.5</ele><time>2026-04-25T13:55:23.578Z</time></trkpt><trkpt lat="45.3170309" lon="11.7828101"><ele>24.333333333333332</ele><time>2026-04-25T13:55:24.578Z</time></trkpt><trkpt lat="45.3170439" lon="11.7829046"><ele>23.166666666666664</ele><time>2026-04-25T13:55:25.578Z</time></trkpt><trkpt lat="45.317058" lon="11.7830016"><ele>22.0</ele><time>2026-04-25T13:55:26.578Z</time></trkpt><trkpt lat="45.3170719" lon="11.7831017"><ele>21.285714285714285</ele><time>2026-04-25T13:55:27.579Z</time></trkpt><trkpt lat="45.3170897" lon="11.7832029"><ele>20.57142857142857</ele><time>2026-04-25T13:55:28.578Z</time></trkpt><trkpt lat="45.3171083" lon="11.7833069"><ele>19.857142857142854</ele><time>2026-04-25T13:55:29.58Z</time></trkpt><trkpt lat="45.3171356" lon="11.7834051"><ele>19.142857142857142</ele><time>2026-04-25T13:55:30.578Z</time></trkpt><trkpt lat="45.3171665" lon="11.7834997"><ele>18.428571428571427</ele><time>2026-04-25T13:55:31.579Z</time></trkpt><trkpt lat="45.3172015" lon="11.7835892"><ele>17.71428571428571</ele><time>2026-04-25T13:55:32.579Z</time></trkpt><trkpt lat="45.3172393" lon="11.7836786"><ele>17.0</ele><time>2026-04-25T13:55:33.578Z</time></trkpt><trkpt lat="45.3172803" lon="11.7837693"><ele>16.666666666666668</ele><time>2026-04-25T13:55:34.578Z</time></trkpt><trkpt lat="45.3173163" lon="11.7838615"><ele>16.333333333333336</ele><time>2026-04-25T13:55:35.578Z</time></trkpt><trkpt lat="45.317356" lon="11.7839485"><ele>16.0</ele><time>2026-04-25T13:55:36.578Z</time></trkpt><trkpt lat="45.3173942" lon="11.7840916"><ele>15.666666666666668</ele><time>2026-04-25T13:55:38.579Z</time></trkpt><trkpt lat="45.3173602" lon="11.7842056"><ele>15.333333333333334</ele><time>2026-04-25T13:55:40.578Z</time></trkpt><trkpt lat="45.3172821" lon="11.7842793"><ele>15.0</ele><time>2026-04-25T13:55:42.579Z</time></trkpt><trkpt lat="45.3171815" lon="11.7843316"><ele>14.333333333333334</ele><time>2026-04-25T13:55:44.579Z</time></trkpt><trkpt lat="45.317058" lon="11.7843642"><ele>13.666666666666666</ele><time>2026-04-25T13:55:46.578Z</time></trkpt><trkpt lat="45.3169912" lon="11.7843784"><ele>13.0</ele><time>2026-04-25T13:55:47.579Z</time></trkpt><trkpt lat="45.3169235" lon="11.7843896"><ele>12.333333333333332</ele><time>2026-04-25T13:55:48.578Z</time></trkpt><trkpt lat="45.3168524" lon="11.7844006"><ele>11.666666666666666</ele><time>2026-04-25T13:55:49.578Z</time></trkpt><trkpt lat="45.3167814" lon="11.7844176"><ele>11.0</ele><time>2026-04-25T13:55:50.579Z</time></trkpt><trkpt lat="45.3167126" lon="11.7844388"><ele>11.0</ele><time>2026-04-25T13:55:51.578Z</time></trkpt><trkpt lat="45.3166447" lon="11.7844674"><ele>11.0</ele><time>2026-04-25T13:55:52.578Z</time></trkpt><trkpt lat="45.3165785" lon="11.7845061"><ele>11.0</ele><time>2026-04-25T13:55:53.578Z</time></trkpt><trkpt lat="45.3165137" lon="11.7845452"><ele>11.0</ele><time>2026-04-25T13:55:54.578Z</time></trkpt><trkpt lat="45.3164484" lon="11.7845906"><ele>11.0</ele><time>2026-04-25T13:55:55.578Z</time></trkpt><trkpt lat="45.3163879" lon="11.7846427"><ele>11.0</ele><time>2026-04-25T13:55:56.578Z</time></trkpt><trkpt lat="45.3163274" lon="11.784699"><ele>11.0</ele><time>2026-04-25T13:55:57.579Z</time></trkpt><trkpt lat="45.3162678" lon="11.7847566"><ele>11.142857142857142</ele><time>2026-04-25T13:55:58.578Z</time></trkpt><trkpt lat="45.3162129" lon="11.7848205"><ele>11.285714285714285</ele><time>2026-04-25T13:55:59.578Z</time></trkpt><trkpt lat="45.3161592" lon="11.7848858"><ele>11.428571428571427</ele><time>2026-04-25T13:56:00.579Z</time></trkpt><trkpt lat="45.3161088" lon="11.7849458"><ele>11.571428571428571</ele><time>2026-04-25T13:56:01.578Z</time></trkpt><trkpt lat="45.3160567" lon="11.7850064"><ele>11.714285714285714</ele><time>2026-04-25T13:56:02.579Z</time></trkpt><trkpt lat="45.3160073" lon="11.7850751"><ele>11.857142857142856</ele><time>2026-04-25T13:56:03.579Z</time></trkpt><trkpt lat="45.3159609" lon="11.7851428"><ele>12.0</ele><time>2026-04-25T13:56:04.579Z</time></trkpt><trkpt lat="45.3159131" lon="11.7852085"><ele>11.666666666666666</ele><time>2026-04-25T13:56:05.578Z</time></trkpt><trkpt lat="45.3158685" lon="11.7852779"><ele>11.333333333333334</ele><time>2026-04-25T13:56:06.578Z</time></trkpt><trkpt lat="45.3158231" lon="11.7853431"><ele>11.0</ele><time>2026-04-25T13:56:07.578Z</time></trkpt><trkpt lat="45.3157383" lon="11.7854747"><ele>10.666666666666668</ele><time>2026-04-25T13:56:09.578Z</time></trkpt><trkpt lat="45.3156664" lon="11.7855885"><ele>10.333333333333334</ele><time>2026-04-25T13:56:11.578Z</time></trkpt><trkpt lat="45.3156099" lon="11.7856777"><ele>10.0</ele><time>2026-04-25T13:56:14.578Z</time></trkpt><trkpt lat="45.3155713" lon="11.7857513"><ele>10.166666666666668</ele><time>2026-04-25T13:57:25.577Z</time></trkpt><trkpt lat="45.315522" lon="11.7858526"><ele>10.333333333333334</ele><time>2026-04-25T13:57:28.577Z</time></trkpt><trkpt lat="45.315477" lon="11.7859226"><ele>10.5</ele><time>2026-04-25T13:57:30.577Z</time></trkpt><trkpt lat="45.315429" lon="11.7860003"><ele>10.666666666666666</ele><time>2026-04-25T13:57:32.578Z</time></trkpt><trkpt lat="45.3153775" lon="11.786079"><ele>10.833333333333332</ele><time>2026-04-25T13:57:34.577Z</time></trkpt><trkpt lat="45.3153221" lon="11.7861651"><ele>11.0</ele><time>2026-04-25T13:57:36.577Z</time></trkpt><trkpt lat="45.315253" lon="11.7862513"><ele>11.0</ele><time>2026-04-25T13:57:38.578Z</time></trkpt><trkpt lat="45.3151745" lon="11.7863331"><ele>11.0</ele><time>2026-04-25T13:57:40.577Z</time></trkpt><trkpt lat="45.3150908" lon="11.7863992"><ele>11.0</ele><time>2026-04-25T13:57:42.577Z</time></trkpt><trkpt lat="45.3149988" lon="11.786456"><ele>11.0</ele><time>2026-04-25T13:57:44.577Z</time></trkpt><trkpt lat="45.3149054" lon="11.7865134"><ele>11.0</ele><time>2026-04-25T13:57:46.577Z</time></trkpt><trkpt lat="45.3148099" lon="11.7865756"><ele>10.8</ele><time>2026-04-25T13:57:48.578Z</time></trkpt><trkpt lat="45.3147205" lon="11.7866488"><ele>10.600000000000001</ele><time>2026-04-25T13:57:50.577Z</time></trkpt><trkpt lat="45.314629" lon="11.7867211"><ele>10.4</ele><time>2026-04-25T13:57:52.578Z</time></trkpt><trkpt lat="45.3145444" lon="11.7867941"><ele>10.2</ele><time>2026-04-25T13:57:54.578Z</time></trkpt><trkpt lat="45.3144686" lon="11.7868764"><ele>10.0</ele><time>2026-04-25T13:57:56.578Z</time></trkpt><trkpt lat="45.3143946" lon="11.7869559"><ele>10.0</ele><time>2026-04-25T13:57:58.577Z</time></trkpt><trkpt lat="45.314353" lon="11.7870427"><ele>10.0</ele><time>2026-04-25T13:58:00.578Z</time></trkpt><trkpt lat="45.3143596" lon="11.7871467"><ele>10.0</ele><time>2026-04-25T13:58:02.577Z</time></trkpt><trkpt lat="45.3143851" lon="11.787251"><ele>10.0</ele><time>2026-04-25T13:58:04.577Z</time></trkpt><trkpt lat="45.3144073" lon="11.7873462"><ele>10.0</ele><time>2026-04-25T13:58:06.578Z</time></trkpt><trkpt lat="45.3144316" lon="11.7874597"><ele>10.0</ele><time>2026-04-25T13:58:09.578Z</time></trkpt><trkpt lat="45.3144114" lon="11.787354"><ele>10.0</ele><time>2026-04-25T13:58:29.577Z</time></trkpt><trkpt lat="45.3144217" lon="11.7872486"><ele>10.0</ele><time>2026-04-25T13:58:32.578Z</time></trkpt><trkpt lat="45.3143958" lon="11.7871426"><ele>10.0</ele><time>2026-04-25T13:58:35.577Z</time></trkpt><trkpt lat="45.3143718" lon="11.7870521"><ele>10.0</ele><time>2026-04-25T13:59:09.576Z</time></trkpt><trkpt lat="45.314299" lon="11.7870388"><ele>10.0</ele><time>2026-04-25T13:59:14.576Z</time></trkpt><trkpt lat="45.3142451" lon="11.787103"><ele>10.0</ele><time>2026-04-25T13:59:16.576Z</time></trkpt><trkpt lat="45.3141787" lon="11.7871682"><ele>10.0</ele><time>2026-04-25T13:59:18.577Z</time></trkpt><trkpt lat="45.314111" lon="11.7872224"><ele>10.0</ele><time>2026-04-25T13:59:20.577Z</time></trkpt><trkpt lat="45.3140373" lon="11.7872717"><ele>10.0</ele><time>2026-04-25T13:59:22.576Z</time></trkpt><trkpt lat="45.3139576" lon="11.7873308"><ele>10.0</ele><time>2026-04-25T13:59:24.576Z</time></trkpt><trkpt lat="45.3138686" lon="11.787383"><ele>10.0</ele><time>2026-04-25T13:59:26.576Z</time></trkpt><trkpt lat="45.3137711" lon="11.7874178"><ele>10.0</ele><time>2026-04-25T13:59:28.576Z</time></trkpt><trkpt lat="45.3136676" lon="11.7874437"><ele>11.0</ele><time>2026-04-25T13:59:30.576Z</time></trkpt><trkpt lat="45.3135576" lon="11.787467"><ele>12.0</ele><time>2026-04-25T13:59:32.576Z</time></trkpt><trkpt lat="45.3134464" lon="11.7875092"><ele>13.0</ele><time>2026-04-25T13:59:34.576Z</time></trkpt><trkpt lat="45.3133428" lon="11.7875719"><ele>14.0</ele><time>2026-04-25T13:59:36.577Z</time></trkpt><trkpt lat="45.3132451" lon="11.7876531"><ele>13.0</ele><time>2026-04-25T13:59:38.576Z</time></trkpt><trkpt lat="45.3131591" lon="11.787746"><ele>11.999999999999998</ele><time>2026-04-25T13:59:40.577Z</time></trkpt><trkpt lat="45.313083" lon="11.7878455"><ele>11.0</ele><time>2026-04-25T13:59:42.577Z</time></trkpt><trkpt lat="45.3130178" lon="11.7879431"><ele>10.0</ele><time>2026-04-25T13:59:44.577Z</time></trkpt><trkpt lat="45.3129555" lon="11.7880293"><ele>9.0</ele><time>2026-04-25T13:59:46.577Z</time></trkpt><trkpt lat="45.3128958" lon="11.7881153"><ele>10.666666666666666</ele><time>2026-04-25T13:59:48.577Z</time></trkpt><trkpt lat="45.3128308" lon="11.7882037"><ele>12.333333333333332</ele><time>2026-04-25T13:59:50.576Z</time></trkpt><trkpt lat="45.3127647" lon="11.7882897"><ele>14.0</ele><time>2026-04-25T13:59:52.576Z</time></trkpt><trkpt lat="45.3126945" lon="11.7883631"><ele>15.666666666666666</ele><time>2026-04-25T13:59:54.576Z</time></trkpt><trkpt lat="45.3126344" lon="11.7884108"><ele>17.333333333333332</ele><time>2026-04-25T13:59:56.577Z</time></trkpt><trkpt lat="45.3125561" lon="11.7884674"><ele>19.0</ele><time>2026-04-25T13:59:59.576Z</time></trkpt><trkpt lat="45.3124874" lon="11.7885055"><ele>17.428571428571427</ele><time>2026-04-25T14:00:02.577Z</time></trkpt><trkpt lat="45.312423" lon="11.7885354"><ele>15.857142857142858</ele><time>2026-04-25T14:00:06.577Z</time></trkpt><trkpt lat="45.312356" lon="11.7885873"><ele>14.285714285714286</ele><time>2026-04-25T14:00:11.577Z</time></trkpt><trkpt lat="45.3123042" lon="11.7886394"><ele>12.714285714285714</ele><time>2026-04-25T14:00:15.578Z</time></trkpt><trkpt lat="45.3122367" lon="11.7886637"><ele>11.142857142857142</ele><time>2026-04-25T14:00:19.577Z</time></trkpt><trkpt lat="45.3121743" lon="11.7886756"><ele>9.571428571428571</ele><time>2026-04-25T14:00:23.577Z</time></trkpt><trkpt lat="45.3121005" lon="11.7886668"><ele>8.0</ele><time>2026-04-25T14:00:42.577Z</time></trkpt><trkpt lat="45.3120325" lon="11.7886217"><ele>7.999999999999999</ele><time>2026-04-25T14:00:46.576Z</time></trkpt><trkpt lat="45.3119478" lon="11.7885812"><ele>8.0</ele><time>2026-04-25T14:00:50.576Z</time></trkpt><trkpt lat="45.3118789" lon="11.7885452"><ele>8.0</ele><time>2026-04-25T14:00:53.576Z</time></trkpt><trkpt lat="45.3118158" lon="11.7885062"><ele>8.0</ele><time>2026-04-25T14:00:55.576Z</time></trkpt><trkpt lat="45.3117417" lon="11.78846"><ele>7.999999999999999</ele><time>2026-04-25T14:00:57.577Z</time></trkpt><trkpt lat="45.3116635" lon="11.7884241"><ele>8.0</ele><time>2026-04-25T14:00:59.576Z</time></trkpt><trkpt lat="45.3115738" lon="11.7883794"><ele>8.8</ele><time>2026-04-25T14:01:01.576Z</time></trkpt><trkpt lat="45.3114772" lon="11.7883247"><ele>9.600000000000001</ele><time>2026-04-25T14:01:03.576Z</time></trkpt><trkpt lat="45.3113759" lon="11.7882724"><ele>10.399999999999999</ele><time>2026-04-25T14:01:05.577Z</time></trkpt><trkpt lat="45.3112715" lon="11.788221"><ele>11.2</ele><time>2026-04-25T14:01:07.576Z</time></trkpt><trkpt lat="45.3111603" lon="11.7881634"><ele>12.0</ele><time>2026-04-25T14:01:09.576Z</time></trkpt><trkpt lat="45.3111001" lon="11.7881365"><ele>11.999999999999998</ele><time>2026-04-25T14:01:10.576Z</time></trkpt><trkpt lat="45.3110394" lon="11.7881059"><ele>12.0</ele><time>2026-04-25T14:01:11.577Z</time></trkpt><trkpt lat="45.3109773" lon="11.7880726"><ele>12.0</ele><time>2026-04-25T14:01:12.577Z</time></trkpt><trkpt lat="45.3109147" lon="11.7880394"><ele>12.0</ele><time>2026-04-25T14:01:13.576Z</time></trkpt><trkpt lat="45.3108507" lon="11.788005"><ele>12.0</ele><time>2026-04-25T14:01:14.577Z</time></trkpt><trkpt lat="45.3107875" lon="11.7879744"><ele>11.999999999999998</ele><time>2026-04-25T14:01:15.576Z</time></trkpt><trkpt lat="45.3107243" lon="11.7879412"><ele>12.0</ele><time>2026-04-25T14:01:16.577Z</time></trkpt><trkpt lat="45.3106626" lon="11.7879105"><ele>12.0</ele><time>2026-04-25T14:01:17.576Z</time></trkpt><trkpt lat="45.3106002" lon="11.7878762"><ele>12.0</ele><time>2026-04-25T14:01:18.576Z</time></trkpt><trkpt lat="45.3105367" lon="11.7878438"><ele>12.0</ele><time>2026-04-25T14:01:19.577Z</time></trkpt><trkpt lat="45.3104757" lon="11.787807"><ele>12.0</ele><time>2026-04-25T14:01:20.577Z</time></trkpt><trkpt lat="45.3104165" lon="11.7877665"><ele>12.0</ele><time>2026-04-25T14:01:21.576Z</time></trkpt><trkpt lat="45.3103583" lon="11.7877256"><ele>12.0</ele><time>2026-04-25T14:01:22.576Z</time></trkpt><trkpt lat="45.3102466" lon="11.7876499"><ele>11.6</ele><time>2026-04-25T14:01:24.576Z</time></trkpt><trkpt lat="45.3101441" lon="11.7875694"><ele>11.2</ele><time>2026-04-25T14:01:26.577Z</time></trkpt><trkpt lat="45.3100424" lon="11.7875108"><ele>10.8</ele><time>2026-04-25T14:01:28.577Z</time></trkpt><trkpt lat="45.3099483" lon="11.7874558"><ele>10.4</ele><time>2026-04-25T14:01:30.576Z</time></trkpt><trkpt lat="45.3098596" lon="11.7874007"><ele>10.0</ele><time>2026-04-25T14:01:32.576Z</time></trkpt><trkpt lat="45.3097767" lon="11.787356"><ele>12.666666666666668</ele><time>2026-04-25T14:01:34.576Z</time></trkpt><trkpt lat="45.3096971" lon="11.7873091"><ele>15.333333333333332</ele><time>2026-04-25T14:01:36.575Z</time></trkpt><trkpt lat="45.3096241" lon="11.7872654"><ele>18.0</ele><time>2026-04-25T14:01:38.576Z</time></trkpt><trkpt lat="45.3095591" lon="11.7872297"><ele>20.666666666666664</ele><time>2026-04-25T14:01:40.575Z</time></trkpt><trkpt lat="45.3094757" lon="11.7871809"><ele>23.333333333333332</ele><time>2026-04-25T14:01:43.575Z</time></trkpt><trkpt lat="45.3094143" lon="11.7871159"><ele>26.0</ele><time>2026-04-25T14:01:46.576Z</time></trkpt><trkpt lat="45.3094506" lon="11.7871939"><ele>25.999999999999996</ele><time>2026-04-25T14:02:04.575Z</time></trkpt><trkpt lat="45.3095154" lon="11.7872282"><ele>26.0</ele><time>2026-04-25T14:02:07.575Z</time></trkpt><trkpt lat="45.3095757" lon="11.7872633"><ele>26.0</ele><time>2026-04-25T14:02:09.575Z</time></trkpt><trkpt lat="45.3096479" lon="11.7873006"><ele>26.0</ele><time>2026-04-25T14:02:11.575Z</time></trkpt><trkpt lat="45.3097262" lon="11.7873476"><ele>25.999999999999996</ele><time>2026-04-25T14:02:13.576Z</time></trkpt><trkpt lat="45.3098101" lon="11.7873949"><ele>26.0</ele><time>2026-04-25T14:02:15.575Z</time></trkpt><trkpt lat="45.3099023" lon="11.7874432"><ele>22.8</ele><time>2026-04-25T14:02:17.575Z</time></trkpt><trkpt lat="45.3099998" lon="11.7875"><ele>19.6</ele><time>2026-04-25T14:02:19.575Z</time></trkpt><trkpt lat="45.3100976" lon="11.787563"><ele>16.4</ele><time>2026-04-25T14:02:21.576Z</time></trkpt><trkpt lat="45.3101916" lon="11.7876294"><ele>13.2</ele><time>2026-04-25T14:02:23.576Z</time></trkpt><trkpt lat="45.3102768" lon="11.7876876"><ele>10.0</ele><time>2026-04-25T14:02:25.575Z</time></trkpt><trkpt lat="45.3103632" lon="11.787752"><ele>10.0</ele><time>2026-04-25T14:02:27.576Z</time></trkpt><trkpt lat="45.3104516" lon="11.7878031"><ele>10.0</ele><time>2026-04-25T14:02:29.575Z</time></trkpt><trkpt lat="45.3105396" lon="11.7878547"><ele>10.0</ele><time>2026-04-25T14:02:31.576Z</time></trkpt><trkpt lat="45.3106317" lon="11.7879066"><ele>10.0</ele><time>2026-04-25T14:02:33.575Z</time></trkpt><trkpt lat="45.3107274" lon="11.7879605"><ele>10.0</ele><time>2026-04-25T14:02:35.575Z</time></trkpt><trkpt lat="45.3108266" lon="11.7880165"><ele>10.4</ele><time>2026-04-25T14:02:37.576Z</time></trkpt><trkpt lat="45.3109289" lon="11.7880701"><ele>10.8</ele><time>2026-04-25T14:02:39.575Z</time></trkpt><trkpt lat="45.3110302" lon="11.7881229"><ele>11.2</ele><time>2026-04-25T14:02:41.575Z</time></trkpt><trkpt lat="45.3111318" lon="11.7881706"><ele>11.6</ele><time>2026-04-25T14:02:43.575Z</time></trkpt><trkpt lat="45.311232" lon="11.7882231"><ele>12.0</ele><time>2026-04-25T14:02:45.575Z</time></trkpt><trkpt lat="45.3113332" lon="11.7882695"><ele>13.2</ele><time>2026-04-25T14:02:47.576Z</time></trkpt><trkpt lat="45.3114301" lon="11.7883189"><ele>14.399999999999999</ele><time>2026-04-25T14:02:49.575Z</time></trkpt><trkpt lat="45.3115264" lon="11.7883656"><ele>15.600000000000001</ele><time>2026-04-25T14:02:51.575Z</time></trkpt><trkpt lat="45.3116213" lon="11.7884116"><ele>16.8</ele><time>2026-04-25T14:02:53.576Z</time></trkpt><trkpt lat="45.3117029" lon="11.7884522"><ele>18.0</ele><time>2026-04-25T14:02:55.575Z</time></trkpt><trkpt lat="45.3117678" lon="11.7884889"><ele>16.333333333333332</ele><time>2026-04-25T14:02:57.576Z</time></trkpt><trkpt lat="45.311847" lon="11.7885303"><ele>14.666666666666666</ele><time>2026-04-25T14:03:00.576Z</time></trkpt><trkpt lat="45.3119189" lon="11.7885724"><ele>13.0</ele><time>2026-04-25T14:03:03.575Z</time></trkpt><trkpt lat="45.3119884" lon="11.7886088"><ele>11.333333333333332</ele><time>2026-04-25T14:03:06.575Z</time></trkpt><trkpt lat="45.3120626" lon="11.788653"><ele>9.666666666666666</ele><time>2026-04-25T14:03:10.575Z</time></trkpt><trkpt lat="45.3120671" lon="11.7887692"><ele>8.0</ele><time>2026-04-25T14:12:59.572Z</time></trkpt><trkpt lat="45.3120037" lon="11.7888261"><ele>8.0</ele><time>2026-04-25T14:13:08.573Z</time></trkpt><trkpt lat="45.3119479" lon="11.788883"><ele>7.999999999999999</ele><time>2026-04-25T14:13:11.573Z</time></trkpt><trkpt lat="45.3118864" lon="11.7889108"><ele>8.0</ele><time>2026-04-25T14:13:17.573Z</time></trkpt><trkpt lat="45.3118926" lon="11.7890066"><ele>8.0</ele><time>2026-04-25T14:13:29.572Z</time></trkpt><trkpt lat="45.3119069" lon="11.7891148"><ele>7.999999999999999</ele><time>2026-04-25T14:13:33.573Z</time></trkpt><trkpt lat="45.3118293" lon="11.7891956"><ele>8.0</ele><time>2026-04-25T14:13:36.572Z</time></trkpt><trkpt lat="45.3117699" lon="11.7892586"><ele>8.0</ele><time>2026-04-25T14:13:38.572Z</time></trkpt><trkpt lat="45.3117116" lon="11.7893351"><ele>7.800000000000001</ele><time>2026-04-25T14:13:40.572Z</time></trkpt><trkpt lat="45.3116518" lon="11.7894293"><ele>7.6000000000000005</ele><time>2026-04-25T14:13:42.572Z</time></trkpt><trkpt lat="45.3115841" lon="11.7895285"><ele>7.3999999999999995</ele><time>2026-04-25T14:13:44.572Z</time></trkpt><trkpt lat="45.3115115" lon="11.7896304"><ele>7.199999999999999</ele><time>2026-04-25T14:13:46.572Z</time></trkpt><trkpt lat="45.3114365" lon="11.7897403"><ele>7.0</ele><time>2026-04-25T14:13:48.572Z</time></trkpt><trkpt lat="45.3113607" lon="11.7898596"><ele>7.0</ele><time>2026-04-25T14:13:50.573Z</time></trkpt><trkpt lat="45.311281" lon="11.7899732"><ele>6.999999999999999</ele><time>2026-04-25T14:13:52.573Z</time></trkpt><trkpt lat="45.3111951" lon="11.7900687"><ele>6.999999999999999</ele><time>2026-04-25T14:13:54.573Z</time></trkpt><trkpt lat="45.3110993" lon="11.7901446"><ele>7.0</ele><time>2026-04-25T14:13:56.572Z</time></trkpt><trkpt lat="45.3110024" lon="11.7902108"><ele>7.0</ele><time>2026-04-25T14:13:58.573Z</time></trkpt><trkpt lat="45.3109032" lon="11.7902754"><ele>7.199999999999999</ele><time>2026-04-25T14:14:00.572Z</time></trkpt><trkpt lat="45.3108076" lon="11.7903482"><ele>7.3999999999999995</ele><time>2026-04-25T14:14:02.573Z</time></trkpt><trkpt lat="45.3107183" lon="11.7904304"><ele>7.6000000000000005</ele><time>2026-04-25T14:14:04.572Z</time></trkpt><trkpt lat="45.310633" lon="11.7905379"><ele>7.800000000000001</ele><time>2026-04-25T14:14:06.573Z</time></trkpt><trkpt lat="45.3105599" lon="11.7906611"><ele>8.0</ele><time>2026-04-25T14:14:08.572Z</time></trkpt><trkpt lat="45.3104995" lon="11.7907983"><ele>8.0</ele><time>2026-04-25T14:14:10.573Z</time></trkpt><trkpt lat="45.3104457" lon="11.7909427"><ele>8.0</ele><time>2026-04-25T14:14:12.572Z</time></trkpt><trkpt lat="45.3103992" lon="11.7910905"><ele>8.0</ele><time>2026-04-25T14:14:14.571Z</time></trkpt><trkpt lat="45.3103636" lon="11.7912401"><ele>8.0</ele><time>2026-04-25T14:14:16.571Z</time></trkpt><trkpt lat="45.3103286" lon="11.7913932"><ele>7.6000000000000005</ele><time>2026-04-25T14:14:18.571Z</time></trkpt><trkpt lat="45.3103016" lon="11.7915383"><ele>7.200000000000001</ele><time>2026-04-25T14:14:20.572Z</time></trkpt><trkpt lat="45.3102689" lon="11.7916888"><ele>6.8</ele><time>2026-04-25T14:14:22.571Z</time></trkpt><trkpt lat="45.3102406" lon="11.791832"><ele>6.4</ele><time>2026-04-25T14:14:24.571Z</time></trkpt><trkpt lat="45.3101982" lon="11.791974"><ele>6.0</ele><time>2026-04-25T14:14:26.572Z</time></trkpt><trkpt lat="45.3101541" lon="11.7921095"><ele>5.6</ele><time>2026-04-25T14:14:28.572Z</time></trkpt><trkpt lat="45.3100984" lon="11.7922352"><ele>5.199999999999999</ele><time>2026-04-25T14:14:30.571Z</time></trkpt><trkpt lat="45.3100332" lon="11.7923517"><ele>4.800000000000001</ele><time>2026-04-25T14:14:32.572Z</time></trkpt><trkpt lat="45.3099577" lon="11.7924621"><ele>4.4</ele><time>2026-04-25T14:14:34.572Z</time></trkpt><trkpt lat="45.3098802" lon="11.7925678"><ele>4.0</ele><time>2026-04-25T14:14:36.572Z</time></trkpt><trkpt lat="45.3097945" lon="11.7926594"><ele>4.0</ele><time>2026-04-25T14:14:38.571Z</time></trkpt><trkpt lat="45.3097015" lon="11.7927425"><ele>4.0</ele><time>2026-04-25T14:14:40.572Z</time></trkpt><trkpt lat="45.3096012" lon="11.7928122"><ele>4.0</ele><time>2026-04-25T14:14:42.573Z</time></trkpt><trkpt lat="45.3094992" lon="11.7928792"><ele>4.0</ele><time>2026-04-25T14:14:44.571Z</time></trkpt><trkpt lat="45.3093914" lon="11.7929196"><ele>4.0</ele><time>2026-04-25T14:14:46.572Z</time></trkpt><trkpt lat="45.3092777" lon="11.7929508"><ele>4.0</ele><time>2026-04-25T14:14:48.571Z</time></trkpt><trkpt lat="45.3091676" lon="11.7929865"><ele>4.0</ele><time>2026-04-25T14:14:50.571Z</time></trkpt><trkpt lat="45.3090574" lon="11.7930306"><ele>4.0</ele><time>2026-04-25T14:14:52.571Z</time></trkpt><trkpt lat="45.3089513" lon="11.7930828"><ele>4.0</ele><time>2026-04-25T14:14:54.572Z</time></trkpt><trkpt lat="45.3088496" lon="11.7931423"><ele>3.8000000000000003</ele><time>2026-04-25T14:14:56.572Z</time></trkpt><trkpt lat="45.308746" lon="11.7932113"><ele>3.6000000000000005</ele><time>2026-04-25T14:14:58.571Z</time></trkpt><trkpt lat="45.3086425" lon="11.7932597"><ele>3.4</ele><time>2026-04-25T14:15:00.572Z</time></trkpt><trkpt lat="45.3085314" lon="11.7932704"><ele>3.2</ele><time>2026-04-25T14:15:02.571Z</time></trkpt><trkpt lat="45.3084185" lon="11.7932662"><ele>3.0</ele><time>2026-04-25T14:15:04.571Z</time></trkpt><trkpt lat="45.3083031" lon="11.7932626"><ele>3.0</ele><time>2026-04-25T14:15:06.571Z</time></trkpt><trkpt lat="45.3081844" lon="11.7932641"><ele>3.0</ele><time>2026-04-25T14:15:08.573Z</time></trkpt><trkpt lat="45.3080603" lon="11.7932616"><ele>3.0</ele><time>2026-04-25T14:15:10.573Z</time></trkpt><trkpt lat="45.3079398" lon="11.7932613"><ele>3.0</ele><time>2026-04-25T14:15:12.571Z</time></trkpt><trkpt lat="45.3078155" lon="11.7932553"><ele>3.2</ele><time>2026-04-25T14:15:14.571Z</time></trkpt><trkpt lat="45.3076943" lon="11.7932397"><ele>3.4</ele><time>2026-04-25T14:15:16.571Z</time></trkpt><trkpt lat="45.3075767" lon="11.7931956"><ele>3.6000000000000005</ele><time>2026-04-25T14:15:18.572Z</time></trkpt><trkpt lat="45.3074679" lon="11.793112"><ele>3.8000000000000003</ele><time>2026-04-25T14:15:20.572Z</time></trkpt><trkpt lat="45.3074129" lon="11.7930672"><ele>4.0</ele><time>2026-04-25T14:15:21.571Z</time></trkpt><trkpt lat="45.3073585" lon="11.7930216"><ele>4.0</ele><time>2026-04-25T14:15:22.572Z</time></trkpt><trkpt lat="45.307251" lon="11.7929286"><ele>4.0</ele><time>2026-04-25T14:15:24.572Z</time></trkpt><trkpt lat="45.3071948" lon="11.7928818"><ele>4.0</ele><time>2026-04-25T14:15:25.572Z</time></trkpt><trkpt lat="45.3071399" lon="11.7928331"><ele>4.0</ele><time>2026-04-25T14:15:26.571Z</time></trkpt><trkpt lat="45.3070386" lon="11.7927352"><ele>4.0</ele><time>2026-04-25T14:15:28.571Z</time></trkpt><trkpt lat="45.3069514" lon="11.79262"><ele>4.5</ele><time>2026-04-25T14:15:30.571Z</time></trkpt><trkpt lat="45.3068718" lon="11.7924909"><ele>5.0</ele><time>2026-04-25T14:15:32.571Z</time></trkpt><trkpt lat="45.3067928" lon="11.7923677"><ele>5.5</ele><time>2026-04-25T14:15:34.571Z</time></trkpt><trkpt lat="45.3067067" lon="11.7922494"><ele>6.0</ele><time>2026-04-25T14:15:36.571Z</time></trkpt><trkpt lat="45.3066171" lon="11.7921418"><ele>6.0</ele><time>2026-04-25T14:15:38.572Z</time></trkpt><trkpt lat="45.3065272" lon="11.7920475"><ele>6.0</ele><time>2026-04-25T14:15:40.572Z</time></trkpt><trkpt lat="45.3064398" lon="11.7919651"><ele>6.0</ele><time>2026-04-25T14:15:42.572Z</time></trkpt><trkpt lat="45.3063783" lon="11.7918881"><ele>6.0</ele><time>2026-04-25T14:15:44.571Z</time></trkpt><trkpt lat="45.3063376" lon="11.7918102"><ele>6.0</ele><time>2026-04-25T14:15:47.572Z</time></trkpt><trkpt lat="45.306276" lon="11.7918346"><ele>6.0</ele><time>2026-04-25T14:15:50.572Z</time></trkpt><trkpt lat="45.3062098" lon="11.7919281"><ele>6.166666666666667</ele><time>2026-04-25T14:15:53.571Z</time></trkpt><trkpt lat="45.3061493" lon="11.7920253"><ele>6.333333333333334</ele><time>2026-04-25T14:15:56.571Z</time></trkpt><trkpt lat="45.306114" lon="11.7921108"><ele>6.5</ele><time>2026-04-25T14:15:58.571Z</time></trkpt><trkpt lat="45.3061382" lon="11.792214"><ele>6.666666666666667</ele><time>2026-04-25T14:16:00.571Z</time></trkpt><trkpt lat="45.3062114" lon="11.7922814"><ele>6.833333333333334</ele><time>2026-04-25T14:16:02.571Z</time></trkpt><trkpt lat="45.3062825" lon="11.7923422"><ele>7.0</ele><time>2026-04-25T14:16:04.572Z</time></trkpt><trkpt lat="45.3063381" lon="11.792405"><ele>7.000000000000001</ele><time>2026-04-25T14:16:06.572Z</time></trkpt><trkpt lat="45.3063827" lon="11.7925198"><ele>7.0</ele><time>2026-04-25T14:16:09.571Z</time></trkpt><trkpt lat="45.3063864" lon="11.7926202"><ele>7.0</ele><time>2026-04-25T14:16:11.571Z</time></trkpt><trkpt lat="45.3063797" lon="11.7927347"><ele>7.0</ele><time>2026-04-25T14:16:13.571Z</time></trkpt><trkpt lat="45.3063706" lon="11.7928561"><ele>7.000000000000001</ele><time>2026-04-25T14:16:15.571Z</time></trkpt><trkpt lat="45.3063623" lon="11.7929879"><ele>7.0</ele><time>2026-04-25T14:16:17.571Z</time></trkpt><trkpt lat="45.3063536" lon="11.7931227"><ele>6.8</ele><time>2026-04-25T14:16:19.572Z</time></trkpt><trkpt lat="45.3063443" lon="11.7932623"><ele>6.6</ele><time>2026-04-25T14:16:21.571Z</time></trkpt><trkpt lat="45.3063328" lon="11.793404"><ele>6.3999999999999995</ele><time>2026-04-25T14:16:23.571Z</time></trkpt><trkpt lat="45.3063186" lon="11.7935506"><ele>6.199999999999999</ele><time>2026-04-25T14:16:25.572Z</time></trkpt><trkpt lat="45.3062952" lon="11.793703"><ele>6.0</ele><time>2026-04-25T14:16:27.571Z</time></trkpt><trkpt lat="45.3062788" lon="11.7938442"><ele>6.0</ele><time>2026-04-25T14:16:29.571Z</time></trkpt><trkpt lat="45.306258" lon="11.7939923"><ele>6.0</ele><time>2026-04-25T14:16:31.571Z</time></trkpt><trkpt lat="45.3062414" lon="11.7941358"><ele>6.0</ele><time>2026-04-25T14:16:33.572Z</time></trkpt><trkpt lat="45.3062212" lon="11.7942798"><ele>6.0</ele><time>2026-04-25T14:16:35.571Z</time></trkpt><trkpt lat="45.3061971" lon="11.79442"><ele>6.0</ele><time>2026-04-25T14:16:37.572Z</time></trkpt><trkpt lat="45.3061769" lon="11.7945604"><ele>6.0</ele><time>2026-04-25T14:16:39.572Z</time></trkpt><trkpt lat="45.3061581" lon="11.7947089"><ele>6.0</ele><time>2026-04-25T14:16:41.571Z</time></trkpt><trkpt lat="45.3061357" lon="11.7948564"><ele>6.0</ele><time>2026-04-25T14:16:43.572Z</time></trkpt><trkpt lat="45.3061158" lon="11.7950081"><ele>6.0</ele><time>2026-04-25T14:16:45.572Z</time></trkpt><trkpt lat="45.3060876" lon="11.7951598"><ele>6.0</ele><time>2026-04-25T14:16:47.571Z</time></trkpt><trkpt lat="45.3060698" lon="11.7953161"><ele>6.0</ele><time>2026-04-25T14:16:49.572Z</time></trkpt><trkpt lat="45.3060463" lon="11.7954622"><ele>6.0</ele><time>2026-04-25T14:16:51.572Z</time></trkpt><trkpt lat="45.3060252" lon="11.7956042"><ele>6.0</ele><time>2026-04-25T14:16:53.572Z</time></trkpt><trkpt lat="45.3060044" lon="11.7957234"><ele>6.0</ele><time>2026-04-25T14:16:55.572Z</time></trkpt><trkpt lat="45.3059949" lon="11.7958179"><ele>6.0</ele><time>2026-04-25T14:16:57.571Z</time></trkpt><trkpt lat="45.3059937" lon="11.7959101"><ele>6.0</ele><time>2026-04-25T14:16:59.571Z</time></trkpt><trkpt lat="45.3059937" lon="11.7960294"><ele>6.0</ele><time>2026-04-25T14:17:02.572Z</time></trkpt><trkpt lat="45.3059947" lon="11.7961376"><ele>6.0</ele><time>2026-04-25T14:17:05.572Z</time></trkpt><trkpt lat="45.3059878" lon="11.7962412"><ele>6.0</ele><time>2026-04-25T14:17:08.571Z</time></trkpt><trkpt lat="45.3059229" lon="11.7962843"><ele>6.0</ele><time>2026-04-25T14:17:12.571Z</time></trkpt><trkpt lat="45.3058534" lon="11.796264"><ele>6.0</ele><time>2026-04-25T14:17:14.571Z</time></trkpt><trkpt lat="45.3057816" lon="11.796212"><ele>6.0</ele><time>2026-04-25T14:17:16.572Z</time></trkpt><trkpt lat="45.3057005" lon="11.796147"><ele>6.0</ele><time>2026-04-25T14:17:18.571Z</time></trkpt><trkpt lat="45.3056101" lon="11.7960794"><ele>6.0</ele><time>2026-04-25T14:17:20.572Z</time></trkpt><trkpt lat="45.3055107" lon="11.7960101"><ele>6.0</ele><time>2026-04-25T14:17:22.571Z</time></trkpt><trkpt lat="45.3054103" lon="11.7959382"><ele>6.0</ele><time>2026-04-25T14:17:24.573Z</time></trkpt><trkpt lat="45.3053061" lon="11.7958674"><ele>6.0</ele><time>2026-04-25T14:17:26.571Z</time></trkpt><trkpt lat="45.3052022" lon="11.795795"><ele>6.5</ele><time>2026-04-25T14:17:28.571Z</time></trkpt><trkpt lat="45.3050938" lon="11.7957224"><ele>7.0</ele><time>2026-04-25T14:17:30.571Z</time></trkpt><trkpt lat="45.3049819" lon="11.7956517"><ele>7.5</ele><time>2026-04-25T14:17:32.571Z</time></trkpt><trkpt lat="45.304869" lon="11.7955778"><ele>8.0</ele><time>2026-04-25T14:17:34.571Z</time></trkpt><trkpt lat="45.3047566" lon="11.7955032"><ele>7.666666666666666</ele><time>2026-04-25T14:17:36.572Z</time></trkpt><trkpt lat="45.304645" lon="11.7954313"><ele>7.333333333333333</ele><time>2026-04-25T14:17:38.571Z</time></trkpt><trkpt lat="45.3045302" lon="11.795361"><ele>7.0</ele><time>2026-04-25T14:17:40.571Z</time></trkpt><trkpt lat="45.3044721" lon="11.7953244"><ele>6.666666666666666</ele><time>2026-04-25T14:17:41.573Z</time></trkpt><trkpt lat="45.3044137" lon="11.7952867"><ele>6.333333333333333</ele><time>2026-04-25T14:17:42.572Z</time></trkpt><trkpt lat="45.3043536" lon="11.7952518"><ele>6.0</ele><time>2026-04-25T14:17:43.571Z</time></trkpt><trkpt lat="45.3042934" lon="11.7952184"><ele>6.0</ele><time>2026-04-25T14:17:44.571Z</time></trkpt><trkpt lat="45.3041775" lon="11.7951457"><ele>6.0</ele><time>2026-04-25T14:17:46.571Z</time></trkpt><trkpt lat="45.3040619" lon="11.7950759"><ele>6.0</ele><time>2026-04-25T14:17:48.573Z</time></trkpt><trkpt lat="45.3040037" lon="11.7950359"><ele>6.0</ele><time>2026-04-25T14:17:49.572Z</time></trkpt><trkpt lat="45.3038881" lon="11.7949624"><ele>6.0</ele><time>2026-04-25T14:17:51.571Z</time></trkpt><trkpt lat="45.303772" lon="11.7948904"><ele>6.166666666666667</ele><time>2026-04-25T14:17:53.571Z</time></trkpt><trkpt lat="45.3037131" lon="11.7948532"><ele>6.333333333333334</ele><time>2026-04-25T14:17:54.57Z</time></trkpt><trkpt lat="45.3036003" lon="11.794779"><ele>6.5</ele><time>2026-04-25T14:17:56.57Z</time></trkpt><trkpt lat="45.3035416" lon="11.7947406"><ele>6.666666666666667</ele><time>2026-04-25T14:17:57.57Z</time></trkpt><trkpt lat="45.3034821" lon="11.794702"><ele>6.833333333333334</ele><time>2026-04-25T14:17:58.57Z</time></trkpt><trkpt lat="45.3034243" lon="11.7946631"><ele>7.0</ele><time>2026-04-25T14:17:59.571Z</time></trkpt><trkpt lat="45.3033095" lon="11.7945841"><ele>7.0</ele><time>2026-04-25T14:18:01.57Z</time></trkpt><trkpt lat="45.303252" lon="11.7945439"><ele>7.0</ele><time>2026-04-25T14:18:02.57Z</time></trkpt><trkpt lat="45.3031922" lon="11.7945076"><ele>7.0</ele><time>2026-04-25T14:18:03.57Z</time></trkpt><trkpt lat="45.3031338" lon="11.7944693"><ele>7.0</ele><time>2026-04-25T14:18:04.571Z</time></trkpt><trkpt lat="45.3030768" lon="11.7944291"><ele>7.0</ele><time>2026-04-25T14:18:05.571Z</time></trkpt><trkpt lat="45.3030187" lon="11.7943935"><ele>7.0</ele><time>2026-04-25T14:18:06.57Z</time></trkpt><trkpt lat="45.3029622" lon="11.7943535"><ele>7.0</ele><time>2026-04-25T14:18:07.571Z</time></trkpt><trkpt lat="45.3029055" lon="11.7943141"><ele>7.0</ele><time>2026-04-25T14:18:08.57Z</time></trkpt><trkpt lat="45.3028483" lon="11.7942728"><ele>7.142857142857142</ele><time>2026-04-25T14:18:09.571Z</time></trkpt><trkpt lat="45.30279" lon="11.794233"><ele>7.285714285714286</ele><time>2026-04-25T14:18:10.57Z</time></trkpt><trkpt lat="45.3027313" lon="11.794196"><ele>7.428571428571429</ele><time>2026-04-25T14:18:11.57Z</time></trkpt><trkpt lat="45.3026718" lon="11.7941568"><ele>7.571428571428571</ele><time>2026-04-25T14:18:12.571Z</time></trkpt><trkpt lat="45.3026121" lon="11.7941124"><ele>7.7142857142857135</ele><time>2026-04-25T14:18:13.571Z</time></trkpt><trkpt lat="45.3025523" lon="11.7940677"><ele>7.857142857142857</ele><time>2026-04-25T14:18:14.571Z</time></trkpt><trkpt lat="45.3024913" lon="11.7940252"><ele>8.0</ele><time>2026-04-25T14:18:15.571Z</time></trkpt><trkpt lat="45.3024298" lon="11.7939829"><ele>8.0</ele><time>2026-04-25T14:18:16.571Z</time></trkpt><trkpt lat="45.3023704" lon="11.7939395"><ele>7.999999999999999</ele><time>2026-04-25T14:18:17.57Z</time></trkpt><trkpt lat="45.3023113" lon="11.7938951"><ele>8.0</ele><time>2026-04-25T14:18:18.571Z</time></trkpt><trkpt lat="45.3022514" lon="11.7938526"><ele>8.0</ele><time>2026-04-25T14:18:19.571Z</time></trkpt><trkpt lat="45.3021893" lon="11.7938096"><ele>7.999999999999999</ele><time>2026-04-25T14:18:20.571Z</time></trkpt><trkpt lat="45.3021271" lon="11.7937686"><ele>8.0</ele><time>2026-04-25T14:18:21.57Z</time></trkpt><trkpt lat="45.3020662" lon="11.7937267"><ele>8.0</ele><time>2026-04-25T14:18:22.571Z</time></trkpt><trkpt lat="45.3020048" lon="11.7936833"><ele>8.0</ele><time>2026-04-25T14:18:23.57Z</time></trkpt><trkpt lat="45.301945" lon="11.7936416"><ele>7.999999999999999</ele><time>2026-04-25T14:18:24.57Z</time></trkpt><trkpt lat="45.301884" lon="11.7935983"><ele>8.0</ele><time>2026-04-25T14:18:25.571Z</time></trkpt><trkpt lat="45.3018245" lon="11.7935542"><ele>8.0</ele><time>2026-04-25T14:18:26.57Z</time></trkpt><trkpt lat="45.301764" lon="11.7935111"><ele>7.999999999999999</ele><time>2026-04-25T14:18:27.571Z</time></trkpt><trkpt lat="45.3017039" lon="11.7934733"><ele>8.0</ele><time>2026-04-25T14:18:28.57Z</time></trkpt><trkpt lat="45.3016432" lon="11.7934337"><ele>8.0</ele><time>2026-04-25T14:18:29.57Z</time></trkpt><trkpt lat="45.3015833" lon="11.7933937"><ele>7.857142857142857</ele><time>2026-04-25T14:18:30.571Z</time></trkpt><trkpt lat="45.3015234" lon="11.7933549"><ele>7.7142857142857135</ele><time>2026-04-25T14:18:31.57Z</time></trkpt><trkpt lat="45.3014639" lon="11.7933143"><ele>7.571428571428571</ele><time>2026-04-25T14:18:32.57Z</time></trkpt><trkpt lat="45.3014042" lon="11.7932742"><ele>7.428571428571429</ele><time>2026-04-25T14:18:33.571Z</time></trkpt><trkpt lat="45.3013449" lon="11.793234"><ele>7.285714285714286</ele><time>2026-04-25T14:18:34.57Z</time></trkpt><trkpt lat="45.3012844" lon="11.7931987"><ele>7.142857142857142</ele><time>2026-04-25T14:18:35.57Z</time></trkpt><trkpt lat="45.3012267" lon="11.7931596"><ele>7.0</ele><time>2026-04-25T14:18:36.571Z</time></trkpt><trkpt lat="45.3011679" lon="11.7931172"><ele>7.0</ele><time>2026-04-25T14:18:37.57Z</time></trkpt><trkpt lat="45.301107" lon="11.7930744"><ele>7.0</ele><time>2026-04-25T14:18:38.571Z</time></trkpt><trkpt lat="45.3010463" lon="11.7930341"><ele>7.0</ele><time>2026-04-25T14:18:39.57Z</time></trkpt><trkpt lat="45.3009838" lon="11.7929934"><ele>7.0</ele><time>2026-04-25T14:18:40.57Z</time></trkpt><trkpt lat="45.3009244" lon="11.7929561"><ele>7.0</ele><time>2026-04-25T14:18:41.571Z</time></trkpt><trkpt lat="45.3008638" lon="11.7929198"><ele>7.0</ele><time>2026-04-25T14:18:42.57Z</time></trkpt><trkpt lat="45.3008053" lon="11.7928806"><ele>7.0</ele><time>2026-04-25T14:18:43.571Z</time></trkpt><trkpt lat="45.3007464" lon="11.7928421"><ele>7.0</ele><time>2026-04-25T14:18:44.571Z</time></trkpt><trkpt lat="45.3006868" lon="11.7928049"><ele>7.0</ele><time>2026-04-25T14:18:45.57Z</time></trkpt><trkpt lat="45.3006278" lon="11.7927685"><ele>7.0</ele><time>2026-04-25T14:18:46.571Z</time></trkpt><trkpt lat="45.3005664" lon="11.7927293"><ele>7.0</ele><time>2026-04-25T14:18:47.571Z</time></trkpt><trkpt lat="45.3005067" lon="11.7926896"><ele>7.0</ele><time>2026-04-25T14:18:48.571Z</time></trkpt><trkpt lat="45.3004475" lon="11.7926514"><ele>7.0</ele><time>2026-04-25T14:18:49.571Z</time></trkpt><trkpt lat="45.300386" lon="11.7926133"><ele>7.0</ele><time>2026-04-25T14:18:50.57Z</time></trkpt><trkpt lat="45.3003225" lon="11.7925726"><ele>7.142857142857142</ele><time>2026-04-25T14:18:51.571Z</time></trkpt><trkpt lat="45.3002615" lon="11.792534"><ele>7.285714285714286</ele><time>2026-04-25T14:18:52.57Z</time></trkpt><trkpt lat="45.3001997" lon="11.792496"><ele>7.428571428571429</ele><time>2026-04-25T14:18:53.57Z</time></trkpt><trkpt lat="45.3001391" lon="11.792457"><ele>7.571428571428571</ele><time>2026-04-25T14:18:54.571Z</time></trkpt><trkpt lat="45.3000773" lon="11.7924189"><ele>7.7142857142857135</ele><time>2026-04-25T14:18:55.571Z</time></trkpt><trkpt lat="45.3000175" lon="11.7923784"><ele>7.857142857142857</ele><time>2026-04-25T14:18:56.57Z</time></trkpt><trkpt lat="45.2999541" lon="11.7923432"><ele>8.0</ele><time>2026-04-25T14:18:57.57Z</time></trkpt><trkpt lat="45.2998905" lon="11.7923131"><ele>8.0</ele><time>2026-04-25T14:18:58.571Z</time></trkpt><trkpt lat="45.2998293" lon="11.7922711"><ele>7.999999999999999</ele><time>2026-04-25T14:18:59.57Z</time></trkpt><trkpt lat="45.2997672" lon="11.7922265"><ele>8.0</ele><time>2026-04-25T14:19:00.571Z</time></trkpt><trkpt lat="45.2997084" lon="11.7921785"><ele>8.0</ele><time>2026-04-25T14:19:01.57Z</time></trkpt><trkpt lat="45.2996479" lon="11.7921299"><ele>7.999999999999999</ele><time>2026-04-25T14:19:02.57Z</time></trkpt><trkpt lat="45.2995862" lon="11.7920792"><ele>8.0</ele><time>2026-04-25T14:19:03.571Z</time></trkpt><trkpt lat="45.299523" lon="11.7920299"><ele>8.0</ele><time>2026-04-25T14:19:04.57Z</time></trkpt><trkpt lat="45.299459" lon="11.7919801"><ele>7.857142857142857</ele><time>2026-04-25T14:19:05.571Z</time></trkpt><trkpt lat="45.2993955" lon="11.7919261"><ele>7.7142857142857135</ele><time>2026-04-25T14:19:06.57Z</time></trkpt><trkpt lat="45.2993294" lon="11.7918729"><ele>7.571428571428571</ele><time>2026-04-25T14:19:07.571Z</time></trkpt><trkpt lat="45.2992605" lon="11.791824"><ele>7.428571428571429</ele><time>2026-04-25T14:19:08.571Z</time></trkpt><trkpt lat="45.2991948" lon="11.7917761"><ele>7.285714285714286</ele><time>2026-04-25T14:19:09.57Z</time></trkpt><trkpt lat="45.2991283" lon="11.791728"><ele>7.142857142857142</ele><time>2026-04-25T14:19:10.57Z</time></trkpt><trkpt lat="45.2990642" lon="11.7916767"><ele>7.0</ele><time>2026-04-25T14:19:11.571Z</time></trkpt><trkpt lat="45.2989996" lon="11.7916268"><ele>7.142857142857142</ele><time>2026-04-25T14:19:12.571Z</time></trkpt><trkpt lat="45.2989367" lon="11.7915754"><ele>7.285714285714286</ele><time>2026-04-25T14:19:13.57Z</time></trkpt><trkpt lat="45.298872" lon="11.7915251"><ele>7.428571428571429</ele><time>2026-04-25T14:19:14.57Z</time></trkpt><trkpt lat="45.298808" lon="11.7914742"><ele>7.571428571428571</ele><time>2026-04-25T14:19:15.571Z</time></trkpt><trkpt lat="45.2987453" lon="11.7914222"><ele>7.7142857142857135</ele><time>2026-04-25T14:19:16.57Z</time></trkpt><trkpt lat="45.2986812" lon="11.7913769"><ele>7.857142857142857</ele><time>2026-04-25T14:19:17.571Z</time></trkpt><trkpt lat="45.2986229" lon="11.7913197"><ele>8.0</ele><time>2026-04-25T14:19:18.571Z</time></trkpt><trkpt lat="45.2985639" lon="11.7912618"><ele>8.0</ele><time>2026-04-25T14:19:19.571Z</time></trkpt><trkpt lat="45.2985031" lon="11.7912061"><ele>7.999999999999999</ele><time>2026-04-25T14:19:20.57Z</time></trkpt><trkpt lat="45.2984409" lon="11.7911595"><ele>8.0</ele><time>2026-04-25T14:19:21.571Z</time></trkpt><trkpt lat="45.2983782" lon="11.7911169"><ele>8.0</ele><time>2026-04-25T14:19:22.572Z</time></trkpt><trkpt lat="45.2983164" lon="11.7910735"><ele>7.999999999999999</ele><time>2026-04-25T14:19:23.57Z</time></trkpt><trkpt lat="45.2982552" lon="11.7910284"><ele>8.0</ele><time>2026-04-25T14:19:24.57Z</time></trkpt><trkpt lat="45.2981933" lon="11.7909856"><ele>8.0</ele><time>2026-04-25T14:19:25.57Z</time></trkpt><trkpt lat="45.2981311" lon="11.7909424"><ele>8.0</ele><time>2026-04-25T14:19:26.571Z</time></trkpt><trkpt lat="45.2980725" lon="11.7908928"><ele>7.999999999999999</ele><time>2026-04-25T14:19:27.571Z</time></trkpt><trkpt lat="45.2980153" lon="11.790843"><ele>8.0</ele><time>2026-04-25T14:19:28.57Z</time></trkpt><trkpt lat="45.297958" lon="11.7907927"><ele>8.0</ele><time>2026-04-25T14:19:29.571Z</time></trkpt><trkpt lat="45.2978963" lon="11.790743"><ele>7.999999999999999</ele><time>2026-04-25T14:19:30.57Z</time></trkpt><trkpt lat="45.2978359" lon="11.7906933"><ele>8.0</ele><time>2026-04-25T14:19:31.57Z</time></trkpt><trkpt lat="45.2977756" lon="11.7906421"><ele>8.0</ele><time>2026-04-25T14:19:32.571Z</time></trkpt><trkpt lat="45.2977152" lon="11.7905913"><ele>8.0</ele><time>2026-04-25T14:19:33.57Z</time></trkpt><trkpt lat="45.2976559" lon="11.7905423"><ele>7.999999999999999</ele><time>2026-04-25T14:19:34.57Z</time></trkpt><trkpt lat="45.2975975" lon="11.7904928"><ele>8.0</ele><time>2026-04-25T14:19:35.571Z</time></trkpt><trkpt lat="45.2975381" lon="11.7904437"><ele>8.0</ele><time>2026-04-25T14:19:36.571Z</time></trkpt><trkpt lat="45.2974792" lon="11.7903953"><ele>7.999999999999999</ele><time>2026-04-25T14:19:37.57Z</time></trkpt><trkpt lat="45.2974237" lon="11.790345"><ele>8.0</ele><time>2026-04-25T14:19:38.57Z</time></trkpt><trkpt lat="45.297367" lon="11.7902974"><ele>8.0</ele><time>2026-04-25T14:19:39.57Z</time></trkpt><trkpt lat="45.2973119" lon="11.7902487"><ele>8.600000000000001</ele><time>2026-04-25T14:19:40.571Z</time></trkpt><trkpt lat="45.2972127" lon="11.790163"><ele>9.200000000000001</ele><time>2026-04-25T14:19:42.57Z</time></trkpt><trkpt lat="45.2971278" lon="11.7900898"><ele>9.8</ele><time>2026-04-25T14:19:44.572Z</time></trkpt><trkpt lat="45.2970483" lon="11.7900078"><ele>10.4</ele><time>2026-04-25T14:19:46.57Z</time></trkpt><trkpt lat="45.2969616" lon="11.7899216"><ele>11.0</ele><time>2026-04-25T14:19:48.571Z</time></trkpt><trkpt lat="45.2968855" lon="11.7898366"><ele>11.0</ele><time>2026-04-25T14:19:50.571Z</time></trkpt><trkpt lat="45.2968114" lon="11.7897664"><ele>11.0</ele><time>2026-04-25T14:19:52.571Z</time></trkpt><trkpt lat="45.2967385" lon="11.7897143"><ele>11.0</ele><time>2026-04-25T14:19:54.571Z</time></trkpt><trkpt lat="45.296676" lon="11.7896591"><ele>11.0</ele><time>2026-04-25T14:19:56.571Z</time></trkpt><trkpt lat="45.2966127" lon="11.7896126"><ele>11.0</ele><time>2026-04-25T14:19:58.571Z</time></trkpt><trkpt lat="45.2965535" lon="11.7895713"><ele>11.0</ele><time>2026-04-25T14:20:00.57Z</time></trkpt><trkpt lat="45.2964674" lon="11.7895241"><ele>11.166666666666666</ele><time>2026-04-25T14:20:03.571Z</time></trkpt><trkpt lat="45.2963915" lon="11.7894655"><ele>11.333333333333332</ele><time>2026-04-25T14:20:06.571Z</time></trkpt><trkpt lat="45.2963278" lon="11.7894296"><ele>11.5</ele><time>2026-04-25T14:20:09.571Z</time></trkpt><trkpt lat="45.296259" lon="11.7894013"><ele>11.666666666666666</ele><time>2026-04-25T14:20:11.572Z</time></trkpt><trkpt lat="45.2961809" lon="11.7893298"><ele>11.833333333333334</ele><time>2026-04-25T14:20:13.57Z</time></trkpt><trkpt lat="45.2960916" lon="11.789243"><ele>12.0</ele><time>2026-04-25T14:20:15.572Z</time></trkpt><trkpt lat="45.295988" lon="11.789154"><ele>12.0</ele><time>2026-04-25T14:20:17.571Z</time></trkpt><trkpt lat="45.2958913" lon="11.7890489"><ele>12.0</ele><time>2026-04-25T14:20:19.57Z</time></trkpt><trkpt lat="45.2958468" lon="11.7889845"><ele>12.0</ele><time>2026-04-25T14:20:20.572Z</time></trkpt><trkpt lat="45.2957942" lon="11.7889347"><ele>12.0</ele><time>2026-04-25T14:20:21.57Z</time></trkpt><trkpt lat="45.2956936" lon="11.7888255"><ele>12.0</ele><time>2026-04-25T14:20:23.571Z</time></trkpt><trkpt lat="45.2956404" lon="11.7887719"><ele>12.0</ele><time>2026-04-25T14:20:24.57Z</time></trkpt><trkpt lat="45.2955877" lon="11.7887187"><ele>11.333333333333334</ele><time>2026-04-25T14:20:25.571Z</time></trkpt><trkpt lat="45.2955347" lon="11.7886648"><ele>10.666666666666666</ele><time>2026-04-25T14:20:26.571Z</time></trkpt><trkpt lat="45.2954814" lon="11.7886084"><ele>10.0</ele><time>2026-04-25T14:20:27.571Z</time></trkpt><trkpt lat="45.2954267" lon="11.7885559"><ele>9.333333333333332</ele><time>2026-04-25T14:20:28.57Z</time></trkpt><trkpt lat="45.2953716" lon="11.7885051"><ele>8.666666666666666</ele><time>2026-04-25T14:20:29.57Z</time></trkpt><trkpt lat="45.2952864" lon="11.7884282"><ele>8.0</ele><time>2026-04-25T14:20:31.57Z</time></trkpt><trkpt lat="45.2951936" lon="11.788385"><ele>7.999999999999999</ele><time>2026-04-25T14:20:33.571Z</time></trkpt><trkpt lat="45.2950891" lon="11.7883417"><ele>8.0</ele><time>2026-04-25T14:20:35.57Z</time></trkpt><trkpt lat="45.2949706" lon="11.7883098"><ele>8.0</ele><time>2026-04-25T14:20:37.571Z</time></trkpt><trkpt lat="45.294907" lon="11.7883032"><ele>8.0</ele><time>2026-04-25T14:20:38.57Z</time></trkpt><trkpt lat="45.2948416" lon="11.7883015"><ele>7.999999999999999</ele><time>2026-04-25T14:20:39.571Z</time></trkpt><trkpt lat="45.2947742" lon="11.7882924"><ele>8.0</ele><time>2026-04-25T14:20:40.57Z</time></trkpt><trkpt lat="45.2947132" lon="11.7882472"><ele>8.142857142857142</ele><time>2026-04-25T14:20:41.57Z</time></trkpt><trkpt lat="45.2946573" lon="11.7881897"><ele>8.285714285714285</ele><time>2026-04-25T14:20:42.571Z</time></trkpt><trkpt lat="45.2945981" lon="11.7881421"><ele>8.428571428571429</ele><time>2026-04-25T14:20:43.57Z</time></trkpt><trkpt lat="45.29454" lon="11.7880916"><ele>8.571428571428571</ele><time>2026-04-25T14:20:44.57Z</time></trkpt><trkpt lat="45.2944783" lon="11.788045"><ele>8.714285714285715</ele><time>2026-04-25T14:20:45.572Z</time></trkpt><trkpt lat="45.2944144" lon="11.7880061"><ele>8.857142857142858</ele><time>2026-04-25T14:20:46.571Z</time></trkpt><trkpt lat="45.2943524" lon="11.7879627"><ele>9.0</ele><time>2026-04-25T14:20:47.571Z</time></trkpt><trkpt lat="45.2942912" lon="11.7879142"><ele>9.000000000000002</ele><time>2026-04-25T14:20:48.57Z</time></trkpt><trkpt lat="45.2942321" lon="11.787863"><ele>9.0</ele><time>2026-04-25T14:20:49.57Z</time></trkpt><trkpt lat="45.2941809" lon="11.7877949"><ele>9.0</ele><time>2026-04-25T14:20:50.571Z</time></trkpt><trkpt lat="45.2941217" lon="11.7877383"><ele>9.0</ele><time>2026-04-25T14:20:51.57Z</time></trkpt><trkpt lat="45.2940623" lon="11.7876855"><ele>9.0</ele><time>2026-04-25T14:20:52.57Z</time></trkpt><trkpt lat="45.2940009" lon="11.7876343"><ele>9.000000000000002</ele><time>2026-04-25T14:20:53.571Z</time></trkpt><trkpt lat="45.2939409" lon="11.7875829"><ele>9.0</ele><time>2026-04-25T14:20:54.57Z</time></trkpt><trkpt lat="45.2938813" lon="11.7875287"><ele>9.142857142857144</ele><time>2026-04-25T14:20:55.57Z</time></trkpt><trkpt lat="45.2938222" lon="11.7874723"><ele>9.285714285714286</ele><time>2026-04-25T14:20:56.571Z</time></trkpt><trkpt lat="45.293763" lon="11.7874164"><ele>9.428571428571429</ele><time>2026-04-25T14:20:57.57Z</time></trkpt><trkpt lat="45.2937025" lon="11.7873621"><ele>9.571428571428573</ele><time>2026-04-25T14:20:58.57Z</time></trkpt><trkpt lat="45.2936417" lon="11.7873105"><ele>9.714285714285715</ele><time>2026-04-25T14:20:59.571Z</time></trkpt><trkpt lat="45.2935823" lon="11.7872556"><ele>9.857142857142858</ele><time>2026-04-25T14:21:00.57Z</time></trkpt><trkpt lat="45.2935235" lon="11.7872021"><ele>10.0</ele><time>2026-04-25T14:21:01.571Z</time></trkpt><trkpt lat="45.2934654" lon="11.7871491"><ele>10.0</ele><time>2026-04-25T14:21:02.57Z</time></trkpt><trkpt lat="45.293407" lon="11.787096"><ele>10.0</ele><time>2026-04-25T14:21:03.571Z</time></trkpt><trkpt lat="45.2933477" lon="11.7870439"><ele>10.0</ele><time>2026-04-25T14:21:04.57Z</time></trkpt><trkpt lat="45.2932877" lon="11.7869953"><ele>10.0</ele><time>2026-04-25T14:21:05.57Z</time></trkpt><trkpt lat="45.293232" lon="11.7869386"><ele>10.0</ele><time>2026-04-25T14:21:06.571Z</time></trkpt><trkpt lat="45.2931748" lon="11.7868821"><ele>10.0</ele><time>2026-04-25T14:21:07.571Z</time></trkpt><trkpt lat="45.2931169" lon="11.7868305"><ele>10.0</ele><time>2026-04-25T14:21:08.57Z</time></trkpt><trkpt lat="45.293057" lon="11.7867781"><ele>9.428571428571429</ele><time>2026-04-25T14:21:09.57Z</time></trkpt><trkpt lat="45.2929971" lon="11.7867317"><ele>8.857142857142858</ele><time>2026-04-25T14:21:10.572Z</time></trkpt><trkpt lat="45.2929342" lon="11.7866903"><ele>8.285714285714285</ele><time>2026-04-25T14:21:11.571Z</time></trkpt><trkpt lat="45.2928686" lon="11.7866535"><ele>7.7142857142857135</ele><time>2026-04-25T14:21:12.57Z</time></trkpt><trkpt lat="45.2928019" lon="11.7866245"><ele>7.142857142857142</ele><time>2026-04-25T14:21:13.57Z</time></trkpt><trkpt lat="45.2927335" lon="11.7865999"><ele>6.571428571428571</ele><time>2026-04-25T14:21:14.571Z</time></trkpt><trkpt lat="45.292662" lon="11.7865757"><ele>6.0</ele><time>2026-04-25T14:21:15.571Z</time></trkpt><trkpt lat="45.2925883" lon="11.7865565"><ele>6.0</ele><time>2026-04-25T14:21:16.57Z</time></trkpt><trkpt lat="45.2925146" lon="11.7865352"><ele>6.0</ele><time>2026-04-25T14:21:17.571Z</time></trkpt><trkpt lat="45.2924376" lon="11.7865163"><ele>6.0</ele><time>2026-04-25T14:21:18.57Z</time></trkpt><trkpt lat="45.2923634" lon="11.7864866"><ele>6.0</ele><time>2026-04-25T14:21:19.571Z</time></trkpt><trkpt lat="45.2922898" lon="11.7864554"><ele>6.0</ele><time>2026-04-25T14:21:20.57Z</time></trkpt><trkpt lat="45.2922199" lon="11.786423"><ele>6.0</ele><time>2026-04-25T14:21:21.57Z</time></trkpt><trkpt lat="45.2921501" lon="11.7863853"><ele>6.142857142857142</ele><time>2026-04-25T14:21:22.571Z</time></trkpt><trkpt lat="45.2920794" lon="11.7863513"><ele>6.285714285714286</ele><time>2026-04-25T14:21:23.57Z</time></trkpt><trkpt lat="45.2920097" lon="11.7863205"><ele>6.428571428571429</ele><time>2026-04-25T14:21:24.571Z</time></trkpt><trkpt lat="45.2919417" lon="11.7862927"><ele>6.571428571428571</ele><time>2026-04-25T14:21:25.57Z</time></trkpt><trkpt lat="45.2918749" lon="11.7862653"><ele>6.714285714285714</ele><time>2026-04-25T14:21:26.57Z</time></trkpt><trkpt lat="45.2918102" lon="11.7862359"><ele>6.857142857142857</ele><time>2026-04-25T14:21:27.571Z</time></trkpt><trkpt lat="45.2917451" lon="11.7862044"><ele>7.0</ele><time>2026-04-25T14:21:28.57Z</time></trkpt><trkpt lat="45.2916791" lon="11.7861786"><ele>7.0</ele><time>2026-04-25T14:21:29.57Z</time></trkpt><trkpt lat="45.2915831" lon="11.7860907"><ele>6.999999999999999</ele><time>2026-04-25T14:21:31.57Z</time></trkpt><trkpt lat="45.2915709" lon="11.7859359"><ele>6.999999999999999</ele><time>2026-04-25T14:21:33.571Z</time></trkpt><trkpt lat="45.2916293" lon="11.7857855"><ele>7.0</ele><time>2026-04-25T14:21:35.57Z</time></trkpt><trkpt lat="45.2916638" lon="11.7857093"><ele>7.0</ele><time>2026-04-25T14:21:36.571Z</time></trkpt><trkpt lat="45.2917061" lon="11.7856364"><ele>6.857142857142857</ele><time>2026-04-25T14:21:37.57Z</time></trkpt><trkpt lat="45.2917637" lon="11.7855856"><ele>6.714285714285714</ele><time>2026-04-25T14:21:38.57Z</time></trkpt><trkpt lat="45.2918308" lon="11.7855506"><ele>6.571428571428571</ele><time>2026-04-25T14:21:39.571Z</time></trkpt><trkpt lat="45.291905" lon="11.7855504"><ele>6.428571428571429</ele><time>2026-04-25T14:21:40.57Z</time></trkpt><trkpt lat="45.2919807" lon="11.7855563"><ele>6.285714285714286</ele><time>2026-04-25T14:21:41.57Z</time></trkpt><trkpt lat="45.2920579" lon="11.7855541"><ele>6.142857142857142</ele><time>2026-04-25T14:21:42.569Z</time></trkpt><trkpt lat="45.2921358" lon="11.7855517"><ele>6.0</ele><time>2026-04-25T14:21:43.569Z</time></trkpt><trkpt lat="45.2922152" lon="11.7855381"><ele>6.0</ele><time>2026-04-25T14:21:44.569Z</time></trkpt><trkpt lat="45.2922958" lon="11.7855199"><ele>6.0</ele><time>2026-04-25T14:21:45.57Z</time></trkpt><trkpt lat="45.2923772" lon="11.785496"><ele>6.0</ele><time>2026-04-25T14:21:46.57Z</time></trkpt><trkpt lat="45.2924578" lon="11.7854595"><ele>6.0</ele><time>2026-04-25T14:21:47.57Z</time></trkpt><trkpt lat="45.2925349" lon="11.7854154"><ele>6.0</ele><time>2026-04-25T14:21:48.569Z</time></trkpt><trkpt lat="45.2926092" lon="11.7853685"><ele>6.0</ele><time>2026-04-25T14:21:49.57Z</time></trkpt><trkpt lat="45.29268" lon="11.785308"><ele>5.999999999999999</ele><time>2026-04-25T14:21:50.57Z</time></trkpt><trkpt lat="45.2927434" lon="11.785244"><ele>6.0</ele><time>2026-04-25T14:21:51.57Z</time></trkpt><trkpt lat="45.2928023" lon="11.7851765"><ele>6.0</ele><time>2026-04-25T14:21:52.569Z</time></trkpt><trkpt lat="45.2928562" lon="11.7851083"><ele>6.0</ele><time>2026-04-25T14:21:53.569Z</time></trkpt><trkpt lat="45.2929059" lon="11.7850332"><ele>6.0</ele><time>2026-04-25T14:21:54.569Z</time></trkpt><trkpt lat="45.2929518" lon="11.7849557"><ele>5.999999999999999</ele><time>2026-04-25T14:21:55.569Z</time></trkpt><trkpt lat="45.2929931" lon="11.7848699"><ele>6.0</ele><time>2026-04-25T14:21:56.57Z</time></trkpt><trkpt lat="45.2930357" lon="11.784784"><ele>5.999999999999999</ele><time>2026-04-25T14:21:57.57Z</time></trkpt><trkpt lat="45.293074" lon="11.7846961"><ele>6.0</ele><time>2026-04-25T14:21:58.569Z</time></trkpt><trkpt lat="45.2931109" lon="11.7846075"><ele>6.0</ele><time>2026-04-25T14:21:59.57Z</time></trkpt><trkpt lat="45.2931496" lon="11.7845196"><ele>6.0</ele><time>2026-04-25T14:22:00.569Z</time></trkpt><trkpt lat="45.2931863" lon="11.7844321"><ele>6.0</ele><time>2026-04-25T14:22:01.569Z</time></trkpt><trkpt lat="45.2932233" lon="11.7843465"><ele>5.999999999999999</ele><time>2026-04-25T14:22:02.571Z</time></trkpt><trkpt lat="45.2932592" lon="11.7842611"><ele>6.0</ele><time>2026-04-25T14:22:03.57Z</time></trkpt><trkpt lat="45.2932953" lon="11.7841768"><ele>6.285714285714285</ele><time>2026-04-25T14:22:04.569Z</time></trkpt><trkpt lat="45.293331" lon="11.7840918"><ele>6.571428571428571</ele><time>2026-04-25T14:22:05.569Z</time></trkpt><trkpt lat="45.2933653" lon="11.7840096"><ele>6.857142857142857</ele><time>2026-04-25T14:22:06.57Z</time></trkpt><trkpt lat="45.2933999" lon="11.7839246"><ele>7.142857142857142</ele><time>2026-04-25T14:22:07.57Z</time></trkpt><trkpt lat="45.2934344" lon="11.7838411"><ele>7.428571428571428</ele><time>2026-04-25T14:22:08.569Z</time></trkpt><trkpt lat="45.2934702" lon="11.7837571"><ele>7.7142857142857135</ele><time>2026-04-25T14:22:09.569Z</time></trkpt><trkpt lat="45.2935055" lon="11.7836733"><ele>8.0</ele><time>2026-04-25T14:22:10.57Z</time></trkpt><trkpt lat="45.2935434" lon="11.7835909"><ele>7.857142857142857</ele><time>2026-04-25T14:22:11.57Z</time></trkpt><trkpt lat="45.2935792" lon="11.783504"><ele>7.7142857142857135</ele><time>2026-04-25T14:22:12.569Z</time></trkpt><trkpt lat="45.2936161" lon="11.7834204"><ele>7.571428571428571</ele><time>2026-04-25T14:22:13.569Z</time></trkpt><trkpt lat="45.2936524" lon="11.7833368"><ele>7.428571428571429</ele><time>2026-04-25T14:22:14.569Z</time></trkpt><trkpt lat="45.2936889" lon="11.7832522"><ele>7.285714285714286</ele><time>2026-04-25T14:22:15.57Z</time></trkpt><trkpt lat="45.2937241" lon="11.7831684"><ele>7.142857142857142</ele><time>2026-04-25T14:22:16.569Z</time></trkpt><trkpt lat="45.2937597" lon="11.7830842"><ele>7.0</ele><time>2026-04-25T14:22:17.569Z</time></trkpt><trkpt lat="45.293796" lon="11.7830019"><ele>7.0</ele><time>2026-04-25T14:22:18.569Z</time></trkpt><trkpt lat="45.2938325" lon="11.7829183"><ele>7.0</ele><time>2026-04-25T14:22:19.57Z</time></trkpt><trkpt lat="45.2938697" lon="11.7828344"><ele>7.0</ele><time>2026-04-25T14:22:20.57Z</time></trkpt><trkpt lat="45.2939061" lon="11.782753"><ele>7.0</ele><time>2026-04-25T14:22:21.569Z</time></trkpt><trkpt lat="45.2939426" lon="11.7826716"><ele>7.0</ele><time>2026-04-25T14:22:22.569Z</time></trkpt><trkpt lat="45.293979" lon="11.7825902"><ele>7.0</ele><time>2026-04-25T14:22:23.569Z</time></trkpt><trkpt lat="45.2940125" lon="11.7825106"><ele>7.0</ele><time>2026-04-25T14:22:24.57Z</time></trkpt><trkpt lat="45.2940489" lon="11.7824353"><ele>6.666666666666667</ele><time>2026-04-25T14:22:25.57Z</time></trkpt><trkpt lat="45.2940836" lon="11.7823575"><ele>6.333333333333334</ele><time>2026-04-25T14:22:26.571Z</time></trkpt><trkpt lat="45.2941163" lon="11.7822798"><ele>6.0</ele><time>2026-04-25T14:22:27.569Z</time></trkpt><trkpt lat="45.2941483" lon="11.7822002"><ele>5.666666666666667</ele><time>2026-04-25T14:22:28.57Z</time></trkpt><trkpt lat="45.2941813" lon="11.7821222"><ele>5.333333333333334</ele><time>2026-04-25T14:22:29.57Z</time></trkpt><trkpt lat="45.2942421" lon="11.7819684"><ele>5.0</ele><time>2026-04-25T14:22:31.569Z</time></trkpt><trkpt lat="45.2942888" lon="11.7818373"><ele>5.0</ele><time>2026-04-25T14:22:33.569Z</time></trkpt><trkpt lat="45.2943605" lon="11.7817594"><ele>5.0</ele><time>2026-04-25T14:22:36.569Z</time></trkpt><trkpt lat="45.2943933" lon="11.7816742"><ele>5.0</ele><time>2026-04-25T14:22:38.569Z</time></trkpt><trkpt lat="45.2944192" lon="11.7815743"><ele>5.0</ele><time>2026-04-25T14:22:40.569Z</time></trkpt><trkpt lat="45.2944348" lon="11.7814804"><ele>5.0</ele><time>2026-04-25T14:22:42.569Z</time></trkpt><trkpt lat="45.2944546" lon="11.7813801"><ele>5.0</ele><time>2026-04-25T14:22:44.57Z</time></trkpt><trkpt lat="45.2944817" lon="11.7812738"><ele>5.0</ele><time>2026-04-25T14:22:46.569Z</time></trkpt><trkpt lat="45.2945108" lon="11.7811668"><ele>5.0</ele><time>2026-04-25T14:22:48.57Z</time></trkpt><trkpt lat="45.2945482" lon="11.7810651"><ele>5.0</ele><time>2026-04-25T14:22:50.569Z</time></trkpt><trkpt lat="45.2945827" lon="11.7809613"><ele>5.0</ele><time>2026-04-25T14:22:52.569Z</time></trkpt><trkpt lat="45.2945991" lon="11.7808488"><ele>5.0</ele><time>2026-04-25T14:22:54.569Z</time></trkpt><trkpt lat="45.2946059" lon="11.780739"><ele>5.0</ele><time>2026-04-25T14:22:56.57Z</time></trkpt><trkpt lat="45.2946064" lon="11.7806292"><ele>5.142857142857142</ele><time>2026-04-25T14:22:58.569Z</time></trkpt><trkpt lat="45.2946051" lon="11.7805213"><ele>5.285714285714286</ele><time>2026-04-25T14:23:00.57Z</time></trkpt><trkpt lat="45.2946088" lon="11.7804173"><ele>5.428571428571429</ele><time>2026-04-25T14:23:02.569Z</time></trkpt><trkpt lat="45.2946118" lon="11.7803137"><ele>5.571428571428571</ele><time>2026-04-25T14:23:04.57Z</time></trkpt><trkpt lat="45.2946036" lon="11.7802179"><ele>5.714285714285714</ele><time>2026-04-25T14:23:06.57Z</time></trkpt><trkpt lat="45.2945683" lon="11.7801046"><ele>5.857142857142857</ele><time>2026-04-25T14:23:09.569Z</time></trkpt><trkpt lat="45.2945192" lon="11.7800462"><ele>6.0</ele><time>2026-04-25T14:23:12.569Z</time></trkpt><trkpt lat="45.2944486" lon="11.7800167"><ele>6.0</ele><time>2026-04-25T14:23:15.569Z</time></trkpt><trkpt lat="45.2943788" lon="11.780019"><ele>6.0</ele><time>2026-04-25T14:23:19.569Z</time></trkpt><trkpt lat="45.2943753" lon="11.7801302"><ele>6.0</ele><time>2026-04-25T14:23:23.57Z</time></trkpt><trkpt lat="45.2943768" lon="11.7802548"><ele>6.0</ele><time>2026-04-25T14:23:26.569Z</time></trkpt><trkpt lat="45.2943712" lon="11.780383"><ele>6.0</ele><time>2026-04-25T14:23:29.571Z</time></trkpt><trkpt lat="45.2943132" lon="11.7804399"><ele>6.0</ele><time>2026-04-25T14:23:32.569Z</time></trkpt><trkpt lat="45.2942324" lon="11.7804065"><ele>6.0</ele><time>2026-04-25T14:23:35.569Z</time></trkpt><trkpt lat="45.294226" lon="11.7803066"><ele>6.0</ele><time>2026-04-25T14:23:37.569Z</time></trkpt><trkpt lat="45.294232" lon="11.7801934"><ele>6.0</ele><time>2026-04-25T14:23:39.57Z</time></trkpt><trkpt lat="45.2941856" lon="11.7800956"><ele>6.0</ele><time>2026-04-25T14:23:41.57Z</time></trkpt><trkpt lat="45.2941071" lon="11.780043"><ele>6.0</ele><time>2026-04-25T14:23:43.569Z</time></trkpt><trkpt lat="45.2940234" lon="11.779996"><ele>6.0</ele><time>2026-04-25T14:23:45.569Z</time></trkpt><trkpt lat="45.2939348" lon="11.7799507"><ele>5.8</ele><time>2026-04-25T14:23:47.569Z</time></trkpt><trkpt lat="45.2938431" lon="11.7799101"><ele>5.6</ele><time>2026-04-25T14:23:49.569Z</time></trkpt><trkpt lat="45.2937503" lon="11.7798556"><ele>5.4</ele><time>2026-04-25T14:23:51.569Z</time></trkpt><trkpt lat="45.293655" lon="11.7798026"><ele>5.2</ele><time>2026-04-25T14:23:53.569Z</time></trkpt><trkpt lat="45.2935567" lon="11.7797518"><ele>5.0</ele><time>2026-04-25T14:23:55.569Z</time></trkpt><trkpt lat="45.293456" lon="11.7797012"><ele>5.0</ele><time>2026-04-25T14:23:57.569Z</time></trkpt><trkpt lat="45.2933502" lon="11.7796464"><ele>5.0</ele><time>2026-04-25T14:23:59.569Z</time></trkpt><trkpt lat="45.2932424" lon="11.7795883"><ele>5.0</ele><time>2026-04-25T14:24:01.569Z</time></trkpt><trkpt lat="45.2931315" lon="11.7795279"><ele>5.0</ele><time>2026-04-25T14:24:03.569Z</time></trkpt><trkpt lat="45.2930197" lon="11.7794727"><ele>5.25</ele><time>2026-04-25T14:24:05.569Z</time></trkpt><trkpt lat="45.2929049" lon="11.7794239"><ele>5.5</ele><time>2026-04-25T14:24:07.57Z</time></trkpt><trkpt lat="45.2927874" lon="11.7793761"><ele>5.75</ele><time>2026-04-25T14:24:09.569Z</time></trkpt><trkpt lat="45.2926711" lon="11.7793277"><ele>6.0</ele><time>2026-04-25T14:24:11.569Z</time></trkpt><trkpt lat="45.292555" lon="11.7792829"><ele>5.6</ele><time>2026-04-25T14:24:13.57Z</time></trkpt><trkpt lat="45.2924373" lon="11.7792524"><ele>5.199999999999999</ele><time>2026-04-25T14:24:15.569Z</time></trkpt><trkpt lat="45.292317" lon="11.7792341"><ele>4.800000000000001</ele><time>2026-04-25T14:24:17.57Z</time></trkpt><trkpt lat="45.2922005" lon="11.7791996"><ele>4.4</ele><time>2026-04-25T14:24:19.569Z</time></trkpt><trkpt lat="45.292138" lon="11.7791786"><ele>4.0</ele><time>2026-04-25T14:24:20.569Z</time></trkpt><trkpt lat="45.2920199" lon="11.7791391"><ele>5.0</ele><time>2026-04-25T14:24:22.569Z</time></trkpt><trkpt lat="45.2919037" lon="11.779092"><ele>6.0</ele><time>2026-04-25T14:24:24.57Z</time></trkpt><trkpt lat="45.2917942" lon="11.7790518"><ele>7.0</ele><time>2026-04-25T14:24:26.569Z</time></trkpt><trkpt lat="45.2916911" lon="11.7789988"><ele>8.0</ele><time>2026-04-25T14:24:28.569Z</time></trkpt><trkpt lat="45.2915942" lon="11.778962"><ele>9.0</ele><time>2026-04-25T14:24:30.569Z</time></trkpt><trkpt lat="45.2915278" lon="11.7789243"><ele>9.0</ele><time>2026-04-25T14:24:32.57Z</time></trkpt><trkpt lat="45.2914664" lon="11.7788979"><ele>9.0</ele><time>2026-04-25T14:24:35.57Z</time></trkpt><trkpt lat="45.2913877" lon="11.7788723"><ele>9.0</ele><time>2026-04-25T14:24:42.57Z</time></trkpt><trkpt lat="45.2913225" lon="11.7789328"><ele>9.0</ele><time>2026-04-25T14:24:44.569Z</time></trkpt><trkpt lat="45.2912839" lon="11.7790451"><ele>9.0</ele><time>2026-04-25T14:24:46.569Z</time></trkpt><trkpt lat="45.2912598" lon="11.779175"><ele>9.0</ele><time>2026-04-25T14:24:48.569Z</time></trkpt><trkpt lat="45.2912265" lon="11.7793174"><ele>8.5</ele><time>2026-04-25T14:24:50.57Z</time></trkpt><trkpt lat="45.2911883" lon="11.7794758"><ele>8.0</ele><time>2026-04-25T14:24:52.569Z</time></trkpt><trkpt lat="45.2911519" lon="11.7796356"><ele>7.5</ele><time>2026-04-25T14:24:54.569Z</time></trkpt><trkpt lat="45.291116" lon="11.7798002"><ele>7.0</ele><time>2026-04-25T14:24:56.57Z</time></trkpt><trkpt lat="45.2910762" lon="11.7799687"><ele>7.0</ele><time>2026-04-25T14:24:58.57Z</time></trkpt><trkpt lat="45.2910318" lon="11.7801328"><ele>7.0</ele><time>2026-04-25T14:25:00.569Z</time></trkpt><trkpt lat="45.2909874" lon="11.7802909"><ele>7.0</ele><time>2026-04-25T14:25:02.569Z</time></trkpt><trkpt lat="45.2909492" lon="11.7804524"><ele>7.0</ele><time>2026-04-25T14:25:04.57Z</time></trkpt><trkpt lat="45.2909154" lon="11.7806158"><ele>7.0</ele><time>2026-04-25T14:25:06.569Z</time></trkpt><trkpt lat="45.290878" lon="11.7807854"><ele>6.999999999999999</ele><time>2026-04-25T14:25:08.569Z</time></trkpt><trkpt lat="45.2908609" lon="11.7808716"><ele>6.999999999999999</ele><time>2026-04-25T14:25:09.57Z</time></trkpt><trkpt lat="45.2908439" lon="11.7809588"><ele>7.0</ele><time>2026-04-25T14:25:10.569Z</time></trkpt><trkpt lat="45.2908049" lon="11.7811287"><ele>7.0</ele><time>2026-04-25T14:25:12.57Z</time></trkpt><trkpt lat="45.2907653" lon="11.7812937"><ele>7.0</ele><time>2026-04-25T14:25:14.57Z</time></trkpt><trkpt lat="45.2907291" lon="11.7814598"><ele>7.0</ele><time>2026-04-25T14:25:16.569Z</time></trkpt><trkpt lat="45.2906889" lon="11.7816211"><ele>7.0</ele><time>2026-04-25T14:25:18.569Z</time></trkpt><trkpt lat="45.2906451" lon="11.7817782"><ele>7.0</ele><time>2026-04-25T14:25:20.569Z</time></trkpt><trkpt lat="45.2906089" lon="11.781938"><ele>7.0</ele><time>2026-04-25T14:25:22.57Z</time></trkpt><trkpt lat="45.290574" lon="11.7820976"><ele>6.999999999999999</ele><time>2026-04-25T14:25:24.569Z</time></trkpt><trkpt lat="45.2905386" lon="11.7822636"><ele>6.999999999999999</ele><time>2026-04-25T14:25:26.569Z</time></trkpt><trkpt lat="45.2905195" lon="11.782349"><ele>7.0</ele><time>2026-04-25T14:25:27.569Z</time></trkpt><trkpt lat="45.2904964" lon="11.7824332"><ele>7.0</ele><time>2026-04-25T14:25:28.57Z</time></trkpt><trkpt lat="45.2904656" lon="11.7825968"><ele>7.3999999999999995</ele><time>2026-04-25T14:25:30.569Z</time></trkpt><trkpt lat="45.2904232" lon="11.7827445"><ele>7.799999999999999</ele><time>2026-04-25T14:25:32.57Z</time></trkpt><trkpt lat="45.2903504" lon="11.7828515"><ele>8.2</ele><time>2026-04-25T14:25:34.569Z</time></trkpt><trkpt lat="45.2902947" lon="11.7829878"><ele>8.6</ele><time>2026-04-25T14:25:36.569Z</time></trkpt><trkpt lat="45.2902507" lon="11.7831316"><ele>9.0</ele><time>2026-04-25T14:25:38.568Z</time></trkpt><trkpt lat="45.2902062" lon="11.7832813"><ele>9.0</ele><time>2026-04-25T14:25:40.568Z</time></trkpt><trkpt lat="45.2901696" lon="11.7834208"><ele>9.0</ele><time>2026-04-25T14:25:42.569Z</time></trkpt><trkpt lat="45.2901368" lon="11.7835288"><ele>9.0</ele><time>2026-04-25T14:25:44.568Z</time></trkpt><trkpt lat="45.2900892" lon="11.7836015"><ele>9.0</ele><time>2026-04-25T14:25:47.569Z</time></trkpt><trkpt lat="45.2899968" lon="11.7835546"><ele>9.0</ele><time>2026-04-25T14:25:50.568Z</time></trkpt><trkpt lat="45.2899207" lon="11.7835058"><ele>9.0</ele><time>2026-04-25T14:25:52.568Z</time></trkpt><trkpt lat="45.2898349" lon="11.7834531"><ele>9.0</ele><time>2026-04-25T14:25:54.568Z</time></trkpt><trkpt lat="45.2897531" lon="11.7833979"><ele>9.0</ele><time>2026-04-25T14:25:56.569Z</time></trkpt><trkpt lat="45.2896628" lon="11.783347"><ele>9.0</ele><time>2026-04-25T14:25:58.568Z</time></trkpt><trkpt lat="45.2895796" lon="11.7832945"><ele>9.0</ele><time>2026-04-25T14:26:00.568Z</time></trkpt><trkpt lat="45.2894925" lon="11.7832416"><ele>9.0</ele><time>2026-04-25T14:26:02.568Z</time></trkpt><trkpt lat="45.2894054" lon="11.7831876"><ele>9.0</ele><time>2026-04-25T14:26:04.568Z</time></trkpt><trkpt lat="45.2893181" lon="11.7831264"><ele>9.0</ele><time>2026-04-25T14:26:06.569Z</time></trkpt><trkpt lat="45.2892276" lon="11.7830698"><ele>9.0</ele><time>2026-04-25T14:26:08.568Z</time></trkpt><trkpt lat="45.2891348" lon="11.7830133"><ele>9.0</ele><time>2026-04-25T14:26:10.569Z</time></trkpt><trkpt lat="45.289044" lon="11.7829577"><ele>9.0</ele><time>2026-04-25T14:26:12.568Z</time></trkpt><trkpt lat="45.2889567" lon="11.7829082"><ele>8.857142857142858</ele><time>2026-04-25T14:26:14.568Z</time></trkpt><trkpt lat="45.2888911" lon="11.7828686"><ele>8.714285714285715</ele><time>2026-04-25T14:26:16.568Z</time></trkpt><trkpt lat="45.2888242" lon="11.7828339"><ele>8.571428571428571</ele><time>2026-04-25T14:26:29.568Z</time></trkpt><trkpt lat="45.2887559" lon="11.7827889"><ele>8.428571428571429</ele><time>2026-04-25T14:26:32.568Z</time></trkpt><trkpt lat="45.2886954" lon="11.7827588"><ele>8.285714285714285</ele><time>2026-04-25T14:26:34.568Z</time></trkpt><trkpt lat="45.2886316" lon="11.7827175"><ele>8.142857142857142</ele><time>2026-04-25T14:26:36.569Z</time></trkpt><trkpt lat="45.2885624" lon="11.782668"><ele>8.0</ele><time>2026-04-25T14:26:38.568Z</time></trkpt><trkpt lat="45.2884858" lon="11.7826171"><ele>8.0</ele><time>2026-04-25T14:26:40.57Z</time></trkpt><trkpt lat="45.2884105" lon="11.7825664"><ele>7.999999999999999</ele><time>2026-04-25T14:26:42.568Z</time></trkpt><trkpt lat="45.2883575" lon="11.7824876"><ele>8.0</ele><time>2026-04-25T14:26:44.568Z</time></trkpt><trkpt lat="45.2883288" lon="11.7823983"><ele>8.0</ele><time>2026-04-25T14:26:46.568Z</time></trkpt><trkpt lat="45.288318" lon="11.7823057"><ele>7.999999999999999</ele><time>2026-04-25T14:26:49.568Z</time></trkpt><trkpt lat="45.2883363" lon="11.7821856"><ele>8.0</ele><time>2026-04-25T14:27:05.569Z</time></trkpt><trkpt lat="45.288372" lon="11.7821039"><ele>8.0</ele><time>2026-04-25T14:27:07.569Z</time></trkpt><trkpt lat="45.2884192" lon="11.7820033"><ele>8.0</ele><time>2026-04-25T14:27:09.568Z</time></trkpt><trkpt lat="45.288465" lon="11.7818984"><ele>8.0</ele><time>2026-04-25T14:27:11.57Z</time></trkpt><trkpt lat="45.2885084" lon="11.7817888"><ele>8.0</ele><time>2026-04-25T14:27:13.568Z</time></trkpt><trkpt lat="45.2885504" lon="11.781679"><ele>8.0</ele><time>2026-04-25T14:27:15.569Z</time></trkpt><trkpt lat="45.2885953" lon="11.7815633"><ele>8.0</ele><time>2026-04-25T14:27:17.568Z</time></trkpt><trkpt lat="45.2886443" lon="11.7814471"><ele>8.200000000000001</ele><time>2026-04-25T14:27:19.569Z</time></trkpt><trkpt lat="45.2886931" lon="11.7813311"><ele>8.4</ele><time>2026-04-25T14:27:21.568Z</time></trkpt><trkpt lat="45.2887448" lon="11.78121"><ele>8.600000000000001</ele><time>2026-04-25T14:27:23.568Z</time></trkpt><trkpt lat="45.2887899" lon="11.7810856"><ele>8.8</ele><time>2026-04-25T14:27:25.568Z</time></trkpt><trkpt lat="45.2888348" lon="11.7809628"><ele>9.0</ele><time>2026-04-25T14:27:27.569Z</time></trkpt><trkpt lat="45.2888805" lon="11.7808512"><ele>9.0</ele><time>2026-04-25T14:27:29.568Z</time></trkpt><trkpt lat="45.2889173" lon="11.7807536"><ele>9.0</ele><time>2026-04-25T14:27:31.569Z</time></trkpt><trkpt lat="45.288973" lon="11.7807006"><ele>10.0</ele><time>2026-04-25T14:27:35.569Z</time></trkpt></trkseg><trkseg><trkpt lat="45.2889617" lon="11.7806639"><ele>10.0</ele><time>2026-04-25T14:46:36.571Z</time></trkpt><trkpt lat="45.2889512" lon="11.7805406"><ele>10.0</ele><time>2026-04-25T14:46:39.564Z</time></trkpt><trkpt lat="45.2889887" lon="11.7804121"><ele>10.0</ele><time>2026-04-25T14:46:42.564Z</time></trkpt><trkpt lat="45.2891375" lon="11.7802329"><ele>10.0</ele><time>2026-04-25T14:46:44.563Z</time></trkpt><trkpt lat="45.2891736" lon="11.7801433"><ele>9.857142857142858</ele><time>2026-04-25T14:46:46.563Z</time></trkpt><trkpt lat="45.2892115" lon="11.7800522"><ele>9.714285714285715</ele><time>2026-04-25T14:46:48.563Z</time></trkpt><trkpt lat="45.2892475" lon="11.7799638"><ele>9.571428571428573</ele><time>2026-04-25T14:46:50.563Z</time></trkpt><trkpt lat="45.289285" lon="11.7798748"><ele>9.428571428571429</ele><time>2026-04-25T14:46:52.563Z</time></trkpt><trkpt lat="45.2893198" lon="11.7797844"><ele>9.285714285714286</ele><time>2026-04-25T14:46:54.563Z</time></trkpt><trkpt lat="45.2893551" lon="11.7796907"><ele>9.142857142857144</ele><time>2026-04-25T14:46:56.564Z</time></trkpt><trkpt lat="45.2893957" lon="11.7795923"><ele>9.0</ele><time>2026-04-25T14:46:58.563Z</time></trkpt><trkpt lat="45.2894384" lon="11.7794849"><ele>9.0</ele><time>2026-04-25T14:47:00.564Z</time></trkpt><trkpt lat="45.2894819" lon="11.7793717"><ele>9.0</ele><time>2026-04-25T14:47:02.564Z</time></trkpt><trkpt lat="45.289532" lon="11.7792505"><ele>9.0</ele><time>2026-04-25T14:47:04.563Z</time></trkpt><trkpt lat="45.2895873" lon="11.7791141"><ele>9.0</ele><time>2026-04-25T14:47:06.563Z</time></trkpt><trkpt lat="45.2896439" lon="11.7789722"><ele>9.0</ele><time>2026-04-25T14:47:08.563Z</time></trkpt><trkpt lat="45.2897062" lon="11.7788273"><ele>9.0</ele><time>2026-04-25T14:47:10.564Z</time></trkpt><trkpt lat="45.2897622" lon="11.7786834"><ele>9.0</ele><time>2026-04-25T14:47:12.564Z</time></trkpt><trkpt lat="45.2898069" lon="11.7785312"><ele>9.0</ele><time>2026-04-25T14:47:14.563Z</time></trkpt><trkpt lat="45.2898086" lon="11.7783668"><ele>9.0</ele><time>2026-04-25T14:47:16.563Z</time></trkpt><trkpt lat="45.2897643" lon="11.778206"><ele>8.5</ele><time>2026-04-25T14:47:18.563Z</time></trkpt><trkpt lat="45.2896714" lon="11.778085"><ele>8.0</ele><time>2026-04-25T14:47:20.563Z</time></trkpt><trkpt lat="45.2896096" lon="11.7780395"><ele>7.5</ele><time>2026-04-25T14:47:21.563Z</time></trkpt><trkpt lat="45.2895428" lon="11.7779925"><ele>7.0</ele><time>2026-04-25T14:47:22.564Z</time></trkpt><trkpt lat="45.2894743" lon="11.7779375"><ele>6.5</ele><time>2026-04-25T14:47:23.563Z</time></trkpt><trkpt lat="45.2894172" lon="11.7778586"><ele>6.0</ele><time>2026-04-25T14:47:24.564Z</time></trkpt><trkpt lat="45.289381" lon="11.7777575"><ele>6.0</ele><time>2026-04-25T14:47:25.564Z</time></trkpt><trkpt lat="45.2893699" lon="11.7776449"><ele>6.0</ele><time>2026-04-25T14:47:26.564Z</time></trkpt><trkpt lat="45.2893828" lon="11.7775317"><ele>6.0</ele><time>2026-04-25T14:47:27.563Z</time></trkpt><trkpt lat="45.289408" lon="11.7774186"><ele>6.0</ele><time>2026-04-25T14:47:28.564Z</time></trkpt><trkpt lat="45.2894332" lon="11.7773043"><ele>6.0</ele><time>2026-04-25T14:47:29.564Z</time></trkpt><trkpt lat="45.2895276" lon="11.7771873"><ele>6.0</ele><time>2026-04-25T14:47:31.564Z</time></trkpt><trkpt lat="45.2896373" lon="11.7771663"><ele>6.0</ele><time>2026-04-25T14:47:33.563Z</time></trkpt><trkpt lat="45.2897169" lon="11.777221"><ele>6.0</ele><time>2026-04-25T14:47:35.565Z</time></trkpt><trkpt lat="45.2897873" lon="11.7772714"><ele>6.0</ele><time>2026-04-25T14:47:37.564Z</time></trkpt><trkpt lat="45.2898578" lon="11.7773227"><ele>6.0</ele><time>2026-04-25T14:47:39.564Z</time></trkpt><trkpt lat="45.2899275" lon="11.777377"><ele>6.0</ele><time>2026-04-25T14:47:41.563Z</time></trkpt><trkpt lat="45.2899968" lon="11.7774291"><ele>6.142857142857142</ele><time>2026-04-25T14:47:43.563Z</time></trkpt><trkpt lat="45.2900661" lon="11.7774588"><ele>6.285714285714286</ele><time>2026-04-25T14:47:45.562Z</time></trkpt><trkpt lat="45.2901369" lon="11.7774597"><ele>6.428571428571429</ele><time>2026-04-25T14:47:47.562Z</time></trkpt><trkpt lat="45.2902026" lon="11.7774339"><ele>6.571428571428571</ele><time>2026-04-25T14:47:49.562Z</time></trkpt><trkpt lat="45.2902632" lon="11.7773958"><ele>6.714285714285714</ele><time>2026-04-25T14:47:51.562Z</time></trkpt><trkpt lat="45.2903057" lon="11.7773208"><ele>6.857142857142857</ele><time>2026-04-25T14:47:53.562Z</time></trkpt><trkpt lat="45.2903419" lon="11.7772338"><ele>7.0</ele><time>2026-04-25T14:47:55.562Z</time></trkpt><trkpt lat="45.2903737" lon="11.7771556"><ele>7.000000000000001</ele><time>2026-04-25T14:47:57.563Z</time></trkpt><trkpt lat="45.2904104" lon="11.7770742"><ele>7.0</ele><time>2026-04-25T14:48:00.562Z</time></trkpt><trkpt lat="45.2904443" lon="11.7769889"><ele>7.0</ele><time>2026-04-25T14:48:04.563Z</time></trkpt><trkpt lat="45.2904861" lon="11.7768874"><ele>7.0</ele><time>2026-04-25T14:48:08.562Z</time></trkpt><trkpt lat="45.2905324" lon="11.7767997"><ele>7.000000000000001</ele><time>2026-04-25T14:48:11.562Z</time></trkpt><trkpt lat="45.2905849" lon="11.7766873"><ele>7.0</ele><time>2026-04-25T14:48:14.562Z</time></trkpt><trkpt lat="45.290621" lon="11.7766062"><ele>7.0</ele><time>2026-04-25T14:48:16.563Z</time></trkpt><trkpt lat="45.290656" lon="11.776517"><ele>7.0</ele><time>2026-04-25T14:48:18.562Z</time></trkpt><trkpt lat="45.2906892" lon="11.7764295"><ele>7.0</ele><time>2026-04-25T14:48:20.563Z</time></trkpt><trkpt lat="45.2907295" lon="11.7763476"><ele>7.0</ele><time>2026-04-25T14:48:22.563Z</time></trkpt><trkpt lat="45.2907637" lon="11.7762614"><ele>7.0</ele><time>2026-04-25T14:48:24.562Z</time></trkpt><trkpt lat="45.2907939" lon="11.7761731"><ele>7.0</ele><time>2026-04-25T14:48:26.563Z</time></trkpt><trkpt lat="45.290824" lon="11.7760844"><ele>7.0</ele><time>2026-04-25T14:48:28.562Z</time></trkpt><trkpt lat="45.2908528" lon="11.7759942"><ele>7.166666666666667</ele><time>2026-04-25T14:48:30.563Z</time></trkpt><trkpt lat="45.2908825" lon="11.7758989"><ele>7.333333333333334</ele><time>2026-04-25T14:48:32.563Z</time></trkpt><trkpt lat="45.2909103" lon="11.7757933"><ele>7.5</ele><time>2026-04-25T14:48:34.562Z</time></trkpt><trkpt lat="45.2909369" lon="11.7756797"><ele>7.666666666666666</ele><time>2026-04-25T14:48:36.564Z</time></trkpt><trkpt lat="45.2909689" lon="11.7755565"><ele>7.833333333333333</ele><time>2026-04-25T14:48:38.563Z</time></trkpt><trkpt lat="45.2910003" lon="11.7754155"><ele>8.0</ele><time>2026-04-25T14:48:40.562Z</time></trkpt><trkpt lat="45.2910335" lon="11.7752726"><ele>7.800000000000001</ele><time>2026-04-25T14:48:42.562Z</time></trkpt><trkpt lat="45.2910722" lon="11.7751255"><ele>7.6000000000000005</ele><time>2026-04-25T14:48:44.562Z</time></trkpt><trkpt lat="45.2911062" lon="11.7749713"><ele>7.3999999999999995</ele><time>2026-04-25T14:48:46.563Z</time></trkpt><trkpt lat="45.2911374" lon="11.7748208"><ele>7.199999999999999</ele><time>2026-04-25T14:48:48.563Z</time></trkpt><trkpt lat="45.291173" lon="11.7746758"><ele>7.0</ele><time>2026-04-25T14:48:50.562Z</time></trkpt><trkpt lat="45.2912109" lon="11.774535"><ele>7.0</ele><time>2026-04-25T14:48:52.562Z</time></trkpt><trkpt lat="45.2912432" lon="11.7743916"><ele>6.999999999999999</ele><time>2026-04-25T14:48:54.563Z</time></trkpt><trkpt lat="45.2912739" lon="11.7742602"><ele>6.999999999999999</ele><time>2026-04-25T14:48:56.563Z</time></trkpt><trkpt lat="45.2913391" lon="11.7741657"><ele>7.0</ele><time>2026-04-25T14:48:58.563Z</time></trkpt><trkpt lat="45.2914363" lon="11.7741368"><ele>7.0</ele><time>2026-04-25T14:49:00.564Z</time></trkpt><trkpt lat="45.2915421" lon="11.7741262"><ele>7.3999999999999995</ele><time>2026-04-25T14:49:02.562Z</time></trkpt><trkpt lat="45.2916485" lon="11.7740988"><ele>7.799999999999999</ele><time>2026-04-25T14:49:04.563Z</time></trkpt><trkpt lat="45.2917413" lon="11.7740086"><ele>8.2</ele><time>2026-04-25T14:49:06.563Z</time></trkpt><trkpt lat="45.2917846" lon="11.7738667"><ele>8.6</ele><time>2026-04-25T14:49:08.562Z</time></trkpt><trkpt lat="45.2917568" lon="11.7737129"><ele>9.0</ele><time>2026-04-25T14:49:10.563Z</time></trkpt><trkpt lat="45.2916838" lon="11.7735901"><ele>9.75</ele><time>2026-04-25T14:49:12.562Z</time></trkpt><trkpt lat="45.2915811" lon="11.7735201"><ele>10.5</ele><time>2026-04-25T14:49:14.563Z</time></trkpt><trkpt lat="45.2914999" lon="11.7734096"><ele>11.25</ele><time>2026-04-25T14:49:16.562Z</time></trkpt><trkpt lat="45.2914915" lon="11.7732487"><ele>12.0</ele><time>2026-04-25T14:49:18.563Z</time></trkpt><trkpt lat="45.2915105" lon="11.7730853"><ele>12.0</ele><time>2026-04-25T14:49:20.562Z</time></trkpt><trkpt lat="45.2915249" lon="11.7729244"><ele>12.0</ele><time>2026-04-25T14:49:22.562Z</time></trkpt><trkpt lat="45.2915371" lon="11.7727617"><ele>12.0</ele><time>2026-04-25T14:49:24.562Z</time></trkpt><trkpt lat="45.2915431" lon="11.7726013"><ele>12.0</ele><time>2026-04-25T14:49:26.563Z</time></trkpt><trkpt lat="45.2915513" lon="11.772443"><ele>12.5</ele><time>2026-04-25T14:49:28.563Z</time></trkpt><trkpt lat="45.2915564" lon="11.7722783"><ele>13.0</ele><time>2026-04-25T14:49:30.563Z</time></trkpt><trkpt lat="45.2915633" lon="11.7721106"><ele>13.5</ele><time>2026-04-25T14:49:32.562Z</time></trkpt><trkpt lat="45.2915707" lon="11.7719424"><ele>14.0</ele><time>2026-04-25T14:49:34.563Z</time></trkpt><trkpt lat="45.291582" lon="11.7717734"><ele>14.0</ele><time>2026-04-25T14:49:36.563Z</time></trkpt><trkpt lat="45.2915884" lon="11.7716044"><ele>14.0</ele><time>2026-04-25T14:49:38.562Z</time></trkpt><trkpt lat="45.2916018" lon="11.7714394"><ele>14.0</ele><time>2026-04-25T14:49:40.562Z</time></trkpt><trkpt lat="45.2916138" lon="11.7712715"><ele>14.0</ele><time>2026-04-25T14:49:42.562Z</time></trkpt><trkpt lat="45.2916328" lon="11.7711057"><ele>13.5</ele><time>2026-04-25T14:49:44.562Z</time></trkpt><trkpt lat="45.2916606" lon="11.7709418"><ele>13.0</ele><time>2026-04-25T14:49:46.562Z</time></trkpt><trkpt lat="45.2916939" lon="11.7707761"><ele>12.5</ele><time>2026-04-25T14:49:48.563Z</time></trkpt><trkpt lat="45.2917278" lon="11.7706054"><ele>12.0</ele><time>2026-04-25T14:49:50.563Z</time></trkpt><trkpt lat="45.2917713" lon="11.7704426"><ele>12.0</ele><time>2026-04-25T14:49:52.562Z</time></trkpt><trkpt lat="45.2918298" lon="11.7702924"><ele>12.0</ele><time>2026-04-25T14:49:54.563Z</time></trkpt><trkpt lat="45.2918982" lon="11.7701517"><ele>12.0</ele><time>2026-04-25T14:49:56.563Z</time></trkpt><trkpt lat="45.2919794" lon="11.7700211"><ele>12.0</ele><time>2026-04-25T14:49:58.563Z</time></trkpt><trkpt lat="45.2920695" lon="11.7699"><ele>11.0</ele><time>2026-04-25T14:50:00.562Z</time></trkpt><trkpt lat="45.29216" lon="11.7697863"><ele>10.0</ele><time>2026-04-25T14:50:02.562Z</time></trkpt><trkpt lat="45.2922461" lon="11.7696749"><ele>9.0</ele><time>2026-04-25T14:50:04.563Z</time></trkpt><trkpt lat="45.2923364" lon="11.7695838"><ele>8.0</ele><time>2026-04-25T14:50:06.562Z</time></trkpt><trkpt lat="45.2924315" lon="11.7694965"><ele>8.5</ele><time>2026-04-25T14:50:08.564Z</time></trkpt><trkpt lat="45.2925333" lon="11.7694142"><ele>9.0</ele><time>2026-04-25T14:50:10.562Z</time></trkpt><trkpt lat="45.2926469" lon="11.7693336"><ele>9.5</ele><time>2026-04-25T14:50:12.562Z</time></trkpt><trkpt lat="45.2927084" lon="11.7692963"><ele>10.0</ele><time>2026-04-25T14:50:13.562Z</time></trkpt><trkpt lat="45.29277" lon="11.7692598"><ele>10.5</ele><time>2026-04-25T14:50:14.563Z</time></trkpt><trkpt lat="45.2928331" lon="11.7692281"><ele>11.0</ele><time>2026-04-25T14:50:15.562Z</time></trkpt><trkpt lat="45.292897" lon="11.7691943"><ele>11.0</ele><time>2026-04-25T14:50:16.562Z</time></trkpt><trkpt lat="45.2929626" lon="11.7691637"><ele>11.0</ele><time>2026-04-25T14:50:17.562Z</time></trkpt><trkpt lat="45.2930289" lon="11.7691333"><ele>11.0</ele><time>2026-04-25T14:50:18.563Z</time></trkpt><trkpt lat="45.2930956" lon="11.769101"><ele>11.0</ele><time>2026-04-25T14:50:19.562Z</time></trkpt><trkpt lat="45.2931615" lon="11.7690667"><ele>11.0</ele><time>2026-04-25T14:50:20.563Z</time></trkpt><trkpt lat="45.2932284" lon="11.7690318"><ele>11.0</ele><time>2026-04-25T14:50:21.563Z</time></trkpt><trkpt lat="45.2932923" lon="11.7689935"><ele>11.0</ele><time>2026-04-25T14:50:22.563Z</time></trkpt><trkpt lat="45.2933535" lon="11.7689535"><ele>11.0</ele><time>2026-04-25T14:50:23.563Z</time></trkpt><trkpt lat="45.2934157" lon="11.7689079"><ele>11.0</ele><time>2026-04-25T14:50:24.563Z</time></trkpt><trkpt lat="45.2934729" lon="11.7688591"><ele>11.0</ele><time>2026-04-25T14:50:25.562Z</time></trkpt><trkpt lat="45.2935285" lon="11.7688083"><ele>11.0</ele><time>2026-04-25T14:50:26.563Z</time></trkpt><trkpt lat="45.2935821" lon="11.7687546"><ele>11.0</ele><time>2026-04-25T14:50:27.563Z</time></trkpt><trkpt lat="45.2936321" lon="11.7686976"><ele>11.0</ele><time>2026-04-25T14:50:28.563Z</time></trkpt><trkpt lat="45.2936799" lon="11.7686371"><ele>11.0</ele><time>2026-04-25T14:50:29.562Z</time></trkpt><trkpt lat="45.2937273" lon="11.7685766"><ele>10.428571428571429</ele><time>2026-04-25T14:50:30.563Z</time></trkpt><trkpt lat="45.2937714" lon="11.7685119"><ele>9.857142857142858</ele><time>2026-04-25T14:50:31.562Z</time></trkpt><trkpt lat="45.2938126" lon="11.7684425"><ele>9.285714285714285</ele><time>2026-04-25T14:50:32.563Z</time></trkpt><trkpt lat="45.293891" lon="11.7683034"><ele>8.714285714285715</ele><time>2026-04-25T14:50:34.562Z</time></trkpt><trkpt lat="45.2939285" lon="11.7682315"><ele>8.142857142857142</ele><time>2026-04-25T14:50:35.562Z</time></trkpt><trkpt lat="45.2939651" lon="11.7681572"><ele>7.571428571428571</ele><time>2026-04-25T14:50:36.563Z</time></trkpt><trkpt lat="45.2939965" lon="11.7680779"><ele>7.0</ele><time>2026-04-25T14:50:37.563Z</time></trkpt><trkpt lat="45.2940288" lon="11.7679959"><ele>7.0</ele><time>2026-04-25T14:50:38.562Z</time></trkpt><trkpt lat="45.2940586" lon="11.7679137"><ele>7.0</ele><time>2026-04-25T14:50:39.563Z</time></trkpt><trkpt lat="45.294084" lon="11.7678222"><ele>7.0</ele><time>2026-04-25T14:50:40.562Z</time></trkpt><trkpt lat="45.2941073" lon="11.7677293"><ele>7.0</ele><time>2026-04-25T14:50:41.563Z</time></trkpt><trkpt lat="45.2941295" lon="11.7676364"><ele>7.0</ele><time>2026-04-25T14:50:42.563Z</time></trkpt><trkpt lat="45.2941516" lon="11.7675386"><ele>7.0</ele><time>2026-04-25T14:50:43.562Z</time></trkpt><trkpt lat="45.2941714" lon="11.767449"><ele>7.0</ele><time>2026-04-25T14:50:44.562Z</time></trkpt><trkpt lat="45.2941932" lon="11.7673593"><ele>7.0</ele><time>2026-04-25T14:50:45.562Z</time></trkpt><trkpt lat="45.2942135" lon="11.7672716"><ele>7.0</ele><time>2026-04-25T14:50:46.562Z</time></trkpt><trkpt lat="45.294236" lon="11.7671807"><ele>7.0</ele><time>2026-04-25T14:50:47.562Z</time></trkpt><trkpt lat="45.2942572" lon="11.7670909"><ele>7.0</ele><time>2026-04-25T14:50:48.562Z</time></trkpt><trkpt lat="45.2942798" lon="11.7670004"><ele>7.0</ele><time>2026-04-25T14:50:49.562Z</time></trkpt><trkpt lat="45.2943018" lon="11.7669128"><ele>7.0</ele><time>2026-04-25T14:50:50.562Z</time></trkpt><trkpt lat="45.2943276" lon="11.7668286"><ele>7.0</ele><time>2026-04-25T14:50:51.562Z</time></trkpt><trkpt lat="45.2943551" lon="11.7667422"><ele>7.0</ele><time>2026-04-25T14:50:52.562Z</time></trkpt><trkpt lat="45.2943842" lon="11.7666592"><ele>7.0</ele><time>2026-04-25T14:50:53.562Z</time></trkpt><trkpt lat="45.2944172" lon="11.7665784"><ele>7.0</ele><time>2026-04-25T14:50:54.562Z</time></trkpt><trkpt lat="45.2944539" lon="11.7664994"><ele>7.0</ele><time>2026-04-25T14:50:55.563Z</time></trkpt><trkpt lat="45.2944897" lon="11.7664203"><ele>7.0</ele><time>2026-04-25T14:50:56.562Z</time></trkpt><trkpt lat="45.2945305" lon="11.7663479"><ele>7.0</ele><time>2026-04-25T14:50:57.564Z</time></trkpt><trkpt lat="45.2945742" lon="11.7662764"><ele>7.0</ele><time>2026-04-25T14:50:58.562Z</time></trkpt><trkpt lat="45.2946213" lon="11.7662122"><ele>7.0</ele><time>2026-04-25T14:50:59.563Z</time></trkpt><trkpt lat="45.2946675" lon="11.7661426"><ele>7.0</ele><time>2026-04-25T14:51:00.563Z</time></trkpt><trkpt lat="45.2947131" lon="11.766076"><ele>7.0</ele><time>2026-04-25T14:51:01.562Z</time></trkpt><trkpt lat="45.2947564" lon="11.7660079"><ele>7.0</ele><time>2026-04-25T14:51:02.563Z</time></trkpt><trkpt lat="45.2947987" lon="11.7659357"><ele>7.0</ele><time>2026-04-25T14:51:03.562Z</time></trkpt><trkpt lat="45.2948386" lon="11.7658619"><ele>7.0</ele><time>2026-04-25T14:51:04.562Z</time></trkpt><trkpt lat="45.2948771" lon="11.7657859"><ele>7.0</ele><time>2026-04-25T14:51:05.562Z</time></trkpt><trkpt lat="45.294911" lon="11.7657059"><ele>8.333333333333334</ele><time>2026-04-25T14:51:06.562Z</time></trkpt><trkpt lat="45.2949395" lon="11.7656229"><ele>9.666666666666668</ele><time>2026-04-25T14:51:07.563Z</time></trkpt><trkpt lat="45.2949644" lon="11.7655372"><ele>11.0</ele><time>2026-04-25T14:51:08.562Z</time></trkpt><trkpt lat="45.2949876" lon="11.7654533"><ele>12.333333333333334</ele><time>2026-04-25T14:51:09.562Z</time></trkpt><trkpt lat="45.2950067" lon="11.7653658"><ele>13.666666666666666</ele><time>2026-04-25T14:51:10.562Z</time></trkpt><trkpt lat="45.2950375" lon="11.7651947"><ele>15.0</ele><time>2026-04-25T14:51:12.563Z</time></trkpt><trkpt lat="45.2950612" lon="11.7650262"><ele>15.0</ele><time>2026-04-25T14:51:14.562Z</time></trkpt><trkpt lat="45.2950904" lon="11.7648647"><ele>15.0</ele><time>2026-04-25T14:51:16.561Z</time></trkpt><trkpt lat="45.2951337" lon="11.764712"><ele>15.0</ele><time>2026-04-25T14:51:18.562Z</time></trkpt><trkpt lat="45.2951761" lon="11.7645605"><ele>15.0</ele><time>2026-04-25T14:51:20.562Z</time></trkpt><trkpt lat="45.2952329" lon="11.7644135"><ele>13.4</ele><time>2026-04-25T14:51:22.562Z</time></trkpt><trkpt lat="45.2952945" lon="11.7642629"><ele>11.8</ele><time>2026-04-25T14:51:24.561Z</time></trkpt><trkpt lat="45.2953679" lon="11.7641171"><ele>10.2</ele><time>2026-04-25T14:51:26.562Z</time></trkpt><trkpt lat="45.2954103" lon="11.7640509"><ele>8.6</ele><time>2026-04-25T14:51:27.561Z</time></trkpt><trkpt lat="45.2954999" lon="11.7639282"><ele>7.0</ele><time>2026-04-25T14:51:29.561Z</time></trkpt><trkpt lat="45.295591" lon="11.7638086"><ele>8.0</ele><time>2026-04-25T14:51:31.561Z</time></trkpt><trkpt lat="45.2956865" lon="11.7636947"><ele>9.0</ele><time>2026-04-25T14:51:33.563Z</time></trkpt><trkpt lat="45.2957835" lon="11.7635907"><ele>10.0</ele><time>2026-04-25T14:51:35.562Z</time></trkpt><trkpt lat="45.2958817" lon="11.7634857"><ele>11.0</ele><time>2026-04-25T14:51:37.562Z</time></trkpt><trkpt lat="45.2959881" lon="11.7633944"><ele>11.0</ele><time>2026-04-25T14:51:39.561Z</time></trkpt><trkpt lat="45.2960941" lon="11.7633045"><ele>11.0</ele><time>2026-04-25T14:51:41.562Z</time></trkpt><trkpt lat="45.2961479" lon="11.763258"><ele>11.0</ele><time>2026-04-25T14:51:42.561Z</time></trkpt><trkpt lat="45.2962521" lon="11.7631714"><ele>11.0</ele><time>2026-04-25T14:51:44.562Z</time></trkpt><trkpt lat="45.2963529" lon="11.7630861"><ele>11.0</ele><time>2026-04-25T14:51:46.562Z</time></trkpt><trkpt lat="45.2964461" lon="11.7629853"><ele>10.5</ele><time>2026-04-25T14:51:48.562Z</time></trkpt><trkpt lat="45.2965247" lon="11.7628707"><ele>10.0</ele><time>2026-04-25T14:51:50.562Z</time></trkpt><trkpt lat="45.2965874" lon="11.7627349"><ele>9.5</ele><time>2026-04-25T14:51:52.562Z</time></trkpt><trkpt lat="45.2966496" lon="11.7625898"><ele>9.0</ele><time>2026-04-25T14:51:54.562Z</time></trkpt><trkpt lat="45.2967176" lon="11.7624506"><ele>9.0</ele><time>2026-04-25T14:51:56.562Z</time></trkpt><trkpt lat="45.296792" lon="11.7623174"><ele>9.0</ele><time>2026-04-25T14:51:58.562Z</time></trkpt><trkpt lat="45.2968731" lon="11.7621885"><ele>9.0</ele><time>2026-04-25T14:52:00.562Z</time></trkpt><trkpt lat="45.2969594" lon="11.7620726"><ele>9.0</ele><time>2026-04-25T14:52:02.561Z</time></trkpt><trkpt lat="45.2970504" lon="11.7619615"><ele>9.2</ele><time>2026-04-25T14:52:04.561Z</time></trkpt><trkpt lat="45.2971333" lon="11.7618504"><ele>9.4</ele><time>2026-04-25T14:52:06.561Z</time></trkpt><trkpt lat="45.2972105" lon="11.7617348"><ele>9.6</ele><time>2026-04-25T14:52:08.561Z</time></trkpt><trkpt lat="45.2972762" lon="11.7616088"><ele>9.8</ele><time>2026-04-25T14:52:10.562Z</time></trkpt><trkpt lat="45.2973454" lon="11.7614828"><ele>10.0</ele><time>2026-04-25T14:52:12.563Z</time></trkpt><trkpt lat="45.2974099" lon="11.7613382"><ele>10.0</ele><time>2026-04-25T14:52:14.561Z</time></trkpt><trkpt lat="45.2974653" lon="11.7611885"><ele>10.0</ele><time>2026-04-25T14:52:16.562Z</time></trkpt><trkpt lat="45.2975202" lon="11.7610355"><ele>10.0</ele><time>2026-04-25T14:52:18.561Z</time></trkpt><trkpt lat="45.2975517" lon="11.7609561"><ele>10.0</ele><time>2026-04-25T14:52:19.562Z</time></trkpt><trkpt lat="45.2975844" lon="11.7608735"><ele>10.0</ele><time>2026-04-25T14:52:20.561Z</time></trkpt><trkpt lat="45.297614" lon="11.7607899"><ele>10.0</ele><time>2026-04-25T14:52:21.562Z</time></trkpt><trkpt lat="45.2976442" lon="11.7607076"><ele>9.571428571428571</ele><time>2026-04-25T14:52:22.562Z</time></trkpt><trkpt lat="45.2976766" lon="11.7606216"><ele>9.142857142857142</ele><time>2026-04-25T14:52:23.561Z</time></trkpt><trkpt lat="45.2977061" lon="11.7605349"><ele>8.714285714285715</ele><time>2026-04-25T14:52:24.563Z</time></trkpt><trkpt lat="45.2977391" lon="11.7604502"><ele>8.285714285714285</ele><time>2026-04-25T14:52:25.562Z</time></trkpt><trkpt lat="45.2977713" lon="11.7603669"><ele>7.857142857142858</ele><time>2026-04-25T14:52:26.561Z</time></trkpt><trkpt lat="45.2978012" lon="11.7602827"><ele>7.428571428571429</ele><time>2026-04-25T14:52:27.561Z</time></trkpt><trkpt lat="45.2978301" lon="11.7601987"><ele>7.0</ele><time>2026-04-25T14:52:28.562Z</time></trkpt><trkpt lat="45.2978612" lon="11.7601179"><ele>6.571428571428571</ele><time>2026-04-25T14:52:29.562Z</time></trkpt><trkpt lat="45.2978875" lon="11.7600354"><ele>6.142857142857142</ele><time>2026-04-25T14:52:30.561Z</time></trkpt><trkpt lat="45.2979194" lon="11.7599552"><ele>5.714285714285714</ele><time>2026-04-25T14:52:31.561Z</time></trkpt><trkpt lat="45.2979505" lon="11.7598725"><ele>5.285714285714286</ele><time>2026-04-25T14:52:32.561Z</time></trkpt><trkpt lat="45.2979793" lon="11.7597892"><ele>4.857142857142857</ele><time>2026-04-25T14:52:33.561Z</time></trkpt><trkpt lat="45.298008" lon="11.7597081"><ele>4.428571428571429</ele><time>2026-04-25T14:52:34.561Z</time></trkpt><trkpt lat="45.2980384" lon="11.7596275"><ele>4.0</ele><time>2026-04-25T14:52:35.562Z</time></trkpt><trkpt lat="45.298069" lon="11.7595454"><ele>4.2</ele><time>2026-04-25T14:52:36.562Z</time></trkpt><trkpt lat="45.2980969" lon="11.7594625"><ele>4.4</ele><time>2026-04-25T14:52:37.561Z</time></trkpt><trkpt lat="45.2981619" lon="11.7593081"><ele>4.6</ele><time>2026-04-25T14:52:39.562Z</time></trkpt><trkpt lat="45.2981969" lon="11.7592312"><ele>4.8</ele><time>2026-04-25T14:52:40.561Z</time></trkpt><trkpt lat="45.2982608" lon="11.7590763"><ele>5.0</ele><time>2026-04-25T14:52:42.561Z</time></trkpt><trkpt lat="45.2983272" lon="11.758926"><ele>4.5</ele><time>2026-04-25T14:52:44.561Z</time></trkpt><trkpt lat="45.2983953" lon="11.7587778"><ele>4.0</ele><time>2026-04-25T14:52:46.562Z</time></trkpt><trkpt lat="45.2984608" lon="11.7586391"><ele>3.5</ele><time>2026-04-25T14:52:48.561Z</time></trkpt><trkpt lat="45.2985282" lon="11.7584993"><ele>3.0</ele><time>2026-04-25T14:52:50.561Z</time></trkpt><trkpt lat="45.2985988" lon="11.7583669"><ele>3.0</ele><time>2026-04-25T14:52:52.562Z</time></trkpt><trkpt lat="45.2986716" lon="11.758233"><ele>3.0</ele><time>2026-04-25T14:52:54.562Z</time></trkpt><trkpt lat="45.298745" lon="11.7581015"><ele>3.0</ele><time>2026-04-25T14:52:56.561Z</time></trkpt><trkpt lat="45.2988179" lon="11.7579702"><ele>3.0</ele><time>2026-04-25T14:52:58.561Z</time></trkpt><trkpt lat="45.2988948" lon="11.7578412"><ele>2.9999999999999996</ele><time>2026-04-25T14:53:00.562Z</time></trkpt><trkpt lat="45.2989724" lon="11.757711"><ele>3.0</ele><time>2026-04-25T14:53:02.561Z</time></trkpt><trkpt lat="45.2990181" lon="11.7576483"><ele>3.0</ele><time>2026-04-25T14:53:03.562Z</time></trkpt><trkpt lat="45.2990637" lon="11.7575845"><ele>3.0</ele><time>2026-04-25T14:53:04.561Z</time></trkpt><trkpt lat="45.2991066" lon="11.7575179"><ele>3.0</ele><time>2026-04-25T14:53:05.562Z</time></trkpt><trkpt lat="45.2991465" lon="11.757448"><ele>2.9999999999999996</ele><time>2026-04-25T14:53:06.561Z</time></trkpt><trkpt lat="45.2991885" lon="11.7573791"><ele>3.0</ele><time>2026-04-25T14:53:07.561Z</time></trkpt><trkpt lat="45.2992283" lon="11.7573088"><ele>3.0</ele><time>2026-04-25T14:53:08.562Z</time></trkpt><trkpt lat="45.299265" lon="11.7572333"><ele>3.0</ele><time>2026-04-25T14:53:09.561Z</time></trkpt><trkpt lat="45.2993272" lon="11.7570798"><ele>3.0</ele><time>2026-04-25T14:53:11.562Z</time></trkpt><trkpt lat="45.2993784" lon="11.7569215"><ele>3.0</ele><time>2026-04-25T14:53:13.561Z</time></trkpt><trkpt lat="45.2994199" lon="11.7567554"><ele>3.0</ele><time>2026-04-25T14:53:15.561Z</time></trkpt><trkpt lat="45.299459" lon="11.7565877"><ele>3.0</ele><time>2026-04-25T14:53:17.561Z</time></trkpt><trkpt lat="45.2995008" lon="11.7564289"><ele>3.0</ele><time>2026-04-25T14:53:19.561Z</time></trkpt><trkpt lat="45.2995534" lon="11.7562846"><ele>3.0</ele><time>2026-04-25T14:53:21.562Z</time></trkpt><trkpt lat="45.2996128" lon="11.7561497"><ele>3.0</ele><time>2026-04-25T14:53:23.561Z</time></trkpt><trkpt lat="45.2996811" lon="11.756013"><ele>3.0</ele><time>2026-04-25T14:53:25.562Z</time></trkpt><trkpt lat="45.2997417" lon="11.7558722"><ele>3.0</ele><time>2026-04-25T14:53:27.561Z</time></trkpt><trkpt lat="45.2998043" lon="11.7557365"><ele>3.0</ele><time>2026-04-25T14:53:29.562Z</time></trkpt><trkpt lat="45.2998672" lon="11.7555991"><ele>3.0</ele><time>2026-04-25T14:53:31.561Z</time></trkpt><trkpt lat="45.2999281" lon="11.7554587"><ele>3.1666666666666665</ele><time>2026-04-25T14:53:33.562Z</time></trkpt><trkpt lat="45.2999971" lon="11.7553166"><ele>3.333333333333333</ele><time>2026-04-25T14:53:35.561Z</time></trkpt><trkpt lat="45.3000634" lon="11.7551661"><ele>3.5</ele><time>2026-04-25T14:53:37.562Z</time></trkpt><trkpt lat="45.3000948" lon="11.7550858"><ele>3.6666666666666665</ele><time>2026-04-25T14:53:38.561Z</time></trkpt><trkpt lat="45.3001248" lon="11.7550035"><ele>3.833333333333333</ele><time>2026-04-25T14:53:39.561Z</time></trkpt><trkpt lat="45.3001542" lon="11.7549144"><ele>4.0</ele><time>2026-04-25T14:53:40.561Z</time></trkpt><trkpt lat="45.300185" lon="11.7548227"><ele>4.0</ele><time>2026-04-25T14:53:41.563Z</time></trkpt><trkpt lat="45.3002172" lon="11.7547315"><ele>3.9999999999999996</ele><time>2026-04-25T14:53:42.561Z</time></trkpt><trkpt lat="45.3002546" lon="11.7546415"><ele>4.0</ele><time>2026-04-25T14:53:43.562Z</time></trkpt><trkpt lat="45.3003005" lon="11.7545583"><ele>4.0</ele><time>2026-04-25T14:53:44.563Z</time></trkpt><trkpt lat="45.3003417" lon="11.7544727"><ele>3.9999999999999996</ele><time>2026-04-25T14:53:45.562Z</time></trkpt><trkpt lat="45.3003738" lon="11.7543818"><ele>4.0</ele><time>2026-04-25T14:53:46.561Z</time></trkpt><trkpt lat="45.3004092" lon="11.7542927"><ele>4.0</ele><time>2026-04-25T14:53:47.561Z</time></trkpt><trkpt lat="45.3004494" lon="11.7542072"><ele>3.8571428571428568</ele><time>2026-04-25T14:53:48.561Z</time></trkpt><trkpt lat="45.3004889" lon="11.7541212"><ele>3.714285714285714</ele><time>2026-04-25T14:53:49.562Z</time></trkpt><trkpt lat="45.3005279" lon="11.7540319"><ele>3.571428571428571</ele><time>2026-04-25T14:53:50.562Z</time></trkpt><trkpt lat="45.3005666" lon="11.7539433"><ele>3.4285714285714284</ele><time>2026-04-25T14:53:51.562Z</time></trkpt><trkpt lat="45.3006075" lon="11.7538528"><ele>3.2857142857142856</ele><time>2026-04-25T14:53:52.561Z</time></trkpt><trkpt lat="45.3006466" lon="11.7537666"><ele>3.1428571428571423</ele><time>2026-04-25T14:53:53.561Z</time></trkpt><trkpt lat="45.3006863" lon="11.7536763"><ele>3.0</ele><time>2026-04-25T14:53:54.562Z</time></trkpt><trkpt lat="45.3007262" lon="11.7535864"><ele>2.8571428571428568</ele><time>2026-04-25T14:53:55.561Z</time></trkpt><trkpt lat="45.3007659" lon="11.7534972"><ele>2.7142857142857144</ele><time>2026-04-25T14:53:56.561Z</time></trkpt><trkpt lat="45.3008043" lon="11.7534068"><ele>2.571428571428571</ele><time>2026-04-25T14:53:57.562Z</time></trkpt><trkpt lat="45.300841" lon="11.7533116"><ele>2.4285714285714284</ele><time>2026-04-25T14:53:58.562Z</time></trkpt><trkpt lat="45.3008792" lon="11.7532222"><ele>2.2857142857142856</ele><time>2026-04-25T14:53:59.561Z</time></trkpt><trkpt lat="45.3009163" lon="11.7531313"><ele>2.142857142857143</ele><time>2026-04-25T14:54:00.561Z</time></trkpt><trkpt lat="45.300954" lon="11.7530407"><ele>2.0</ele><time>2026-04-25T14:54:01.562Z</time></trkpt><trkpt lat="45.3009924" lon="11.7529547"><ele>2.0</ele><time>2026-04-25T14:54:02.561Z</time></trkpt><trkpt lat="45.3010277" lon="11.7528633"><ele>1.9999999999999998</ele><time>2026-04-25T14:54:03.561Z</time></trkpt><trkpt lat="45.301066" lon="11.7527742"><ele>2.0</ele><time>2026-04-25T14:54:04.561Z</time></trkpt><trkpt lat="45.3011026" lon="11.7526878"><ele>2.0</ele><time>2026-04-25T14:54:05.561Z</time></trkpt><trkpt lat="45.3011365" lon="11.752599"><ele>1.9999999999999998</ele><time>2026-04-25T14:54:06.561Z</time></trkpt><trkpt lat="45.3011737" lon="11.7525153"><ele>2.0</ele><time>2026-04-25T14:54:07.562Z</time></trkpt><trkpt lat="45.3012115" lon="11.7524308"><ele>2.0</ele><time>2026-04-25T14:54:08.562Z</time></trkpt><trkpt lat="45.3012487" lon="11.7523449"><ele>1.857142857142857</ele><time>2026-04-25T14:54:09.562Z</time></trkpt><trkpt lat="45.3012833" lon="11.7522593"><ele>1.714285714285714</ele><time>2026-04-25T14:54:10.562Z</time></trkpt><trkpt lat="45.3013178" lon="11.7521731"><ele>1.5714285714285714</ele><time>2026-04-25T14:54:11.561Z</time></trkpt><trkpt lat="45.3013589" lon="11.7520871"><ele>1.4285714285714284</ele><time>2026-04-25T14:54:12.561Z</time></trkpt><trkpt lat="45.3013898" lon="11.752001"><ele>1.2857142857142856</ele><time>2026-04-25T14:54:13.561Z</time></trkpt><trkpt lat="45.3014257" lon="11.7519214"><ele>1.1428571428571428</ele><time>2026-04-25T14:54:14.562Z</time></trkpt><trkpt lat="45.301455" lon="11.7518364"><ele>1.0</ele><time>2026-04-25T14:54:15.562Z</time></trkpt><trkpt lat="45.301488" lon="11.7517539"><ele>0.8571428571428571</ele><time>2026-04-25T14:54:16.562Z</time></trkpt><trkpt lat="45.3015232" lon="11.7516707"><ele>0.7142857142857142</ele><time>2026-04-25T14:54:17.561Z</time></trkpt><trkpt lat="45.3015581" lon="11.7515886"><ele>0.5714285714285714</ele><time>2026-04-25T14:54:18.562Z</time></trkpt><trkpt lat="45.3015905" lon="11.751503"><ele>0.42857142857142855</ele><time>2026-04-25T14:54:19.561Z</time></trkpt><trkpt lat="45.3016257" lon="11.7514211"><ele>0.2857142857142857</ele><time>2026-04-25T14:54:20.561Z</time></trkpt><trkpt lat="45.3016601" lon="11.7513391"><ele>0.14285714285714285</ele><time>2026-04-25T14:54:21.563Z</time></trkpt><trkpt lat="45.3016947" lon="11.7512582"><ele>0.0</ele><time>2026-04-25T14:54:22.562Z</time></trkpt><trkpt lat="45.3017282" lon="11.751178"><ele>0.0</ele><time>2026-04-25T14:54:23.561Z</time></trkpt><trkpt lat="45.301765" lon="11.7511024"><ele>0.0</ele><time>2026-04-25T14:54:24.561Z</time></trkpt><trkpt lat="45.3017991" lon="11.7510232"><ele>0.0</ele><time>2026-04-25T14:54:25.561Z</time></trkpt><trkpt lat="45.3018307" lon="11.750944"><ele>0.0</ele><time>2026-04-25T14:54:26.563Z</time></trkpt><trkpt lat="45.3018646" lon="11.7508642"><ele>0.0</ele><time>2026-04-25T14:54:27.561Z</time></trkpt><trkpt lat="45.3018976" lon="11.750786"><ele>0.0</ele><time>2026-04-25T14:54:28.562Z</time></trkpt><trkpt lat="45.3019288" lon="11.7507052"><ele>0.0</ele><time>2026-04-25T14:54:29.562Z</time></trkpt><trkpt lat="45.3019615" lon="11.7506275"><ele>0.4</ele><time>2026-04-25T14:54:30.561Z</time></trkpt><trkpt lat="45.3020232" lon="11.7504803"><ele>0.8</ele><time>2026-04-25T14:54:32.561Z</time></trkpt><trkpt lat="45.302074" lon="11.7503379"><ele>1.2000000000000002</ele><time>2026-04-25T14:54:34.561Z</time></trkpt><trkpt lat="45.3021082" lon="11.7501864"><ele>1.6</ele><time>2026-04-25T14:54:36.563Z</time></trkpt><trkpt lat="45.3021068" lon="11.750052"><ele>2.0</ele><time>2026-04-25T14:54:38.561Z</time></trkpt><trkpt lat="45.3020559" lon="11.7499646"><ele>2.0</ele><time>2026-04-25T14:54:41.561Z</time></trkpt><trkpt lat="45.3020874" lon="11.7498635"><ele>1.9999999999999998</ele><time>2026-04-25T14:54:45.561Z</time></trkpt><trkpt lat="45.3021219" lon="11.7497651"><ele>2.0</ele><time>2026-04-25T14:54:48.561Z</time></trkpt><trkpt lat="45.3021727" lon="11.7496577"><ele>2.0</ele><time>2026-04-25T14:54:51.561Z</time></trkpt><trkpt lat="45.3022088" lon="11.7495806"><ele>1.9999999999999998</ele><time>2026-04-25T14:54:53.561Z</time></trkpt><trkpt lat="45.3022436" lon="11.7495031"><ele>2.0</ele><time>2026-04-25T14:54:55.562Z</time></trkpt><trkpt lat="45.3022804" lon="11.7494262"><ele>2.0</ele><time>2026-04-25T14:54:57.561Z</time></trkpt><trkpt lat="45.3023162" lon="11.749342"><ele>1.9999999999999998</ele><time>2026-04-25T14:54:59.562Z</time></trkpt><trkpt lat="45.3023648" lon="11.7492499"><ele>2.0</ele><time>2026-04-25T14:55:01.562Z</time></trkpt><trkpt lat="45.3024141" lon="11.7491426"><ele>2.0</ele><time>2026-04-25T14:55:03.561Z</time></trkpt><trkpt lat="45.3024646" lon="11.7490348"><ele>2.0</ele><time>2026-04-25T14:55:05.561Z</time></trkpt><trkpt lat="45.3025114" lon="11.7489231"><ele>1.9999999999999998</ele><time>2026-04-25T14:55:07.563Z</time></trkpt><trkpt lat="45.302557" lon="11.7488143"><ele>2.0</ele><time>2026-04-25T14:55:09.56Z</time></trkpt><trkpt lat="45.3026003" lon="11.7487142"><ele>1.9999999999999998</ele><time>2026-04-25T14:55:11.56Z</time></trkpt><trkpt lat="45.3026282" lon="11.7486161"><ele>2.0</ele><time>2026-04-25T14:55:15.561Z</time></trkpt><trkpt lat="45.3026663" lon="11.7485145"><ele>2.0</ele><time>2026-04-25T14:56:01.561Z</time></trkpt><trkpt lat="45.3026963" lon="11.748426"><ele>2.0</ele><time>2026-04-25T14:56:04.561Z</time></trkpt><trkpt lat="45.3027317" lon="11.7483215"><ele>1.9999999999999998</ele><time>2026-04-25T14:56:07.56Z</time></trkpt><trkpt lat="45.3027723" lon="11.7482003"><ele>2.0</ele><time>2026-04-25T14:56:10.56Z</time></trkpt><trkpt lat="45.3028025" lon="11.748117"><ele>2.1666666666666665</ele><time>2026-04-25T14:56:12.56Z</time></trkpt><trkpt lat="45.3028314" lon="11.7480343"><ele>2.333333333333333</ele><time>2026-04-25T14:56:14.561Z</time></trkpt><trkpt lat="45.3028888" lon="11.7479343"><ele>2.5</ele><time>2026-04-25T14:56:17.56Z</time></trkpt><trkpt lat="45.3029404" lon="11.7478243"><ele>2.6666666666666665</ele><time>2026-04-25T14:56:20.56Z</time></trkpt><trkpt lat="45.3029355" lon="11.7476942"><ele>2.8333333333333335</ele><time>2026-04-25T14:56:23.561Z</time></trkpt><trkpt lat="45.3028659" lon="11.7476154"><ele>3.0</ele><time>2026-04-25T14:56:26.56Z</time></trkpt><trkpt lat="45.3028162" lon="11.7475526"><ele>3.1666666666666665</ele><time>2026-04-25T14:56:28.56Z</time></trkpt><trkpt lat="45.3027609" lon="11.7474912"><ele>3.333333333333333</ele><time>2026-04-25T14:56:30.562Z</time></trkpt><trkpt lat="45.3026974" lon="11.7474249"><ele>3.5</ele><time>2026-04-25T14:56:32.56Z</time></trkpt><trkpt lat="45.3026304" lon="11.7473482"><ele>3.6666666666666665</ele><time>2026-04-25T14:56:34.56Z</time></trkpt><trkpt lat="45.3025603" lon="11.7472733"><ele>3.833333333333333</ele><time>2026-04-25T14:56:36.56Z</time></trkpt><trkpt lat="45.3024931" lon="11.7471979"><ele>4.0</ele><time>2026-04-25T14:56:38.56Z</time></trkpt><trkpt lat="45.3024209" lon="11.7471271"><ele>4.0</ele><time>2026-04-25T14:56:40.561Z</time></trkpt><trkpt lat="45.3023476" lon="11.7470472"><ele>4.0</ele><time>2026-04-25T14:56:42.56Z</time></trkpt><trkpt lat="45.3022755" lon="11.7469647"><ele>4.0</ele><time>2026-04-25T14:56:44.56Z</time></trkpt><trkpt lat="45.3022039" lon="11.7468872"><ele>4.0</ele><time>2026-04-25T14:56:46.561Z</time></trkpt><trkpt lat="45.3021327" lon="11.7468102"><ele>4.0</ele><time>2026-04-25T14:56:48.56Z</time></trkpt><trkpt lat="45.3020655" lon="11.7467331"><ele>3.714285714285714</ele><time>2026-04-25T14:56:50.56Z</time></trkpt><trkpt lat="45.3020019" lon="11.7466582"><ele>3.428571428571428</ele><time>2026-04-25T14:56:52.561Z</time></trkpt><trkpt lat="45.3019497" lon="11.746601"><ele>3.142857142857143</ele><time>2026-04-25T14:56:54.561Z</time></trkpt><trkpt lat="45.3018743" lon="11.7465827"><ele>2.8571428571428568</ele><time>2026-04-25T14:56:57.56Z</time></trkpt><trkpt lat="45.3018401" lon="11.7466727"><ele>2.571428571428571</ele><time>2026-04-25T14:57:00.561Z</time></trkpt><trkpt lat="45.3018403" lon="11.7467641"><ele>2.2857142857142856</ele><time>2026-04-25T14:57:02.561Z</time></trkpt><trkpt lat="45.3018292" lon="11.7468727"><ele>2.0</ele><time>2026-04-25T14:57:04.56Z</time></trkpt><trkpt lat="45.3018061" lon="11.7469955"><ele>1.8</ele><time>2026-04-25T14:57:06.56Z</time></trkpt><trkpt lat="45.3017807" lon="11.747121"><ele>1.6</ele><time>2026-04-25T14:57:08.56Z</time></trkpt><trkpt lat="45.3017544" lon="11.7472441"><ele>1.4000000000000001</ele><time>2026-04-25T14:57:10.561Z</time></trkpt><trkpt lat="45.3017276" lon="11.7473661"><ele>1.2000000000000002</ele><time>2026-04-25T14:57:12.56Z</time></trkpt><trkpt lat="45.3017003" lon="11.7474868"><ele>1.0</ele><time>2026-04-25T14:57:14.561Z</time></trkpt><trkpt lat="45.3016733" lon="11.7476065"><ele>0.9999999999999999</ele><time>2026-04-25T14:57:16.56Z</time></trkpt><trkpt lat="45.3016425" lon="11.7477239"><ele>1.0</ele><time>2026-04-25T14:57:18.562Z</time></trkpt><trkpt lat="45.3016164" lon="11.7478429"><ele>1.0</ele><time>2026-04-25T14:57:20.56Z</time></trkpt><trkpt lat="45.301592" lon="11.7479596"><ele>1.0</ele><time>2026-04-25T14:57:22.56Z</time></trkpt><trkpt lat="45.3015668" lon="11.7480758"><ele>0.9999999999999999</ele><time>2026-04-25T14:57:24.56Z</time></trkpt><trkpt lat="45.301539" lon="11.748193"><ele>1.0</ele><time>2026-04-25T14:57:26.56Z</time></trkpt><trkpt lat="45.3015177" lon="11.7483121"><ele>0.9999999999999999</ele><time>2026-04-25T14:57:28.56Z</time></trkpt><trkpt lat="45.3014923" lon="11.7484326"><ele>1.0</ele><time>2026-04-25T14:57:30.56Z</time></trkpt><trkpt lat="45.3014658" lon="11.748551"><ele>1.0</ele><time>2026-04-25T14:57:32.561Z</time></trkpt><trkpt lat="45.3014394" lon="11.7486703"><ele>1.0</ele><time>2026-04-25T14:57:34.561Z</time></trkpt><trkpt lat="45.3014156" lon="11.7487892"><ele>0.9999999999999999</ele><time>2026-04-25T14:57:36.561Z</time></trkpt><trkpt lat="45.3013895" lon="11.7489052"><ele>1.0</ele><time>2026-04-25T14:57:38.56Z</time></trkpt><trkpt lat="45.3013616" lon="11.7490081"><ele>0.8333333333333333</ele><time>2026-04-25T14:57:40.561Z</time></trkpt><trkpt lat="45.3013311" lon="11.7491142"><ele>0.6666666666666666</ele><time>2026-04-25T14:57:43.561Z</time></trkpt><trkpt lat="45.3012558" lon="11.7491394"><ele>0.5</ele><time>2026-04-25T14:57:47.56Z</time></trkpt><trkpt lat="45.3012025" lon="11.7490649"><ele>0.3333333333333333</ele><time>2026-04-25T14:57:49.56Z</time></trkpt><trkpt lat="45.3011414" lon="11.7489839"><ele>0.16666666666666666</ele><time>2026-04-25T14:57:51.562Z</time></trkpt><trkpt lat="45.3010768" lon="11.7489062"><ele>0.0</ele><time>2026-04-25T14:57:53.561Z</time></trkpt><trkpt lat="45.3010114" lon="11.7488385"><ele>0.0</ele><time>2026-04-25T14:57:55.56Z</time></trkpt><trkpt lat="45.3009518" lon="11.7487716"><ele>0.0</ele><time>2026-04-25T14:57:57.56Z</time></trkpt><trkpt lat="45.3008983" lon="11.7487096"><ele>0.0</ele><time>2026-04-25T14:57:59.561Z</time></trkpt><trkpt lat="45.3008446" lon="11.7486559"><ele>0.0</ele><time>2026-04-25T14:58:01.56Z</time></trkpt><trkpt lat="45.3007934" lon="11.7485958"><ele>0.0</ele><time>2026-04-25T14:58:03.56Z</time></trkpt><trkpt lat="45.3007343" lon="11.7485301"><ele>0.0</ele><time>2026-04-25T14:58:05.561Z</time></trkpt><trkpt lat="45.3006679" lon="11.7484543"><ele>0.0</ele><time>2026-04-25T14:58:07.56Z</time></trkpt><trkpt lat="45.3005931" lon="11.7483712"><ele>0.2</ele><time>2026-04-25T14:58:09.56Z</time></trkpt><trkpt lat="45.3005219" lon="11.7482936"><ele>0.4</ele><time>2026-04-25T14:58:11.56Z</time></trkpt><trkpt lat="45.3004511" lon="11.7482116"><ele>0.6000000000000001</ele><time>2026-04-25T14:58:13.56Z</time></trkpt><trkpt lat="45.3003779" lon="11.7481222"><ele>0.8</ele><time>2026-04-25T14:58:15.561Z</time></trkpt><trkpt lat="45.3003023" lon="11.7480356"><ele>1.0</ele><time>2026-04-25T14:58:17.561Z</time></trkpt><trkpt lat="45.3002254" lon="11.7479519"><ele>0.9999999999999999</ele><time>2026-04-25T14:58:19.56Z</time></trkpt><trkpt lat="45.3001499" lon="11.7478624"><ele>1.0</ele><time>2026-04-25T14:58:21.56Z</time></trkpt><trkpt lat="45.3000781" lon="11.7477946"><ele>1.0</ele><time>2026-04-25T14:58:23.56Z</time></trkpt><trkpt lat="45.3000175" lon="11.7477313"><ele>1.0</ele><time>2026-04-25T14:58:25.56Z</time></trkpt><trkpt lat="45.299932" lon="11.7477155"><ele>0.9999999999999999</ele><time>2026-04-25T14:58:28.56Z</time></trkpt><trkpt lat="45.2998714" lon="11.7477766"><ele>1.0</ele><time>2026-04-25T14:58:31.56Z</time></trkpt><trkpt lat="45.2998267" lon="11.7478854"><ele>0.9999999999999999</ele><time>2026-04-25T14:58:34.56Z</time></trkpt><trkpt lat="45.2997796" lon="11.7479542"><ele>1.0</ele><time>2026-04-25T14:58:36.559Z</time></trkpt><trkpt lat="45.2997367" lon="11.7480375"><ele>1.0</ele><time>2026-04-25T14:58:38.559Z</time></trkpt><trkpt lat="45.2996966" lon="11.7481278"><ele>1.0</ele><time>2026-04-25T14:58:40.56Z</time></trkpt><trkpt lat="45.2996476" lon="11.7482232"><ele>0.9999999999999999</ele><time>2026-04-25T14:58:42.561Z</time></trkpt><trkpt lat="45.2995943" lon="11.7483232"><ele>1.0</ele><time>2026-04-25T14:58:44.559Z</time></trkpt><trkpt lat="45.2995338" lon="11.748426"><ele>1.1666666666666665</ele><time>2026-04-25T14:58:46.559Z</time></trkpt><trkpt lat="45.2994856" lon="11.7485313"><ele>1.3333333333333333</ele><time>2026-04-25T14:58:48.559Z</time></trkpt><trkpt lat="45.299432" lon="11.7486199"><ele>1.5</ele><time>2026-04-25T14:58:50.559Z</time></trkpt><trkpt lat="45.2993845" lon="11.7487206"><ele>1.6666666666666665</ele><time>2026-04-25T14:58:52.56Z</time></trkpt><trkpt lat="45.2993425" lon="11.7488284"><ele>1.8333333333333333</ele><time>2026-04-25T14:58:54.56Z</time></trkpt><trkpt lat="45.2992972" lon="11.7489267"><ele>2.0</ele><time>2026-04-25T14:58:56.559Z</time></trkpt><trkpt lat="45.2992429" lon="11.7490166"><ele>1.9999999999999998</ele><time>2026-04-25T14:58:58.56Z</time></trkpt><trkpt lat="45.2991907" lon="11.7491162"><ele>2.0</ele><time>2026-04-25T14:59:00.56Z</time></trkpt><trkpt lat="45.2991382" lon="11.749215"><ele>2.0</ele><time>2026-04-25T14:59:02.559Z</time></trkpt><trkpt lat="45.2990853" lon="11.7493183"><ele>2.0</ele><time>2026-04-25T14:59:04.559Z</time></trkpt><trkpt lat="45.2990283" lon="11.7494183"><ele>1.9999999999999998</ele><time>2026-04-25T14:59:06.56Z</time></trkpt><trkpt lat="45.2989754" lon="11.7495202"><ele>2.0</ele><time>2026-04-25T14:59:08.56Z</time></trkpt><trkpt lat="45.2989199" lon="11.7496188"><ele>1.9999999999999998</ele><time>2026-04-25T14:59:10.559Z</time></trkpt><trkpt lat="45.2988722" lon="11.7497218"><ele>2.0</ele><time>2026-04-25T14:59:12.559Z</time></trkpt><trkpt lat="45.2988177" lon="11.7498193"><ele>2.0</ele><time>2026-04-25T14:59:14.559Z</time></trkpt><trkpt lat="45.2987629" lon="11.7499164"><ele>2.0</ele><time>2026-04-25T14:59:16.559Z</time></trkpt><trkpt lat="45.2987142" lon="11.7500175"><ele>1.9999999999999998</ele><time>2026-04-25T14:59:18.56Z</time></trkpt><trkpt lat="45.2986589" lon="11.7501127"><ele>2.0</ele><time>2026-04-25T14:59:20.56Z</time></trkpt><trkpt lat="45.2986164" lon="11.7502315"><ele>2.4000000000000004</ele><time>2026-04-25T14:59:22.56Z</time></trkpt><trkpt lat="45.298577" lon="11.7503523"><ele>2.8000000000000003</ele><time>2026-04-25T14:59:24.56Z</time></trkpt><trkpt lat="45.2985279" lon="11.7504633"><ele>3.2</ele><time>2026-04-25T14:59:26.559Z</time></trkpt><trkpt lat="45.29847" lon="11.7505751"><ele>3.6</ele><time>2026-04-25T14:59:28.559Z</time></trkpt><trkpt lat="45.2984145" lon="11.7506786"><ele>4.0</ele><time>2026-04-25T14:59:30.559Z</time></trkpt><trkpt lat="45.2983569" lon="11.7507908"><ele>3.9999999999999996</ele><time>2026-04-25T14:59:32.559Z</time></trkpt><trkpt lat="45.2982998" lon="11.7508891"><ele>4.0</ele><time>2026-04-25T14:59:34.559Z</time></trkpt><trkpt lat="45.2982496" lon="11.750992"><ele>4.0</ele><time>2026-04-25T14:59:36.559Z</time></trkpt><trkpt lat="45.2981962" lon="11.7510905"><ele>4.0</ele><time>2026-04-25T14:59:38.56Z</time></trkpt><trkpt lat="45.2981524" lon="11.7511789"><ele>3.9999999999999996</ele><time>2026-04-25T14:59:40.56Z</time></trkpt><trkpt lat="45.2981099" lon="11.7512573"><ele>4.0</ele><time>2026-04-25T14:59:42.559Z</time></trkpt><trkpt lat="45.2980629" lon="11.7513529"><ele>3.6666666666666665</ele><time>2026-04-25T14:59:45.559Z</time></trkpt><trkpt lat="45.2979761" lon="11.7514086"><ele>3.333333333333333</ele><time>2026-04-25T14:59:48.56Z</time></trkpt><trkpt lat="45.2979072" lon="11.7513555"><ele>3.0</ele><time>2026-04-25T14:59:50.559Z</time></trkpt><trkpt lat="45.2978656" lon="11.7512622"><ele>2.6666666666666665</ele><time>2026-04-25T14:59:52.559Z</time></trkpt><trkpt lat="45.2978184" lon="11.7511912"><ele>2.333333333333333</ele><time>2026-04-25T14:59:54.559Z</time></trkpt><trkpt lat="45.2977465" lon="11.7511069"><ele>2.0</ele><time>2026-04-25T14:59:57.559Z</time></trkpt><trkpt lat="45.2976953" lon="11.7510338"><ele>1.9999999999999998</ele><time>2026-04-25T14:59:59.56Z</time></trkpt><trkpt lat="45.2976332" lon="11.750962"><ele>2.0</ele><time>2026-04-25T15:00:01.56Z</time></trkpt><trkpt lat="45.2975657" lon="11.7508911"><ele>2.0</ele><time>2026-04-25T15:00:03.56Z</time></trkpt><trkpt lat="45.2974962" lon="11.7508193"><ele>2.0</ele><time>2026-04-25T15:00:05.56Z</time></trkpt><trkpt lat="45.2974255" lon="11.750749"><ele>1.9999999999999998</ele><time>2026-04-25T15:00:07.559Z</time></trkpt><trkpt lat="45.2973564" lon="11.7506751"><ele>2.0</ele><time>2026-04-25T15:00:09.56Z</time></trkpt><trkpt lat="45.2972875" lon="11.7505991"><ele>1.6666666666666665</ele><time>2026-04-25T15:00:11.559Z</time></trkpt><trkpt lat="45.2972214" lon="11.7505254"><ele>1.3333333333333333</ele><time>2026-04-25T15:00:13.559Z</time></trkpt><trkpt lat="45.2971548" lon="11.7504571"><ele>1.0</ele><time>2026-04-25T15:00:15.559Z</time></trkpt><trkpt lat="45.2970871" lon="11.7503925"><ele>0.6666666666666666</ele><time>2026-04-25T15:00:17.559Z</time></trkpt><trkpt lat="45.2970206" lon="11.7503211"><ele>0.3333333333333333</ele><time>2026-04-25T15:00:19.56Z</time></trkpt><trkpt lat="45.2969504" lon="11.7502533"><ele>0.0</ele><time>2026-04-25T15:00:21.559Z</time></trkpt><trkpt lat="45.2968814" lon="11.7501837"><ele>0.0</ele><time>2026-04-25T15:00:23.56Z</time></trkpt><trkpt lat="45.2968152" lon="11.7501118"><ele>0.0</ele><time>2026-04-25T15:00:25.559Z</time></trkpt><trkpt lat="45.2967529" lon="11.7500453"><ele>0.0</ele><time>2026-04-25T15:00:27.559Z</time></trkpt><trkpt lat="45.296693" lon="11.7499794"><ele>0.0</ele><time>2026-04-25T15:00:29.56Z</time></trkpt><trkpt lat="45.2966313" lon="11.7499168"><ele>0.0</ele><time>2026-04-25T15:00:31.559Z</time></trkpt><trkpt lat="45.2965755" lon="11.7498543"><ele>0.0</ele><time>2026-04-25T15:00:33.56Z</time></trkpt><trkpt lat="45.2965124" lon="11.7497873"><ele>0.0</ele><time>2026-04-25T15:00:36.559Z</time></trkpt><trkpt lat="45.2964454" lon="11.7497561"><ele>0.0</ele><time>2026-04-25T15:00:40.56Z</time></trkpt><trkpt lat="45.2965172" lon="11.749793"><ele>0.0</ele><time>2026-04-25T15:00:51.56Z</time></trkpt><trkpt lat="45.2965734" lon="11.7498633"><ele>0.0</ele><time>2026-04-25T15:00:55.559Z</time></trkpt><trkpt lat="45.2966294" lon="11.7499166"><ele>0.0</ele><time>2026-04-25T15:00:58.559Z</time></trkpt><trkpt lat="45.2966889" lon="11.7500035"><ele>0.0</ele><time>2026-04-25T15:01:01.559Z</time></trkpt><trkpt lat="45.2967611" lon="11.7500815"><ele>0.0</ele><time>2026-04-25T15:01:04.559Z</time></trkpt><trkpt lat="45.2968141" lon="11.7501347"><ele>0.0</ele><time>2026-04-25T15:01:06.56Z</time></trkpt><trkpt lat="45.2968676" lon="11.7501949"><ele>0.0</ele><time>2026-04-25T15:01:08.559Z</time></trkpt><trkpt lat="45.2969243" lon="11.7502515"><ele>0.0</ele><time>2026-04-25T15:01:10.559Z</time></trkpt><trkpt lat="45.2969819" lon="11.7503099"><ele>0.0</ele><time>2026-04-25T15:01:12.56Z</time></trkpt><trkpt lat="45.2970423" lon="11.7503635"><ele>0.0</ele><time>2026-04-25T15:01:14.56Z</time></trkpt><trkpt lat="45.297101" lon="11.7504215"><ele>0.0</ele><time>2026-04-25T15:01:16.56Z</time></trkpt><trkpt lat="45.2971595" lon="11.7504887"><ele>0.0</ele><time>2026-04-25T15:01:18.56Z</time></trkpt><trkpt lat="45.2972186" lon="11.7505525"><ele>0.0</ele><time>2026-04-25T15:01:20.56Z</time></trkpt><trkpt lat="45.2972765" lon="11.750624"><ele>0.0</ele><time>2026-04-25T15:01:22.559Z</time></trkpt><trkpt lat="45.2973379" lon="11.7506851"><ele>0.0</ele><time>2026-04-25T15:01:24.56Z</time></trkpt><trkpt lat="45.2973982" lon="11.7507502"><ele>0.0</ele><time>2026-04-25T15:01:26.559Z</time></trkpt><trkpt lat="45.2974603" lon="11.7508125"><ele>0.0</ele><time>2026-04-25T15:01:28.559Z</time></trkpt><trkpt lat="45.2975197" lon="11.7508745"><ele>0.14285714285714285</ele><time>2026-04-25T15:01:30.56Z</time></trkpt><trkpt lat="45.2975799" lon="11.7509357"><ele>0.2857142857142857</ele><time>2026-04-25T15:01:32.561Z</time></trkpt><trkpt lat="45.2976346" lon="11.7510016"><ele>0.42857142857142855</ele><time>2026-04-25T15:01:34.559Z</time></trkpt><trkpt lat="45.2976915" lon="11.7510643"><ele>0.5714285714285714</ele><time>2026-04-25T15:01:36.559Z</time></trkpt><trkpt lat="45.2977431" lon="11.7511298"><ele>0.7142857142857142</ele><time>2026-04-25T15:01:38.559Z</time></trkpt><trkpt lat="45.297794" lon="11.7511915"><ele>0.8571428571428571</ele><time>2026-04-25T15:01:40.56Z</time></trkpt><trkpt lat="45.2978413" lon="11.7512573"><ele>1.0</ele><time>2026-04-25T15:01:42.56Z</time></trkpt><trkpt lat="45.2978894" lon="11.7513275"><ele>0.9999999999999999</ele><time>2026-04-25T15:01:44.559Z</time></trkpt><trkpt lat="45.2979405" lon="11.7513846"><ele>1.0</ele><time>2026-04-25T15:01:46.559Z</time></trkpt><trkpt lat="45.2980165" lon="11.7514214"><ele>1.0</ele><time>2026-04-25T15:01:49.56Z</time></trkpt><trkpt lat="45.2980772" lon="11.7513506"><ele>1.0</ele><time>2026-04-25T15:01:52.559Z</time></trkpt><trkpt lat="45.2981213" lon="11.7512546"><ele>0.9999999999999999</ele><time>2026-04-25T15:01:55.559Z</time></trkpt><trkpt lat="45.2981647" lon="11.7511701"><ele>1.0</ele><time>2026-04-25T15:01:57.559Z</time></trkpt><trkpt lat="45.2982102" lon="11.7510806"><ele>1.5</ele><time>2026-04-25T15:01:59.559Z</time></trkpt><trkpt lat="45.298251" lon="11.7509829"><ele>2.0</ele><time>2026-04-25T15:02:01.561Z</time></trkpt><trkpt lat="45.2983005" lon="11.7508885"><ele>2.5</ele><time>2026-04-25T15:02:03.559Z</time></trkpt><trkpt lat="45.2983503" lon="11.7507935"><ele>3.0</ele><time>2026-04-25T15:02:05.559Z</time></trkpt><trkpt lat="45.2983994" lon="11.7506998"><ele>3.4999999999999996</ele><time>2026-04-25T15:02:07.56Z</time></trkpt><trkpt lat="45.298457" lon="11.7506127"><ele>4.0</ele><time>2026-04-25T15:02:09.559Z</time></trkpt><trkpt lat="45.2985101" lon="11.7505204"><ele>3.9999999999999996</ele><time>2026-04-25T15:02:11.56Z</time></trkpt><trkpt lat="45.2985576" lon="11.7504222"><ele>4.0</ele><time>2026-04-25T15:02:13.56Z</time></trkpt><trkpt lat="45.2985956" lon="11.7503181"><ele>4.0</ele><time>2026-04-25T15:02:15.559Z</time></trkpt><trkpt lat="45.2986309" lon="11.7502169"><ele>4.0</ele><time>2026-04-25T15:02:17.56Z</time></trkpt><trkpt lat="45.2986727" lon="11.7501212"><ele>3.9999999999999996</ele><time>2026-04-25T15:02:19.559Z</time></trkpt><trkpt lat="45.2987193" lon="11.7500328"><ele>4.0</ele><time>2026-04-25T15:02:21.561Z</time></trkpt><trkpt lat="45.298767" lon="11.7499448"><ele>3.6666666666666665</ele><time>2026-04-25T15:02:23.559Z</time></trkpt><trkpt lat="45.2988163" lon="11.7498541"><ele>3.333333333333333</ele><time>2026-04-25T15:02:25.558Z</time></trkpt><trkpt lat="45.2988651" lon="11.7497621"><ele>3.0</ele><time>2026-04-25T15:02:27.559Z</time></trkpt><trkpt lat="45.2989127" lon="11.7496675"><ele>2.6666666666666665</ele><time>2026-04-25T15:02:29.558Z</time></trkpt><trkpt lat="45.2989605" lon="11.7495752"><ele>2.333333333333333</ele><time>2026-04-25T15:02:31.558Z</time></trkpt><trkpt lat="45.2990066" lon="11.7494829"><ele>2.0</ele><time>2026-04-25T15:02:33.558Z</time></trkpt><trkpt lat="45.2990608" lon="11.7493958"><ele>1.9999999999999998</ele><time>2026-04-25T15:02:35.559Z</time></trkpt><trkpt lat="45.2991093" lon="11.7492911"><ele>2.0</ele><time>2026-04-25T15:02:37.558Z</time></trkpt><trkpt lat="45.2991648" lon="11.7491935"><ele>2.0</ele><time>2026-04-25T15:02:39.559Z</time></trkpt><trkpt lat="45.2992186" lon="11.7490928"><ele>2.0</ele><time>2026-04-25T15:02:41.558Z</time></trkpt><trkpt lat="45.2992741" lon="11.7489932"><ele>1.9999999999999998</ele><time>2026-04-25T15:02:43.558Z</time></trkpt><trkpt lat="45.2993249" lon="11.7488909"><ele>2.0</ele><time>2026-04-25T15:02:45.558Z</time></trkpt><trkpt lat="45.2993727" lon="11.7487783"><ele>2.0</ele><time>2026-04-25T15:02:47.558Z</time></trkpt><trkpt lat="45.2994205" lon="11.7486597"><ele>2.0</ele><time>2026-04-25T15:02:49.559Z</time></trkpt><trkpt lat="45.29948" lon="11.7485519"><ele>2.0</ele><time>2026-04-25T15:02:51.559Z</time></trkpt><trkpt lat="45.2995453" lon="11.7484496"><ele>2.0</ele><time>2026-04-25T15:02:53.559Z</time></trkpt><trkpt lat="45.299594" lon="11.748339"><ele>2.0</ele><time>2026-04-25T15:02:55.559Z</time></trkpt><trkpt lat="45.2996519" lon="11.7482445"><ele>2.1666666666666665</ele><time>2026-04-25T15:02:57.559Z</time></trkpt><trkpt lat="45.2997085" lon="11.7481451"><ele>2.333333333333333</ele><time>2026-04-25T15:02:59.559Z</time></trkpt><trkpt lat="45.2997553" lon="11.7480346"><ele>2.5</ele><time>2026-04-25T15:03:01.558Z</time></trkpt><trkpt lat="45.299803" lon="11.7479432"><ele>2.6666666666666665</ele><time>2026-04-25T15:03:03.558Z</time></trkpt><trkpt lat="45.2998471" lon="11.7478657"><ele>2.8333333333333335</ele><time>2026-04-25T15:03:05.558Z</time></trkpt><trkpt lat="45.2998877" lon="11.7477866"><ele>3.0</ele><time>2026-04-25T15:03:07.558Z</time></trkpt><trkpt lat="45.299948" lon="11.7477344"><ele>2.6</ele><time>2026-04-25T15:03:09.558Z</time></trkpt><trkpt lat="45.3000256" lon="11.7477546"><ele>2.1999999999999997</ele><time>2026-04-25T15:03:11.559Z</time></trkpt><trkpt lat="45.3000967" lon="11.7478398"><ele>1.8</ele><time>2026-04-25T15:03:13.558Z</time></trkpt><trkpt lat="45.3001733" lon="11.7479247"><ele>1.4</ele><time>2026-04-25T15:03:15.558Z</time></trkpt><trkpt lat="45.3002534" lon="11.7480139"><ele>1.0</ele><time>2026-04-25T15:03:17.558Z</time></trkpt><trkpt lat="45.300336" lon="11.7481088"><ele>1.0</ele><time>2026-04-25T15:03:19.558Z</time></trkpt><trkpt lat="45.3004252" lon="11.7482068"><ele>1.0</ele><time>2026-04-25T15:03:21.558Z</time></trkpt><trkpt lat="45.3005148" lon="11.7483153"><ele>1.0</ele><time>2026-04-25T15:03:23.558Z</time></trkpt><trkpt lat="45.3006082" lon="11.7484193"><ele>1.0</ele><time>2026-04-25T15:03:25.559Z</time></trkpt><trkpt lat="45.3007021" lon="11.748525"><ele>0.8</ele><time>2026-04-25T15:03:27.558Z</time></trkpt><trkpt lat="45.3007924" lon="11.7486217"><ele>0.6000000000000001</ele><time>2026-04-25T15:03:29.56Z</time></trkpt><trkpt lat="45.3008782" lon="11.7487201"><ele>0.4</ele><time>2026-04-25T15:03:31.558Z</time></trkpt><trkpt lat="45.3009643" lon="11.7488178"><ele>0.2</ele><time>2026-04-25T15:03:33.558Z</time></trkpt><trkpt lat="45.3010489" lon="11.7489174"><ele>0.0</ele><time>2026-04-25T15:03:35.558Z</time></trkpt><trkpt lat="45.301133" lon="11.749013"><ele>0.0</ele><time>2026-04-25T15:03:37.558Z</time></trkpt><trkpt lat="45.301218" lon="11.7491006"><ele>0.0</ele><time>2026-04-25T15:03:39.558Z</time></trkpt><trkpt lat="45.3012876" lon="11.7491813"><ele>0.0</ele><time>2026-04-25T15:03:41.558Z</time></trkpt><trkpt lat="45.3013107" lon="11.7492892"><ele>0.0</ele><time>2026-04-25T15:03:44.559Z</time></trkpt><trkpt lat="45.3012895" lon="11.7494"><ele>0.0</ele><time>2026-04-25T15:03:48.558Z</time></trkpt><trkpt lat="45.3012503" lon="11.7495137"><ele>0.0</ele><time>2026-04-25T15:03:51.559Z</time></trkpt><trkpt lat="45.3012241" lon="11.749613"><ele>0.4</ele><time>2026-04-25T15:03:53.559Z</time></trkpt><trkpt lat="45.3012048" lon="11.7497295"><ele>0.8</ele><time>2026-04-25T15:03:55.558Z</time></trkpt><trkpt lat="45.3011769" lon="11.7498578"><ele>1.2000000000000002</ele><time>2026-04-25T15:03:57.559Z</time></trkpt><trkpt lat="45.3011423" lon="11.7500038"><ele>1.6</ele><time>2026-04-25T15:03:59.558Z</time></trkpt><trkpt lat="45.3011129" lon="11.7501549"><ele>2.0</ele><time>2026-04-25T15:04:01.558Z</time></trkpt><trkpt lat="45.3010794" lon="11.7503048"><ele>2.0</ele><time>2026-04-25T15:04:03.558Z</time></trkpt><trkpt lat="45.3010495" lon="11.7504496"><ele>2.0</ele><time>2026-04-25T15:04:05.558Z</time></trkpt><trkpt lat="45.3010209" lon="11.7505927"><ele>2.0</ele><time>2026-04-25T15:04:07.56Z</time></trkpt><trkpt lat="45.3009883" lon="11.7507271"><ele>2.0</ele><time>2026-04-25T15:04:09.558Z</time></trkpt><trkpt lat="45.3009588" lon="11.750861"><ele>2.0</ele><time>2026-04-25T15:04:11.559Z</time></trkpt><trkpt lat="45.3009335" lon="11.7509888"><ele>1.8</ele><time>2026-04-25T15:04:13.558Z</time></trkpt><trkpt lat="45.3009005" lon="11.7511211"><ele>1.6</ele><time>2026-04-25T15:04:15.558Z</time></trkpt><trkpt lat="45.3008729" lon="11.7512497"><ele>1.4000000000000001</ele><time>2026-04-25T15:04:17.558Z</time></trkpt><trkpt lat="45.3008425" lon="11.7513813"><ele>1.2000000000000002</ele><time>2026-04-25T15:04:19.559Z</time></trkpt><trkpt lat="45.3008136" lon="11.7515104"><ele>1.0</ele><time>2026-04-25T15:04:21.559Z</time></trkpt><trkpt lat="45.3007848" lon="11.7516456"><ele>1.0</ele><time>2026-04-25T15:04:23.558Z</time></trkpt><trkpt lat="45.3007554" lon="11.7517761"><ele>1.0</ele><time>2026-04-25T15:04:25.558Z</time></trkpt><trkpt lat="45.300725" lon="11.7519063"><ele>1.0</ele><time>2026-04-25T15:04:27.558Z</time></trkpt><trkpt lat="45.3006967" lon="11.7520366"><ele>1.0</ele><time>2026-04-25T15:04:29.558Z</time></trkpt><trkpt lat="45.3006706" lon="11.7521637"><ele>1.0</ele><time>2026-04-25T15:04:31.56Z</time></trkpt><trkpt lat="45.3006431" lon="11.7522889"><ele>0.8</ele><time>2026-04-25T15:04:33.558Z</time></trkpt><trkpt lat="45.3006107" lon="11.7524174"><ele>0.6000000000000001</ele><time>2026-04-25T15:04:35.558Z</time></trkpt><trkpt lat="45.3005869" lon="11.7525437"><ele>0.4</ele><time>2026-04-25T15:04:37.558Z</time></trkpt><trkpt lat="45.3005596" lon="11.7526699"><ele>0.2</ele><time>2026-04-25T15:04:39.56Z</time></trkpt><trkpt lat="45.3005296" lon="11.7527969"><ele>0.0</ele><time>2026-04-25T15:04:41.559Z</time></trkpt><trkpt lat="45.3005019" lon="11.7529265"><ele>0.4</ele><time>2026-04-25T15:04:43.56Z</time></trkpt><trkpt lat="45.3004769" lon="11.7530591"><ele>0.8</ele><time>2026-04-25T15:04:45.558Z</time></trkpt><trkpt lat="45.3004456" lon="11.7532033"><ele>1.2000000000000002</ele><time>2026-04-25T15:04:47.559Z</time></trkpt><trkpt lat="45.3004236" lon="11.7533454"><ele>1.6</ele><time>2026-04-25T15:04:49.559Z</time></trkpt><trkpt lat="45.3003839" lon="11.753478"><ele>2.0</ele><time>2026-04-25T15:04:51.558Z</time></trkpt><trkpt lat="45.30037" lon="11.7536073"><ele>2.1666666666666665</ele><time>2026-04-25T15:04:53.559Z</time></trkpt><trkpt lat="45.3003611" lon="11.7537253"><ele>2.333333333333333</ele><time>2026-04-25T15:04:56.558Z</time></trkpt><trkpt lat="45.3003542" lon="11.7538221"><ele>2.5</ele><time>2026-04-25T15:04:59.56Z</time></trkpt><trkpt lat="45.3003331" lon="11.7539452"><ele>2.6666666666666665</ele><time>2026-04-25T15:05:02.558Z</time></trkpt><trkpt lat="45.300348" lon="11.7540567"><ele>2.8333333333333335</ele><time>2026-04-25T15:05:05.558Z</time></trkpt><trkpt lat="45.3003843" lon="11.7541571"><ele>3.0</ele><time>2026-04-25T15:05:09.558Z</time></trkpt><trkpt lat="45.3003362" lon="11.7542644"><ele>2.9999999999999996</ele><time>2026-04-25T15:05:12.559Z</time></trkpt><trkpt lat="45.3003017" lon="11.7543448"><ele>3.0</ele><time>2026-04-25T15:05:14.559Z</time></trkpt><trkpt lat="45.3002682" lon="11.754427"><ele>3.0</ele><time>2026-04-25T15:05:16.558Z</time></trkpt><trkpt lat="45.300235" lon="11.7545123"><ele>3.0</ele><time>2026-04-25T15:05:18.558Z</time></trkpt><trkpt lat="45.3001987" lon="11.7545978"><ele>3.0</ele><time>2026-04-25T15:05:20.558Z</time></trkpt><trkpt lat="45.3001634" lon="11.7546856"><ele>2.9999999999999996</ele><time>2026-04-25T15:05:22.558Z</time></trkpt><trkpt lat="45.300126" lon="11.7547735"><ele>3.0</ele><time>2026-04-25T15:05:24.558Z</time></trkpt><trkpt lat="45.3000942" lon="11.754852"><ele>3.1428571428571423</ele><time>2026-04-25T15:05:26.559Z</time></trkpt><trkpt lat="45.3000595" lon="11.7549348"><ele>3.2857142857142856</ele><time>2026-04-25T15:05:28.558Z</time></trkpt><trkpt lat="45.3000267" lon="11.7550156"><ele>3.4285714285714284</ele><time>2026-04-25T15:05:30.558Z</time></trkpt><trkpt lat="45.299995" lon="11.7550937"><ele>3.571428571428571</ele><time>2026-04-25T15:05:32.559Z</time></trkpt><trkpt lat="45.2999619" lon="11.7551704"><ele>3.714285714285714</ele><time>2026-04-25T15:05:34.559Z</time></trkpt><trkpt lat="45.2999185" lon="11.7552815"><ele>3.8571428571428568</ele><time>2026-04-25T15:05:37.558Z</time></trkpt><trkpt lat="45.2998551" lon="11.7553146"><ele>4.0</ele><time>2026-04-25T15:05:41.558Z</time></trkpt><trkpt lat="45.2998015" lon="11.7552609"><ele>3.8000000000000003</ele><time>2026-04-25T15:05:45.559Z</time></trkpt><trkpt lat="45.2997367" lon="11.7552217"><ele>3.6000000000000005</ele><time>2026-04-25T15:05:47.559Z</time></trkpt><trkpt lat="45.2996653" lon="11.7552904"><ele>3.4</ele><time>2026-04-25T15:05:49.559Z</time></trkpt><trkpt lat="45.2995996" lon="11.7553731"><ele>3.2</ele><time>2026-04-25T15:05:51.559Z</time></trkpt><trkpt lat="45.2995099" lon="11.7554466"><ele>3.0</ele><time>2026-04-25T15:05:53.558Z</time></trkpt><trkpt lat="45.2994133" lon="11.7555192"><ele>3.0</ele><time>2026-04-25T15:05:55.56Z</time></trkpt><trkpt lat="45.2993103" lon="11.7555982"><ele>3.0</ele><time>2026-04-25T15:05:57.559Z</time></trkpt><trkpt lat="45.299208" lon="11.75569"><ele>3.0</ele><time>2026-04-25T15:05:59.558Z</time></trkpt><trkpt lat="45.2991009" lon="11.755777"><ele>3.0</ele><time>2026-04-25T15:06:01.559Z</time></trkpt><trkpt lat="45.2989913" lon="11.7558671"><ele>3.2</ele><time>2026-04-25T15:06:03.558Z</time></trkpt><trkpt lat="45.298885" lon="11.7559673"><ele>3.4</ele><time>2026-04-25T15:06:05.558Z</time></trkpt><trkpt lat="45.2988267" lon="11.7560094"><ele>3.6000000000000005</ele><time>2026-04-25T15:06:06.559Z</time></trkpt><trkpt lat="45.2987703" lon="11.7560555"><ele>3.8000000000000003</ele><time>2026-04-25T15:06:07.558Z</time></trkpt><trkpt lat="45.2986636" lon="11.7561429"><ele>4.0</ele><time>2026-04-25T15:06:09.558Z</time></trkpt><trkpt lat="45.2985528" lon="11.7562261"><ele>4.25</ele><time>2026-04-25T15:06:11.559Z</time></trkpt><trkpt lat="45.2984463" lon="11.7563119"><ele>4.5</ele><time>2026-04-25T15:06:13.56Z</time></trkpt><trkpt lat="45.2983456" lon="11.7564012"><ele>4.75</ele><time>2026-04-25T15:06:15.557Z</time></trkpt><trkpt lat="45.2982463" lon="11.7564898"><ele>5.0</ele><time>2026-04-25T15:06:17.558Z</time></trkpt><trkpt lat="45.2981442" lon="11.7565701"><ele>4.25</ele><time>2026-04-25T15:06:19.558Z</time></trkpt><trkpt lat="45.2980461" lon="11.7566561"><ele>3.5</ele><time>2026-04-25T15:06:21.557Z</time></trkpt><trkpt lat="45.2979464" lon="11.7567421"><ele>2.75</ele><time>2026-04-25T15:06:23.557Z</time></trkpt><trkpt lat="45.2978469" lon="11.7568213"><ele>2.0</ele><time>2026-04-25T15:06:25.557Z</time></trkpt><trkpt lat="45.2977469" lon="11.7569009"><ele>2.0</ele><time>2026-04-25T15:06:27.557Z</time></trkpt><trkpt lat="45.2976439" lon="11.7569799"><ele>2.0</ele><time>2026-04-25T15:06:29.557Z</time></trkpt><trkpt lat="45.297543" lon="11.7570572"><ele>2.0</ele><time>2026-04-25T15:06:31.557Z</time></trkpt><trkpt lat="45.2974421" lon="11.7571373"><ele>2.0</ele><time>2026-04-25T15:06:33.558Z</time></trkpt><trkpt lat="45.2973436" lon="11.7572178"><ele>1.75</ele><time>2026-04-25T15:06:35.559Z</time></trkpt><trkpt lat="45.2972395" lon="11.7573056"><ele>1.5</ele><time>2026-04-25T15:06:37.557Z</time></trkpt><trkpt lat="45.2971355" lon="11.7573939"><ele>1.25</ele><time>2026-04-25T15:06:39.557Z</time></trkpt><trkpt lat="45.2970368" lon="11.7574781"><ele>1.0</ele><time>2026-04-25T15:06:41.557Z</time></trkpt><trkpt lat="45.2969378" lon="11.7575611"><ele>1.0</ele><time>2026-04-25T15:06:43.557Z</time></trkpt><trkpt lat="45.2968391" lon="11.7576404"><ele>1.0</ele><time>2026-04-25T15:06:45.558Z</time></trkpt><trkpt lat="45.2967423" lon="11.7577224"><ele>1.0</ele><time>2026-04-25T15:06:47.557Z</time></trkpt><trkpt lat="45.2966478" lon="11.7578001"><ele>1.0</ele><time>2026-04-25T15:06:49.557Z</time></trkpt><trkpt lat="45.2965521" lon="11.7578746"><ele>1.0</ele><time>2026-04-25T15:06:51.557Z</time></trkpt><trkpt lat="45.2964603" lon="11.7579492"><ele>1.4</ele><time>2026-04-25T15:06:53.558Z</time></trkpt><trkpt lat="45.2963683" lon="11.7580258"><ele>1.8</ele><time>2026-04-25T15:06:55.558Z</time></trkpt><trkpt lat="45.2962758" lon="11.7580986"><ele>2.1999999999999997</ele><time>2026-04-25T15:06:57.558Z</time></trkpt><trkpt lat="45.296187" lon="11.7581748"><ele>2.6</ele><time>2026-04-25T15:06:59.558Z</time></trkpt><trkpt lat="45.2960973" lon="11.7582481"><ele>3.0</ele><time>2026-04-25T15:07:01.557Z</time></trkpt><trkpt lat="45.2960061" lon="11.7583178"><ele>3.0</ele><time>2026-04-25T15:07:03.558Z</time></trkpt><trkpt lat="45.2959139" lon="11.7583942"><ele>3.0</ele><time>2026-04-25T15:07:05.557Z</time></trkpt><trkpt lat="45.2958208" lon="11.7584639"><ele>3.0</ele><time>2026-04-25T15:07:07.557Z</time></trkpt><trkpt lat="45.2957281" lon="11.7585442"><ele>3.0</ele><time>2026-04-25T15:07:09.558Z</time></trkpt><trkpt lat="45.2956393" lon="11.7586197"><ele>3.0</ele><time>2026-04-25T15:07:11.557Z</time></trkpt><trkpt lat="45.2955521" lon="11.7586881"><ele>3.2</ele><time>2026-04-25T15:07:13.558Z</time></trkpt><trkpt lat="45.2954689" lon="11.7587619"><ele>3.4</ele><time>2026-04-25T15:07:15.558Z</time></trkpt><trkpt lat="45.2953815" lon="11.7588345"><ele>3.6000000000000005</ele><time>2026-04-25T15:07:17.558Z</time></trkpt><trkpt lat="45.2952903" lon="11.758906"><ele>3.8000000000000003</ele><time>2026-04-25T15:07:19.558Z</time></trkpt><trkpt lat="45.2951972" lon="11.758976"><ele>4.0</ele><time>2026-04-25T15:07:21.557Z</time></trkpt><trkpt lat="45.2951084" lon="11.7590508"><ele>4.0</ele><time>2026-04-25T15:07:23.557Z</time></trkpt><trkpt lat="45.2950196" lon="11.7591226"><ele>4.0</ele><time>2026-04-25T15:07:25.558Z</time></trkpt><trkpt lat="45.2949306" lon="11.7591916"><ele>4.0</ele><time>2026-04-25T15:07:27.557Z</time></trkpt><trkpt lat="45.2948421" lon="11.7592619"><ele>4.0</ele><time>2026-04-25T15:07:29.557Z</time></trkpt><trkpt lat="45.2947513" lon="11.7593355"><ele>4.0</ele><time>2026-04-25T15:07:31.558Z</time></trkpt><trkpt lat="45.2946615" lon="11.759402"><ele>3.6</ele><time>2026-04-25T15:07:33.557Z</time></trkpt><trkpt lat="45.2945734" lon="11.7594738"><ele>3.2</ele><time>2026-04-25T15:07:35.557Z</time></trkpt><trkpt lat="45.2944844" lon="11.7595484"><ele>2.8000000000000003</ele><time>2026-04-25T15:07:37.558Z</time></trkpt><trkpt lat="45.2943945" lon="11.7596172"><ele>2.4000000000000004</ele><time>2026-04-25T15:07:39.558Z</time></trkpt><trkpt lat="45.294304" lon="11.7596858"><ele>2.0</ele><time>2026-04-25T15:07:41.557Z</time></trkpt><trkpt lat="45.2942152" lon="11.7597638"><ele>2.0</ele><time>2026-04-25T15:07:43.557Z</time></trkpt><trkpt lat="45.2941261" lon="11.7598405"><ele>2.0</ele><time>2026-04-25T15:07:45.557Z</time></trkpt><trkpt lat="45.2940371" lon="11.7599218"><ele>2.0</ele><time>2026-04-25T15:07:47.557Z</time></trkpt><trkpt lat="45.2939526" lon="11.76"><ele>2.0</ele><time>2026-04-25T15:07:49.557Z</time></trkpt><trkpt lat="45.293862" lon="11.7600728"><ele>2.0</ele><time>2026-04-25T15:07:51.557Z</time></trkpt><trkpt lat="45.2937716" lon="11.7601517"><ele>1.8</ele><time>2026-04-25T15:07:53.558Z</time></trkpt><trkpt lat="45.2936754" lon="11.7602233"><ele>1.6</ele><time>2026-04-25T15:07:55.557Z</time></trkpt><trkpt lat="45.2935799" lon="11.7602981"><ele>1.4000000000000001</ele><time>2026-04-25T15:07:57.557Z</time></trkpt><trkpt lat="45.2934889" lon="11.7603719"><ele>1.2000000000000002</ele><time>2026-04-25T15:07:59.558Z</time></trkpt><trkpt lat="45.2933987" lon="11.7604449"><ele>1.0</ele><time>2026-04-25T15:08:01.558Z</time></trkpt><trkpt lat="45.293307" lon="11.7605155"><ele>1.0</ele><time>2026-04-25T15:08:03.557Z</time></trkpt><trkpt lat="45.2932136" lon="11.7605893"><ele>1.0</ele><time>2026-04-25T15:08:05.557Z</time></trkpt><trkpt lat="45.2931197" lon="11.7606646"><ele>1.0</ele><time>2026-04-25T15:08:07.557Z</time></trkpt><trkpt lat="45.2930299" lon="11.7607451"><ele>1.0</ele><time>2026-04-25T15:08:09.558Z</time></trkpt><trkpt lat="45.2929399" lon="11.7608156"><ele>1.0</ele><time>2026-04-25T15:08:11.559Z</time></trkpt><trkpt lat="45.2928504" lon="11.7608929"><ele>1.0</ele><time>2026-04-25T15:08:13.557Z</time></trkpt><trkpt lat="45.292756" lon="11.7609674"><ele>1.0</ele><time>2026-04-25T15:08:15.557Z</time></trkpt><trkpt lat="45.2926649" lon="11.7610411"><ele>1.0</ele><time>2026-04-25T15:08:17.558Z</time></trkpt><trkpt lat="45.2925754" lon="11.7611093"><ele>1.0</ele><time>2026-04-25T15:08:19.557Z</time></trkpt><trkpt lat="45.2924856" lon="11.7611779"><ele>1.0</ele><time>2026-04-25T15:08:21.558Z</time></trkpt><trkpt lat="45.2924015" lon="11.7612525"><ele>1.4</ele><time>2026-04-25T15:08:23.557Z</time></trkpt><trkpt lat="45.2923144" lon="11.7613168"><ele>1.8</ele><time>2026-04-25T15:08:25.558Z</time></trkpt><trkpt lat="45.2922294" lon="11.7613826"><ele>2.1999999999999997</ele><time>2026-04-25T15:08:27.558Z</time></trkpt><trkpt lat="45.2921454" lon="11.7614438"><ele>2.6</ele><time>2026-04-25T15:08:29.557Z</time></trkpt><trkpt lat="45.2920565" lon="11.761502"><ele>3.0</ele><time>2026-04-25T15:08:31.558Z</time></trkpt><trkpt lat="45.2919688" lon="11.7615674"><ele>3.0</ele><time>2026-04-25T15:08:33.557Z</time></trkpt><trkpt lat="45.2918861" lon="11.761634"><ele>3.0</ele><time>2026-04-25T15:08:35.557Z</time></trkpt><trkpt lat="45.2918038" lon="11.7616968"><ele>3.0</ele><time>2026-04-25T15:08:37.557Z</time></trkpt><trkpt lat="45.2917233" lon="11.7617683"><ele>3.0</ele><time>2026-04-25T15:08:39.559Z</time></trkpt><trkpt lat="45.2916412" lon="11.7618368"><ele>3.0</ele><time>2026-04-25T15:08:41.557Z</time></trkpt><trkpt lat="45.2915611" lon="11.7618992"><ele>3.4</ele><time>2026-04-25T15:08:43.557Z</time></trkpt><trkpt lat="45.2914824" lon="11.7619689"><ele>3.8</ele><time>2026-04-25T15:08:45.557Z</time></trkpt><trkpt lat="45.2913999" lon="11.7620308"><ele>4.2</ele><time>2026-04-25T15:08:47.557Z</time></trkpt><trkpt lat="45.2913183" lon="11.7620967"><ele>4.6</ele><time>2026-04-25T15:08:49.557Z</time></trkpt><trkpt lat="45.2912376" lon="11.7621598"><ele>5.0</ele><time>2026-04-25T15:08:51.558Z</time></trkpt><trkpt lat="45.2911555" lon="11.7622225"><ele>4.333333333333334</ele><time>2026-04-25T15:08:53.557Z</time></trkpt><trkpt lat="45.2910813" lon="11.7622843"><ele>3.666666666666667</ele><time>2026-04-25T15:08:55.557Z</time></trkpt><trkpt lat="45.291003" lon="11.7623411"><ele>3.0</ele><time>2026-04-25T15:08:57.557Z</time></trkpt><trkpt lat="45.2909262" lon="11.7623971"><ele>2.3333333333333335</ele><time>2026-04-25T15:08:59.557Z</time></trkpt><trkpt lat="45.2908484" lon="11.7624567"><ele>1.6666666666666665</ele><time>2026-04-25T15:09:01.557Z</time></trkpt><trkpt lat="45.2907712" lon="11.7625164"><ele>1.0</ele><time>2026-04-25T15:09:03.558Z</time></trkpt><trkpt lat="45.2906946" lon="11.7625729"><ele>1.0</ele><time>2026-04-25T15:09:05.557Z</time></trkpt><trkpt lat="45.2906132" lon="11.7625957"><ele>0.9999999999999999</ele><time>2026-04-25T15:09:07.557Z</time></trkpt><trkpt lat="45.2905336" lon="11.7625749"><ele>1.0</ele><time>2026-04-25T15:09:09.557Z</time></trkpt><trkpt lat="45.2904639" lon="11.7625677"><ele>1.0</ele><time>2026-04-25T15:09:11.557Z</time></trkpt><trkpt lat="45.2903898" lon="11.7625806"><ele>0.9999999999999999</ele><time>2026-04-25T15:09:14.557Z</time></trkpt><trkpt lat="45.2903255" lon="11.7625925"><ele>1.0</ele><time>2026-04-25T15:09:18.557Z</time></trkpt><trkpt lat="45.2903905" lon="11.7625941"><ele>1.0</ele><time>2026-04-25T15:09:28.558Z</time></trkpt><trkpt lat="45.2904613" lon="11.7625708"><ele>1.0</ele><time>2026-04-25T15:09:31.558Z</time></trkpt><trkpt lat="45.2905419" lon="11.7625746"><ele>0.9999999999999999</ele><time>2026-04-25T15:09:34.558Z</time></trkpt><trkpt lat="45.2906107" lon="11.7626111"><ele>1.0</ele><time>2026-04-25T15:09:37.558Z</time></trkpt><trkpt lat="45.29061" lon="11.7627164"><ele>1.0</ele><time>2026-04-25T15:09:42.557Z</time></trkpt><trkpt lat="45.2906763" lon="11.7626787"><ele>0.9999999999999999</ele><time>2026-04-25T15:09:55.557Z</time></trkpt><trkpt lat="45.290706" lon="11.7625896"><ele>1.0</ele><time>2026-04-25T15:10:01.558Z</time></trkpt><trkpt lat="45.2906401" lon="11.7625863"><ele>1.0</ele><time>2026-04-25T15:10:05.558Z</time></trkpt><trkpt lat="45.2905702" lon="11.7625799"><ele>1.1666666666666665</ele><time>2026-04-25T15:10:08.557Z</time></trkpt><trkpt lat="45.2904972" lon="11.7625584"><ele>1.3333333333333333</ele><time>2026-04-25T15:10:11.557Z</time></trkpt><trkpt lat="45.2904227" lon="11.762574"><ele>1.5</ele><time>2026-04-25T15:10:14.556Z</time></trkpt><trkpt lat="45.2903451" lon="11.7625902"><ele>1.6666666666666665</ele><time>2026-04-25T15:10:17.557Z</time></trkpt><trkpt lat="45.2902642" lon="11.7625694"><ele>1.8333333333333333</ele><time>2026-04-25T15:10:20.557Z</time></trkpt><trkpt lat="45.2901961" lon="11.7624814"><ele>2.0</ele><time>2026-04-25T15:10:23.557Z</time></trkpt><trkpt lat="45.2901466" lon="11.7624187"><ele>2.0</ele><time>2026-04-25T15:10:25.556Z</time></trkpt><trkpt lat="45.290094" lon="11.7623628"><ele>1.9999999999999998</ele><time>2026-04-25T15:10:27.558Z</time></trkpt><trkpt lat="45.2900439" lon="11.7623024"><ele>2.0</ele><time>2026-04-25T15:10:29.557Z</time></trkpt><trkpt lat="45.2899945" lon="11.7622428"><ele>2.0</ele><time>2026-04-25T15:10:31.556Z</time></trkpt><trkpt lat="45.2899442" lon="11.7621853"><ele>1.9999999999999998</ele><time>2026-04-25T15:10:33.557Z</time></trkpt><trkpt lat="45.2898929" lon="11.7621243"><ele>2.0</ele><time>2026-04-25T15:10:35.557Z</time></trkpt><trkpt lat="45.2898403" lon="11.7620664"><ele>2.0</ele><time>2026-04-25T15:10:37.557Z</time></trkpt><trkpt lat="45.2897887" lon="11.7620057"><ele>1.7142857142857142</ele><time>2026-04-25T15:10:39.556Z</time></trkpt><trkpt lat="45.2897338" lon="11.7619432"><ele>1.4285714285714284</ele><time>2026-04-25T15:10:41.556Z</time></trkpt><trkpt lat="45.2896804" lon="11.7618796"><ele>1.1428571428571428</ele><time>2026-04-25T15:10:43.556Z</time></trkpt><trkpt lat="45.2896258" lon="11.7618145"><ele>0.8571428571428571</ele><time>2026-04-25T15:10:45.556Z</time></trkpt><trkpt lat="45.2895702" lon="11.7617517"><ele>0.5714285714285714</ele><time>2026-04-25T15:10:47.557Z</time></trkpt><trkpt lat="45.2895145" lon="11.7616873"><ele>0.2857142857142857</ele><time>2026-04-25T15:10:49.557Z</time></trkpt><trkpt lat="45.2894587" lon="11.7616247"><ele>0.0</ele><time>2026-04-25T15:10:51.556Z</time></trkpt><trkpt lat="45.2894045" lon="11.7615598"><ele>-0.14285714285714285</ele><time>2026-04-25T15:10:53.556Z</time></trkpt><trkpt lat="45.2893493" lon="11.7614972"><ele>-0.2857142857142857</ele><time>2026-04-25T15:10:55.556Z</time></trkpt><trkpt lat="45.289294" lon="11.7614354"><ele>-0.42857142857142855</ele><time>2026-04-25T15:10:57.556Z</time></trkpt><trkpt lat="45.2892397" lon="11.7613717"><ele>-0.5714285714285714</ele><time>2026-04-25T15:10:59.556Z</time></trkpt><trkpt lat="45.2891848" lon="11.7613091"><ele>-0.7142857142857142</ele><time>2026-04-25T15:11:01.556Z</time></trkpt><trkpt lat="45.2891321" lon="11.7612497"><ele>-0.8571428571428571</ele><time>2026-04-25T15:11:03.556Z</time></trkpt><trkpt lat="45.2890609" lon="11.7611683"><ele>-1.0</ele><time>2026-04-25T15:11:06.557Z</time></trkpt><trkpt lat="45.289024" lon="11.7610943"><ele>-0.9999999999999999</ele><time>2026-04-25T15:11:09.556Z</time></trkpt><trkpt lat="45.2889781" lon="11.7610291"><ele>-1.0</ele><time>2026-04-25T15:11:19.556Z</time></trkpt><trkpt lat="45.2889243" lon="11.760948"><ele>-1.0</ele><time>2026-04-25T15:11:23.557Z</time></trkpt><trkpt lat="45.2888617" lon="11.7608925"><ele>-1.0</ele><time>2026-04-25T15:11:26.556Z</time></trkpt><trkpt lat="45.2887924" lon="11.7608281"><ele>-0.9999999999999999</ele><time>2026-04-25T15:11:29.556Z</time></trkpt><trkpt lat="45.2887267" lon="11.760745"><ele>-1.0</ele><time>2026-04-25T15:11:32.557Z</time></trkpt><trkpt lat="45.2886585" lon="11.7606677"><ele>-0.6000000000000001</ele><time>2026-04-25T15:11:35.556Z</time></trkpt><trkpt lat="45.2885892" lon="11.7605906"><ele>-0.20000000000000007</ele><time>2026-04-25T15:11:38.556Z</time></trkpt><trkpt lat="45.2885159" lon="11.7605087"><ele>0.20000000000000007</ele><time>2026-04-25T15:11:41.556Z</time></trkpt><trkpt lat="45.2884455" lon="11.7604235"><ele>0.6000000000000001</ele><time>2026-04-25T15:11:44.556Z</time></trkpt><trkpt lat="45.2883775" lon="11.7603452"><ele>1.0</ele><time>2026-04-25T15:11:47.557Z</time></trkpt><trkpt lat="45.2883097" lon="11.7602552"><ele>0.9999999999999999</ele><time>2026-04-25T15:11:50.556Z</time></trkpt><trkpt lat="45.2882418" lon="11.7601688"><ele>1.0</ele><time>2026-04-25T15:11:53.556Z</time></trkpt><trkpt lat="45.2881718" lon="11.7600808"><ele>1.0</ele><time>2026-04-25T15:11:56.556Z</time></trkpt><trkpt lat="45.2881254" lon="11.760019"><ele>1.0</ele><time>2026-04-25T15:11:58.556Z</time></trkpt><trkpt lat="45.2880784" lon="11.7599586"><ele>0.9999999999999999</ele><time>2026-04-25T15:12:00.556Z</time></trkpt><trkpt lat="45.2880106" lon="11.7598704"><ele>1.0</ele><time>2026-04-25T15:12:03.556Z</time></trkpt><trkpt lat="45.2879427" lon="11.7597882"><ele>1.1666666666666665</ele><time>2026-04-25T15:12:06.556Z</time></trkpt><trkpt lat="45.2878782" lon="11.7597083"><ele>1.3333333333333333</ele><time>2026-04-25T15:12:09.556Z</time></trkpt><trkpt lat="45.2878099" lon="11.7596262"><ele>1.5</ele><time>2026-04-25T15:12:12.556Z</time></trkpt><trkpt lat="45.2877428" lon="11.7595439"><ele>1.6666666666666665</ele><time>2026-04-25T15:12:15.558Z</time></trkpt><trkpt lat="45.2876742" lon="11.7594648"><ele>1.8333333333333333</ele><time>2026-04-25T15:12:18.556Z</time></trkpt><trkpt lat="45.2876291" lon="11.7593977"><ele>2.0</ele><time>2026-04-25T15:12:21.556Z</time></trkpt><trkpt lat="45.2876327" lon="11.7594937"><ele>1.9999999999999998</ele><time>2026-04-25T15:12:39.556Z</time></trkpt><trkpt lat="45.2877021" lon="11.7595665"><ele>2.0</ele><time>2026-04-25T15:12:42.558Z</time></trkpt><trkpt lat="45.2877709" lon="11.759648"><ele>2.0</ele><time>2026-04-25T15:12:45.557Z</time></trkpt><trkpt lat="45.2878432" lon="11.7597304"><ele>2.0</ele><time>2026-04-25T15:12:48.556Z</time></trkpt><trkpt lat="45.2879091" lon="11.7598058"><ele>1.9999999999999998</ele><time>2026-04-25T15:12:51.556Z</time></trkpt><trkpt lat="45.2879727" lon="11.7598792"><ele>2.0</ele><time>2026-04-25T15:12:54.556Z</time></trkpt><trkpt lat="45.2880403" lon="11.7599582"><ele>1.8333333333333333</ele><time>2026-04-25T15:12:57.556Z</time></trkpt><trkpt lat="45.2881096" lon="11.7600374"><ele>1.6666666666666665</ele><time>2026-04-25T15:13:00.556Z</time></trkpt><trkpt lat="45.2881757" lon="11.7601158"><ele>1.5</ele><time>2026-04-25T15:13:03.556Z</time></trkpt><trkpt lat="45.2882362" lon="11.7601854"><ele>1.3333333333333333</ele><time>2026-04-25T15:13:06.556Z</time></trkpt><trkpt lat="45.2883084" lon="11.7602641"><ele>1.1666666666666665</ele><time>2026-04-25T15:13:09.556Z</time></trkpt><trkpt lat="45.2883761" lon="11.7603449"><ele>1.0</ele><time>2026-04-25T15:13:12.557Z</time></trkpt><trkpt lat="45.2884451" lon="11.7604274"><ele>0.9999999999999999</ele><time>2026-04-25T15:13:15.556Z</time></trkpt><trkpt lat="45.288517" lon="11.7605062"><ele>1.0</ele><time>2026-04-25T15:13:18.556Z</time></trkpt><trkpt lat="45.2885861" lon="11.7605878"><ele>1.0</ele><time>2026-04-25T15:13:21.557Z</time></trkpt><trkpt lat="45.2886509" lon="11.7606609"><ele>1.0</ele><time>2026-04-25T15:13:24.557Z</time></trkpt><trkpt lat="45.2887152" lon="11.7607326"><ele>0.9999999999999999</ele><time>2026-04-25T15:13:27.556Z</time></trkpt><trkpt lat="45.2887812" lon="11.7608066"><ele>1.0</ele><time>2026-04-25T15:13:30.556Z</time></trkpt><trkpt lat="45.2888454" lon="11.7608727"><ele>1.0</ele><time>2026-04-25T15:13:33.556Z</time></trkpt><trkpt lat="45.2889024" lon="11.7609271"><ele>0.9999999999999999</ele><time>2026-04-25T15:13:36.557Z</time></trkpt><trkpt lat="45.2889519" lon="11.7609914"><ele>1.0</ele><time>2026-04-25T15:13:39.556Z</time></trkpt><trkpt lat="45.2889983" lon="11.7610643"><ele>1.0</ele><time>2026-04-25T15:13:42.556Z</time></trkpt><trkpt lat="45.2890433" lon="11.7611389"><ele>0.9999999999999999</ele><time>2026-04-25T15:13:45.556Z</time></trkpt><trkpt lat="45.2890972" lon="11.7612125"><ele>1.0</ele><time>2026-04-25T15:13:48.556Z</time></trkpt><trkpt lat="45.289156" lon="11.7612829"><ele>1.0</ele><time>2026-04-25T15:13:51.556Z</time></trkpt><trkpt lat="45.2892235" lon="11.7613569"><ele>0.6666666666666666</ele><time>2026-04-25T15:13:54.557Z</time></trkpt><trkpt lat="45.2892949" lon="11.7614397"><ele>0.3333333333333333</ele><time>2026-04-25T15:13:57.556Z</time></trkpt><trkpt lat="45.2893684" lon="11.7615194"><ele>0.0</ele><time>2026-04-25T15:14:00.556Z</time></trkpt><trkpt lat="45.2894395" lon="11.7616046"><ele>-0.3333333333333333</ele><time>2026-04-25T15:14:03.557Z</time></trkpt><trkpt lat="45.2894883" lon="11.7616612"><ele>-0.6666666666666666</ele><time>2026-04-25T15:14:05.556Z</time></trkpt><trkpt lat="45.289539" lon="11.7617193"><ele>-1.0</ele><time>2026-04-25T15:14:07.556Z</time></trkpt><trkpt lat="45.2895892" lon="11.7617798"><ele>-1.0</ele><time>2026-04-25T15:14:09.557Z</time></trkpt><trkpt lat="45.2896388" lon="11.7618401"><ele>-0.9999999999999999</ele><time>2026-04-25T15:14:11.557Z</time></trkpt><trkpt lat="45.2896904" lon="11.761898"><ele>-1.0</ele><time>2026-04-25T15:14:13.557Z</time></trkpt><trkpt lat="45.2897424" lon="11.7619547"><ele>-1.0</ele><time>2026-04-25T15:14:15.555Z</time></trkpt><trkpt lat="45.2897932" lon="11.7620134"><ele>-0.9999999999999999</ele><time>2026-04-25T15:14:17.555Z</time></trkpt><trkpt lat="45.2898427" lon="11.7620717"><ele>-1.0</ele><time>2026-04-25T15:14:19.555Z</time></trkpt><trkpt lat="45.289893" lon="11.762126"><ele>-1.0</ele><time>2026-04-25T15:14:21.556Z</time></trkpt><trkpt lat="45.2899641" lon="11.7622109"><ele>-0.49999999999999994</ele><time>2026-04-25T15:14:24.556Z</time></trkpt><trkpt lat="45.2900345" lon="11.7622933"><ele>0.0</ele><time>2026-04-25T15:14:27.555Z</time></trkpt><trkpt lat="45.2901063" lon="11.7623761"><ele>0.5</ele><time>2026-04-25T15:14:30.557Z</time></trkpt><trkpt lat="45.2901562" lon="11.7624332"><ele>1.0</ele><time>2026-04-25T15:14:32.556Z</time></trkpt><trkpt lat="45.2902056" lon="11.7624903"><ele>1.4999999999999998</ele><time>2026-04-25T15:14:34.556Z</time></trkpt><trkpt lat="45.2902527" lon="11.7625511"><ele>2.0</ele><time>2026-04-25T15:14:36.555Z</time></trkpt><trkpt lat="45.290336" lon="11.762612"><ele>2.0</ele><time>2026-04-25T15:14:39.555Z</time></trkpt><trkpt lat="45.2904018" lon="11.7626014"><ele>1.9999999999999998</ele><time>2026-04-25T15:14:41.555Z</time></trkpt><trkpt lat="45.2904686" lon="11.7625855"><ele>2.0</ele><time>2026-04-25T15:14:43.555Z</time></trkpt><trkpt lat="45.2905354" lon="11.7625837"><ele>2.0</ele><time>2026-04-25T15:14:45.556Z</time></trkpt><trkpt lat="45.2906018" lon="11.7626044"><ele>1.9999999999999998</ele><time>2026-04-25T15:14:47.555Z</time></trkpt><trkpt lat="45.2906674" lon="11.7626062"><ele>2.0</ele><time>2026-04-25T15:14:49.555Z</time></trkpt><trkpt lat="45.290727" lon="11.7625766"><ele>2.0</ele><time>2026-04-25T15:14:51.555Z</time></trkpt><trkpt lat="45.2907858" lon="11.762534"><ele>1.857142857142857</ele><time>2026-04-25T15:14:53.555Z</time></trkpt><trkpt lat="45.2908411" lon="11.7624866"><ele>1.714285714285714</ele><time>2026-04-25T15:14:55.556Z</time></trkpt><trkpt lat="45.2908986" lon="11.7624424"><ele>1.5714285714285714</ele><time>2026-04-25T15:14:57.556Z</time></trkpt><trkpt lat="45.2909614" lon="11.7623949"><ele>1.4285714285714284</ele><time>2026-04-25T15:14:59.555Z</time></trkpt><trkpt lat="45.2910267" lon="11.7623447"><ele>1.2857142857142856</ele><time>2026-04-25T15:15:01.556Z</time></trkpt><trkpt lat="45.2910942" lon="11.7622924"><ele>1.1428571428571428</ele><time>2026-04-25T15:15:03.555Z</time></trkpt><trkpt lat="45.2911643" lon="11.7622347"><ele>1.0</ele><time>2026-04-25T15:15:05.556Z</time></trkpt><trkpt lat="45.2912308" lon="11.7621642"><ele>0.9999999999999999</ele><time>2026-04-25T15:15:07.556Z</time></trkpt><trkpt lat="45.2913085" lon="11.762104"><ele>1.0</ele><time>2026-04-25T15:15:09.555Z</time></trkpt><trkpt lat="45.2913862" lon="11.7620416"><ele>1.0</ele><time>2026-04-25T15:15:11.555Z</time></trkpt><trkpt lat="45.2914631" lon="11.7619836"><ele>1.0</ele><time>2026-04-25T15:15:13.555Z</time></trkpt><trkpt lat="45.2915369" lon="11.761925"><ele>0.9999999999999999</ele><time>2026-04-25T15:15:15.557Z</time></trkpt><trkpt lat="45.2916096" lon="11.7618652"><ele>1.0</ele><time>2026-04-25T15:15:17.556Z</time></trkpt><trkpt lat="45.2916827" lon="11.7618064"><ele>1.3333333333333333</ele><time>2026-04-25T15:15:19.555Z</time></trkpt><trkpt lat="45.2917584" lon="11.7617596"><ele>1.6666666666666665</ele><time>2026-04-25T15:15:21.556Z</time></trkpt><trkpt lat="45.2918334" lon="11.7617052"><ele>2.0</ele><time>2026-04-25T15:15:23.556Z</time></trkpt><trkpt lat="45.2919042" lon="11.7616459"><ele>2.3333333333333335</ele><time>2026-04-25T15:15:25.555Z</time></trkpt><trkpt lat="45.2919752" lon="11.761589"><ele>2.6666666666666665</ele><time>2026-04-25T15:15:27.556Z</time></trkpt><trkpt lat="45.2920475" lon="11.7615308"><ele>3.0</ele><time>2026-04-25T15:15:29.556Z</time></trkpt><trkpt lat="45.2921205" lon="11.761471"><ele>3.0</ele><time>2026-04-25T15:15:31.556Z</time></trkpt><trkpt lat="45.2921961" lon="11.7614122"><ele>3.0</ele><time>2026-04-25T15:15:33.556Z</time></trkpt><trkpt lat="45.2922729" lon="11.7613507"><ele>3.0</ele><time>2026-04-25T15:15:35.555Z</time></trkpt><trkpt lat="45.2923519" lon="11.7612916"><ele>3.0</ele><time>2026-04-25T15:15:37.555Z</time></trkpt><trkpt lat="45.2924319" lon="11.7612293"><ele>3.0</ele><time>2026-04-25T15:15:39.556Z</time></trkpt><trkpt lat="45.2925103" lon="11.7611645"><ele>3.0</ele><time>2026-04-25T15:15:41.556Z</time></trkpt><trkpt lat="45.2925907" lon="11.7611064"><ele>3.2</ele><time>2026-04-25T15:15:43.555Z</time></trkpt><trkpt lat="45.2926684" lon="11.7610413"><ele>3.4</ele><time>2026-04-25T15:15:45.555Z</time></trkpt><trkpt lat="45.2927497" lon="11.7609762"><ele>3.6000000000000005</ele><time>2026-04-25T15:15:47.555Z</time></trkpt><trkpt lat="45.2928321" lon="11.7609106"><ele>3.8000000000000003</ele><time>2026-04-25T15:15:49.556Z</time></trkpt><trkpt lat="45.2929116" lon="11.7608436"><ele>4.0</ele><time>2026-04-25T15:15:51.557Z</time></trkpt><trkpt lat="45.29299" lon="11.7607762"><ele>3.4000000000000004</ele><time>2026-04-25T15:15:53.555Z</time></trkpt><trkpt lat="45.2930711" lon="11.7607129"><ele>2.8000000000000003</ele><time>2026-04-25T15:15:55.556Z</time></trkpt><trkpt lat="45.2931521" lon="11.7606442"><ele>2.2</ele><time>2026-04-25T15:15:57.556Z</time></trkpt><trkpt lat="45.2932348" lon="11.760576"><ele>1.6</ele><time>2026-04-25T15:15:59.556Z</time></trkpt><trkpt lat="45.2933175" lon="11.760513"><ele>1.0</ele><time>2026-04-25T15:16:01.555Z</time></trkpt><trkpt lat="45.2933996" lon="11.760446"><ele>1.0</ele><time>2026-04-25T15:16:03.555Z</time></trkpt><trkpt lat="45.2934815" lon="11.7603841"><ele>1.0</ele><time>2026-04-25T15:16:05.555Z</time></trkpt><trkpt lat="45.2935636" lon="11.7603184"><ele>1.0</ele><time>2026-04-25T15:16:07.556Z</time></trkpt><trkpt lat="45.2936442" lon="11.7602541"><ele>1.0</ele><time>2026-04-25T15:16:09.555Z</time></trkpt><trkpt lat="45.293724" lon="11.7601942"><ele>1.0</ele><time>2026-04-25T15:16:11.556Z</time></trkpt><trkpt lat="45.2938064" lon="11.7601265"><ele>1.0</ele><time>2026-04-25T15:16:13.556Z</time></trkpt><trkpt lat="45.2938909" lon="11.7600623"><ele>1.0</ele><time>2026-04-25T15:16:15.555Z</time></trkpt><trkpt lat="45.2939719" lon="11.7599957"><ele>1.0</ele><time>2026-04-25T15:16:17.555Z</time></trkpt><trkpt lat="45.2940635" lon="11.759922"><ele>1.0</ele><time>2026-04-25T15:16:19.557Z</time></trkpt><trkpt lat="45.294158" lon="11.7598465"><ele>1.0</ele><time>2026-04-25T15:16:21.556Z</time></trkpt><trkpt lat="45.2942544" lon="11.7597692"><ele>1.2000000000000002</ele><time>2026-04-25T15:16:23.555Z</time></trkpt><trkpt lat="45.2943468" lon="11.7596859"><ele>1.4000000000000001</ele><time>2026-04-25T15:16:25.555Z</time></trkpt><trkpt lat="45.2944392" lon="11.7596119"><ele>1.6</ele><time>2026-04-25T15:16:27.555Z</time></trkpt><trkpt lat="45.2945303" lon="11.7595405"><ele>1.8</ele><time>2026-04-25T15:16:29.556Z</time></trkpt><trkpt lat="45.2946209" lon="11.7594717"><ele>2.0</ele><time>2026-04-25T15:16:31.556Z</time></trkpt><trkpt lat="45.294712" lon="11.7594005"><ele>2.4000000000000004</ele><time>2026-04-25T15:16:33.556Z</time></trkpt><trkpt lat="45.2948043" lon="11.7593256"><ele>2.8000000000000003</ele><time>2026-04-25T15:16:35.557Z</time></trkpt><trkpt lat="45.2948959" lon="11.7592567"><ele>3.2</ele><time>2026-04-25T15:16:37.556Z</time></trkpt><trkpt lat="45.2949853" lon="11.7591863"><ele>3.6</ele><time>2026-04-25T15:16:39.555Z</time></trkpt><trkpt lat="45.2950757" lon="11.7591183"><ele>4.0</ele><time>2026-04-25T15:16:41.555Z</time></trkpt><trkpt lat="45.2951641" lon="11.7590468"><ele>4.0</ele><time>2026-04-25T15:16:43.555Z</time></trkpt><trkpt lat="45.2952508" lon="11.7589767"><ele>4.0</ele><time>2026-04-25T15:16:45.556Z</time></trkpt><trkpt lat="45.2953352" lon="11.7589067"><ele>4.0</ele><time>2026-04-25T15:16:47.556Z</time></trkpt><trkpt lat="45.2954167" lon="11.7588349"><ele>4.0</ele><time>2026-04-25T15:16:49.555Z</time></trkpt><trkpt lat="45.295499" lon="11.7587613"><ele>4.0</ele><time>2026-04-25T15:16:51.555Z</time></trkpt><trkpt lat="45.2955823" lon="11.7586959"><ele>3.8000000000000003</ele><time>2026-04-25T15:16:53.555Z</time></trkpt><trkpt lat="45.2956662" lon="11.7586217"><ele>3.6000000000000005</ele><time>2026-04-25T15:16:55.555Z</time></trkpt><trkpt lat="45.2957548" lon="11.7585507"><ele>3.4</ele><time>2026-04-25T15:16:57.555Z</time></trkpt><trkpt lat="45.2958442" lon="11.7584823"><ele>3.2</ele><time>2026-04-25T15:16:59.555Z</time></trkpt><trkpt lat="45.2959325" lon="11.7584084"><ele>3.0</ele><time>2026-04-25T15:17:01.556Z</time></trkpt><trkpt lat="45.2960211" lon="11.7583369"><ele>3.0</ele><time>2026-04-25T15:17:03.557Z</time></trkpt><trkpt lat="45.2961081" lon="11.7582669"><ele>3.0</ele><time>2026-04-25T15:17:05.555Z</time></trkpt><trkpt lat="45.2961964" lon="11.7581946"><ele>3.0</ele><time>2026-04-25T15:17:07.555Z</time></trkpt><trkpt lat="45.2962891" lon="11.7581274"><ele>3.0</ele><time>2026-04-25T15:17:09.555Z</time></trkpt><trkpt lat="45.2963775" lon="11.758055"><ele>3.0</ele><time>2026-04-25T15:17:11.555Z</time></trkpt><trkpt lat="45.2964659" lon="11.7579745"><ele>2.8</ele><time>2026-04-25T15:17:13.555Z</time></trkpt><trkpt lat="45.2965553" lon="11.7578958"><ele>2.5999999999999996</ele><time>2026-04-25T15:17:15.555Z</time></trkpt><trkpt lat="45.2966395" lon="11.7578271"><ele>2.4000000000000004</ele><time>2026-04-25T15:17:17.555Z</time></trkpt><trkpt lat="45.2967272" lon="11.7577548"><ele>2.2</ele><time>2026-04-25T15:17:19.555Z</time></trkpt><trkpt lat="45.2968166" lon="11.7576842"><ele>2.0</ele><time>2026-04-25T15:17:21.556Z</time></trkpt><trkpt lat="45.2969076" lon="11.7576142"><ele>2.0</ele><time>2026-04-25T15:17:23.556Z</time></trkpt><trkpt lat="45.2969978" lon="11.7575399"><ele>2.0</ele><time>2026-04-25T15:17:25.555Z</time></trkpt><trkpt lat="45.2970858" lon="11.7574637"><ele>2.0</ele><time>2026-04-25T15:17:27.556Z</time></trkpt><trkpt lat="45.2971783" lon="11.7573832"><ele>2.0</ele><time>2026-04-25T15:17:29.556Z</time></trkpt><trkpt lat="45.297272" lon="11.7573084"><ele>2.0</ele><time>2026-04-25T15:17:31.556Z</time></trkpt><trkpt lat="45.2973609" lon="11.7572299"><ele>2.0</ele><time>2026-04-25T15:17:33.555Z</time></trkpt><trkpt lat="45.2974555" lon="11.7571557"><ele>2.0</ele><time>2026-04-25T15:17:35.555Z</time></trkpt><trkpt lat="45.297556" lon="11.7570829"><ele>2.0</ele><time>2026-04-25T15:17:37.556Z</time></trkpt><trkpt lat="45.2976509" lon="11.7570029"><ele>2.0</ele><time>2026-04-25T15:17:39.555Z</time></trkpt><trkpt lat="45.297746" lon="11.7569302"><ele>2.0</ele><time>2026-04-25T15:17:41.555Z</time></trkpt><trkpt lat="45.2978391" lon="11.7568554"><ele>2.0</ele><time>2026-04-25T15:17:43.555Z</time></trkpt><trkpt lat="45.2979321" lon="11.7567794"><ele>2.0</ele><time>2026-04-25T15:17:45.556Z</time></trkpt><trkpt lat="45.2980258" lon="11.7567044"><ele>2.0</ele><time>2026-04-25T15:17:47.555Z</time></trkpt><trkpt lat="45.2981176" lon="11.7566262"><ele>2.0</ele><time>2026-04-25T15:17:49.556Z</time></trkpt><trkpt lat="45.2982118" lon="11.7565526"><ele>2.0</ele><time>2026-04-25T15:17:51.555Z</time></trkpt><trkpt lat="45.2983039" lon="11.7564707"><ele>2.6</ele><time>2026-04-25T15:17:53.555Z</time></trkpt><trkpt lat="45.2984011" lon="11.7563929"><ele>3.2</ele><time>2026-04-25T15:17:55.556Z</time></trkpt><trkpt lat="45.2984965" lon="11.7563101"><ele>3.8</ele><time>2026-04-25T15:17:57.555Z</time></trkpt><trkpt lat="45.2985937" lon="11.7562322"><ele>4.4</ele><time>2026-04-25T15:17:59.556Z</time></trkpt><trkpt lat="45.2986891" lon="11.7561486"><ele>5.0</ele><time>2026-04-25T15:18:01.556Z</time></trkpt><trkpt lat="45.2987901" lon="11.7560665"><ele>4.75</ele><time>2026-04-25T15:18:03.556Z</time></trkpt><trkpt lat="45.2988891" lon="11.7559788"><ele>4.5</ele><time>2026-04-25T15:18:05.555Z</time></trkpt><trkpt lat="45.2989877" lon="11.7558918"><ele>4.25</ele><time>2026-04-25T15:18:07.555Z</time></trkpt><trkpt lat="45.2990894" lon="11.7558055"><ele>4.0</ele><time>2026-04-25T15:18:09.556Z</time></trkpt><trkpt lat="45.2991936" lon="11.7557263"><ele>3.75</ele><time>2026-04-25T15:18:11.555Z</time></trkpt><trkpt lat="45.2992954" lon="11.75564"><ele>3.5</ele><time>2026-04-25T15:18:13.554Z</time></trkpt><trkpt lat="45.2993993" lon="11.7555575"><ele>3.25</ele><time>2026-04-25T15:18:15.555Z</time></trkpt><trkpt lat="45.2995017" lon="11.75548"><ele>3.0</ele><time>2026-04-25T15:18:17.554Z</time></trkpt><trkpt lat="45.2995969" lon="11.7553899"><ele>3.0</ele><time>2026-04-25T15:18:19.554Z</time></trkpt><trkpt lat="45.2996781" lon="11.755294"><ele>3.0</ele><time>2026-04-25T15:18:21.554Z</time></trkpt><trkpt lat="45.2997271" lon="11.7552206"><ele>3.0</ele><time>2026-04-25T15:18:23.555Z</time></trkpt><trkpt lat="45.2997943" lon="11.7552416"><ele>3.0</ele><time>2026-04-25T15:18:27.555Z</time></trkpt><trkpt lat="45.2998468" lon="11.7553202"><ele>3.0</ele><time>2026-04-25T15:18:31.556Z</time></trkpt><trkpt lat="45.2998457" lon="11.7554346"><ele>3.0</ele><time>2026-04-25T15:18:35.554Z</time></trkpt><trkpt lat="45.2997906" lon="11.7555381"><ele>2.9999999999999996</ele><time>2026-04-25T15:18:38.554Z</time></trkpt><trkpt lat="45.2997535" lon="11.7556109"><ele>3.0</ele><time>2026-04-25T15:18:40.554Z</time></trkpt><trkpt lat="45.299721" lon="11.7556887"><ele>3.0</ele><time>2026-04-25T15:18:42.555Z</time></trkpt><trkpt lat="45.2996852" lon="11.7557694"><ele>3.0</ele><time>2026-04-25T15:18:44.555Z</time></trkpt><trkpt lat="45.2996453" lon="11.7558505"><ele>3.0</ele><time>2026-04-25T15:18:46.555Z</time></trkpt><trkpt lat="45.2996045" lon="11.7559385"><ele>2.9999999999999996</ele><time>2026-04-25T15:18:48.554Z</time></trkpt><trkpt lat="45.2995612" lon="11.7560304"><ele>3.0</ele><time>2026-04-25T15:18:50.554Z</time></trkpt><trkpt lat="45.2995177" lon="11.7561274"><ele>3.3333333333333335</ele><time>2026-04-25T15:18:52.554Z</time></trkpt><trkpt lat="45.2994786" lon="11.7562297"><ele>3.666666666666667</ele><time>2026-04-25T15:18:54.554Z</time></trkpt><trkpt lat="45.2994439" lon="11.7563354"><ele>4.0</ele><time>2026-04-25T15:18:56.555Z</time></trkpt><trkpt lat="45.2994128" lon="11.7564447"><ele>4.333333333333334</ele><time>2026-04-25T15:18:58.554Z</time></trkpt><trkpt lat="45.2993698" lon="11.7565583"><ele>4.666666666666667</ele><time>2026-04-25T15:19:00.555Z</time></trkpt><trkpt lat="45.2993386" lon="11.7566806"><ele>5.0</ele><time>2026-04-25T15:19:02.555Z</time></trkpt><trkpt lat="45.2993105" lon="11.7568096"><ele>4.6</ele><time>2026-04-25T15:19:04.555Z</time></trkpt><trkpt lat="45.2992736" lon="11.756934"><ele>4.2</ele><time>2026-04-25T15:19:06.554Z</time></trkpt><trkpt lat="45.2992349" lon="11.7570582"><ele>3.8</ele><time>2026-04-25T15:19:08.554Z</time></trkpt><trkpt lat="45.2991888" lon="11.7571734"><ele>3.4</ele><time>2026-04-25T15:19:10.554Z</time></trkpt><trkpt lat="45.2991366" lon="11.7572822"><ele>3.0</ele><time>2026-04-25T15:19:12.554Z</time></trkpt><trkpt lat="45.2990697" lon="11.7573795"><ele>3.0</ele><time>2026-04-25T15:19:14.554Z</time></trkpt><trkpt lat="45.2990069" lon="11.7574828"><ele>3.0</ele><time>2026-04-25T15:19:16.554Z</time></trkpt><trkpt lat="45.2989376" lon="11.7575911"><ele>3.0</ele><time>2026-04-25T15:19:18.554Z</time></trkpt><trkpt lat="45.29887" lon="11.7577064"><ele>3.0</ele><time>2026-04-25T15:19:20.554Z</time></trkpt><trkpt lat="45.2988" lon="11.7578154"><ele>3.0</ele><time>2026-04-25T15:19:22.554Z</time></trkpt><trkpt lat="45.2987249" lon="11.7579331"><ele>3.0</ele><time>2026-04-25T15:19:24.554Z</time></trkpt><trkpt lat="45.2986527" lon="11.7580555"><ele>3.0</ele><time>2026-04-25T15:19:26.554Z</time></trkpt><trkpt lat="45.2985853" lon="11.7581715"><ele>3.0</ele><time>2026-04-25T15:19:28.555Z</time></trkpt><trkpt lat="45.2985206" lon="11.7582973"><ele>3.0</ele><time>2026-04-25T15:19:30.554Z</time></trkpt><trkpt lat="45.2984576" lon="11.7584248"><ele>3.0</ele><time>2026-04-25T15:19:32.554Z</time></trkpt><trkpt lat="45.2983955" lon="11.7585422"><ele>3.0</ele><time>2026-04-25T15:19:34.555Z</time></trkpt><trkpt lat="45.2983313" lon="11.758665"><ele>3.0</ele><time>2026-04-25T15:19:36.554Z</time></trkpt><trkpt lat="45.2982734" lon="11.7587962"><ele>3.0</ele><time>2026-04-25T15:19:38.555Z</time></trkpt><trkpt lat="45.2982145" lon="11.7589257"><ele>3.0</ele><time>2026-04-25T15:19:40.554Z</time></trkpt><trkpt lat="45.2981582" lon="11.7590585"><ele>3.0</ele><time>2026-04-25T15:19:42.555Z</time></trkpt><trkpt lat="45.2981027" lon="11.7591847"><ele>3.2</ele><time>2026-04-25T15:19:44.554Z</time></trkpt><trkpt lat="45.2980508" lon="11.7593157"><ele>3.4</ele><time>2026-04-25T15:19:46.555Z</time></trkpt><trkpt lat="45.2979981" lon="11.7594474"><ele>3.6000000000000005</ele><time>2026-04-25T15:19:48.554Z</time></trkpt><trkpt lat="45.2979493" lon="11.7595782"><ele>3.8000000000000003</ele><time>2026-04-25T15:19:50.555Z</time></trkpt><trkpt lat="45.2979034" lon="11.759707"><ele>4.0</ele><time>2026-04-25T15:19:52.554Z</time></trkpt><trkpt lat="45.2978571" lon="11.7598323"><ele>4.0</ele><time>2026-04-25T15:19:54.555Z</time></trkpt><trkpt lat="45.2978151" lon="11.7599606"><ele>4.0</ele><time>2026-04-25T15:19:56.554Z</time></trkpt><trkpt lat="45.2977736" lon="11.7600771"><ele>4.0</ele><time>2026-04-25T15:19:58.554Z</time></trkpt><trkpt lat="45.2977312" lon="11.7601971"><ele>4.0</ele><time>2026-04-25T15:20:00.554Z</time></trkpt><trkpt lat="45.2976899" lon="11.760314"><ele>4.0</ele><time>2026-04-25T15:20:02.554Z</time></trkpt><trkpt lat="45.2976467" lon="11.7604288"><ele>4.5</ele><time>2026-04-25T15:20:04.554Z</time></trkpt><trkpt lat="45.2976092" lon="11.7605376"><ele>5.0</ele><time>2026-04-25T15:20:06.554Z</time></trkpt><trkpt lat="45.2975716" lon="11.7606385"><ele>5.5</ele><time>2026-04-25T15:20:08.554Z</time></trkpt><trkpt lat="45.2975379" lon="11.760738"><ele>6.0</ele><time>2026-04-25T15:20:10.554Z</time></trkpt><trkpt lat="45.2975" lon="11.7608317"><ele>6.500000000000001</ele><time>2026-04-25T15:20:12.555Z</time></trkpt><trkpt lat="45.2974651" lon="11.7609285"><ele>7.0</ele><time>2026-04-25T15:20:14.554Z</time></trkpt><trkpt lat="45.2974294" lon="11.7610258"><ele>6.833333333333334</ele><time>2026-04-25T15:20:16.554Z</time></trkpt><trkpt lat="45.2973946" lon="11.7611282"><ele>6.666666666666667</ele><time>2026-04-25T15:20:18.554Z</time></trkpt><trkpt lat="45.2973542" lon="11.7612309"><ele>6.5</ele><time>2026-04-25T15:20:20.554Z</time></trkpt><trkpt lat="45.2973067" lon="11.7613353"><ele>6.333333333333334</ele><time>2026-04-25T15:20:22.555Z</time></trkpt><trkpt lat="45.2972534" lon="11.7614444"><ele>6.166666666666667</ele><time>2026-04-25T15:20:24.554Z</time></trkpt><trkpt lat="45.2972063" lon="11.7615441"><ele>6.0</ele><time>2026-04-25T15:20:26.554Z</time></trkpt><trkpt lat="45.2971503" lon="11.7616397"><ele>6.0</ele><time>2026-04-25T15:20:28.554Z</time></trkpt><trkpt lat="45.2970895" lon="11.7617373"><ele>6.0</ele><time>2026-04-25T15:20:30.554Z</time></trkpt><trkpt lat="45.2970189" lon="11.7618244"><ele>6.0</ele><time>2026-04-25T15:20:32.554Z</time></trkpt><trkpt lat="45.2969493" lon="11.7619163"><ele>6.0</ele><time>2026-04-25T15:20:34.554Z</time></trkpt><trkpt lat="45.2968769" lon="11.7620054"><ele>6.0</ele><time>2026-04-25T15:20:36.554Z</time></trkpt><trkpt lat="45.2968085" lon="11.7621062"><ele>6.6</ele><time>2026-04-25T15:20:38.554Z</time></trkpt><trkpt lat="45.296741" lon="11.7622045"><ele>7.199999999999999</ele><time>2026-04-25T15:20:40.554Z</time></trkpt><trkpt lat="45.2966736" lon="11.7623034"><ele>7.800000000000001</ele><time>2026-04-25T15:20:42.555Z</time></trkpt><trkpt lat="45.2966128" lon="11.7624193"><ele>8.4</ele><time>2026-04-25T15:20:44.555Z</time></trkpt><trkpt lat="45.2965587" lon="11.7625412"><ele>9.0</ele><time>2026-04-25T15:20:46.556Z</time></trkpt><trkpt lat="45.2965116" lon="11.7626622"><ele>9.4</ele><time>2026-04-25T15:20:48.555Z</time></trkpt><trkpt lat="45.296461" lon="11.7627765"><ele>9.8</ele><time>2026-04-25T15:20:50.554Z</time></trkpt><trkpt lat="45.2963969" lon="11.76288"><ele>10.200000000000001</ele><time>2026-04-25T15:20:52.554Z</time></trkpt><trkpt lat="45.2963211" lon="11.7629666"><ele>10.600000000000001</ele><time>2026-04-25T15:20:54.554Z</time></trkpt><trkpt lat="45.2962308" lon="11.7630417"><ele>11.0</ele><time>2026-04-25T15:20:56.555Z</time></trkpt><trkpt lat="45.2961388" lon="11.7631241"><ele>11.0</ele><time>2026-04-25T15:20:58.555Z</time></trkpt><trkpt lat="45.2960479" lon="11.7631972"><ele>11.0</ele><time>2026-04-25T15:21:00.554Z</time></trkpt><trkpt lat="45.2959572" lon="11.763276"><ele>11.0</ele><time>2026-04-25T15:21:02.554Z</time></trkpt><trkpt lat="45.2958665" lon="11.7633637"><ele>11.0</ele><time>2026-04-25T15:21:04.554Z</time></trkpt><trkpt lat="45.2957807" lon="11.7634552"><ele>11.0</ele><time>2026-04-25T15:21:06.555Z</time></trkpt><trkpt lat="45.2956938" lon="11.763546"><ele>10.200000000000001</ele><time>2026-04-25T15:21:08.554Z</time></trkpt><trkpt lat="45.2956038" lon="11.7636314"><ele>9.4</ele><time>2026-04-25T15:21:10.554Z</time></trkpt><trkpt lat="45.2955212" lon="11.7637302"><ele>8.6</ele><time>2026-04-25T15:21:12.555Z</time></trkpt><trkpt lat="45.2954427" lon="11.7638324"><ele>7.8</ele><time>2026-04-25T15:21:14.555Z</time></trkpt><trkpt lat="45.2953672" lon="11.7639372"><ele>7.0</ele><time>2026-04-25T15:21:16.554Z</time></trkpt><trkpt lat="45.2953009" lon="11.7640527"><ele>7.0</ele><time>2026-04-25T15:21:18.554Z</time></trkpt><trkpt lat="45.2952378" lon="11.7641698"><ele>6.999999999999999</ele><time>2026-04-25T15:21:20.554Z</time></trkpt><trkpt lat="45.2951857" lon="11.7642899"><ele>6.999999999999999</ele><time>2026-04-25T15:21:22.554Z</time></trkpt><trkpt lat="45.2951368" lon="11.7644136"><ele>7.0</ele><time>2026-04-25T15:21:24.555Z</time></trkpt><trkpt lat="45.2950888" lon="11.7645383"><ele>7.0</ele><time>2026-04-25T15:21:26.555Z</time></trkpt><trkpt lat="45.2950522" lon="11.7646728"><ele>8.6</ele><time>2026-04-25T15:21:28.554Z</time></trkpt><trkpt lat="45.2950202" lon="11.7648099"><ele>10.2</ele><time>2026-04-25T15:21:30.554Z</time></trkpt><trkpt lat="45.2949903" lon="11.7649453"><ele>11.8</ele><time>2026-04-25T15:21:32.554Z</time></trkpt><trkpt lat="45.2949692" lon="11.7650916"><ele>13.4</ele><time>2026-04-25T15:21:34.556Z</time></trkpt><trkpt lat="45.2949434" lon="11.7652301"><ele>15.0</ele><time>2026-04-25T15:21:36.554Z</time></trkpt><trkpt lat="45.2949179" lon="11.7653672"><ele>15.8</ele><time>2026-04-25T15:21:38.555Z</time></trkpt><trkpt lat="45.2948841" lon="11.7655045"><ele>16.6</ele><time>2026-04-25T15:21:40.555Z</time></trkpt><trkpt lat="45.2948395" lon="11.7656407"><ele>17.4</ele><time>2026-04-25T15:21:42.554Z</time></trkpt><trkpt lat="45.2947859" lon="11.7657618"><ele>18.2</ele><time>2026-04-25T15:21:44.554Z</time></trkpt><trkpt lat="45.2947187" lon="11.7658689"><ele>19.0</ele><time>2026-04-25T15:21:46.554Z</time></trkpt><trkpt lat="45.2946504" lon="11.7659745"><ele>16.599999999999998</ele><time>2026-04-25T15:21:48.555Z</time></trkpt><trkpt lat="45.2945777" lon="11.7660784"><ele>14.2</ele><time>2026-04-25T15:21:50.554Z</time></trkpt><trkpt lat="45.2945063" lon="11.7661806"><ele>11.799999999999999</ele><time>2026-04-25T15:21:52.556Z</time></trkpt><trkpt lat="45.2944406" lon="11.7662849"><ele>9.399999999999999</ele><time>2026-04-25T15:21:54.555Z</time></trkpt><trkpt lat="45.2943824" lon="11.7663927"><ele>7.0</ele><time>2026-04-25T15:21:56.555Z</time></trkpt><trkpt lat="45.2943364" lon="11.7665065"><ele>7.0</ele><time>2026-04-25T15:21:58.555Z</time></trkpt><trkpt lat="45.2942861" lon="11.7666215"><ele>6.999999999999999</ele><time>2026-04-25T15:22:00.554Z</time></trkpt><trkpt lat="45.2942449" lon="11.7667404"><ele>6.999999999999999</ele><time>2026-04-25T15:22:02.554Z</time></trkpt><trkpt lat="45.2942127" lon="11.7668645"><ele>7.0</ele><time>2026-04-25T15:22:04.555Z</time></trkpt><trkpt lat="45.2941814" lon="11.7669915"><ele>7.0</ele><time>2026-04-25T15:22:06.555Z</time></trkpt><trkpt lat="45.2941527" lon="11.7671268"><ele>7.0</ele><time>2026-04-25T15:22:08.556Z</time></trkpt><trkpt lat="45.2941177" lon="11.7672679"><ele>6.999999999999999</ele><time>2026-04-25T15:22:10.554Z</time></trkpt><trkpt lat="45.2940916" lon="11.7674105"><ele>6.999999999999999</ele><time>2026-04-25T15:22:12.554Z</time></trkpt><trkpt lat="45.2940513" lon="11.7675552"><ele>7.0</ele><time>2026-04-25T15:22:14.553Z</time></trkpt><trkpt lat="45.2940112" lon="11.7677101"><ele>7.0</ele><time>2026-04-25T15:22:16.553Z</time></trkpt><trkpt lat="45.2939712" lon="11.7678549"><ele>7.0</ele><time>2026-04-25T15:22:18.553Z</time></trkpt><trkpt lat="45.2939258" lon="11.7679898"><ele>6.999999999999999</ele><time>2026-04-25T15:22:20.553Z</time></trkpt><trkpt lat="45.2938688" lon="11.7681181"><ele>6.999999999999999</ele><time>2026-04-25T15:22:22.553Z</time></trkpt><trkpt lat="45.2938115" lon="11.7682364"><ele>7.0</ele><time>2026-04-25T15:22:24.553Z</time></trkpt><trkpt lat="45.2937525" lon="11.7683485"><ele>7.0</ele><time>2026-04-25T15:22:26.554Z</time></trkpt><trkpt lat="45.2936884" lon="11.7684514"><ele>7.8</ele><time>2026-04-25T15:22:28.555Z</time></trkpt><trkpt lat="45.2936107" lon="11.7685489"><ele>8.6</ele><time>2026-04-25T15:22:30.554Z</time></trkpt><trkpt lat="45.2935336" lon="11.7686353"><ele>9.4</ele><time>2026-04-25T15:22:32.553Z</time></trkpt><trkpt lat="45.2934524" lon="11.768725"><ele>10.200000000000001</ele><time>2026-04-25T15:22:34.554Z</time></trkpt><trkpt lat="45.2933702" lon="11.768804"><ele>11.0</ele><time>2026-04-25T15:22:36.553Z</time></trkpt><trkpt lat="45.2932856" lon="11.7688656"><ele>11.0</ele><time>2026-04-25T15:22:38.554Z</time></trkpt><trkpt lat="45.2931932" lon="11.7689255"><ele>11.0</ele><time>2026-04-25T15:22:40.554Z</time></trkpt><trkpt lat="45.2930934" lon="11.7689719"><ele>11.0</ele><time>2026-04-25T15:22:42.554Z</time></trkpt><trkpt lat="45.292998" lon="11.769024"><ele>11.0</ele><time>2026-04-25T15:22:44.553Z</time></trkpt><trkpt lat="45.2928969" lon="11.76907"><ele>11.0</ele><time>2026-04-25T15:22:46.553Z</time></trkpt><trkpt lat="45.2927991" lon="11.7691123"><ele>11.0</ele><time>2026-04-25T15:22:48.554Z</time></trkpt><trkpt lat="45.2926981" lon="11.76917"><ele>11.0</ele><time>2026-04-25T15:22:50.553Z</time></trkpt><trkpt lat="45.2925996" lon="11.7692285"><ele>11.0</ele><time>2026-04-25T15:22:52.554Z</time></trkpt><trkpt lat="45.2924986" lon="11.7692928"><ele>11.0</ele><time>2026-04-25T15:22:54.553Z</time></trkpt><trkpt lat="45.2924008" lon="11.769369"><ele>11.0</ele><time>2026-04-25T15:22:56.553Z</time></trkpt><trkpt lat="45.2923122" lon="11.7694556"><ele>10.4</ele><time>2026-04-25T15:22:58.554Z</time></trkpt><trkpt lat="45.2922256" lon="11.7695455"><ele>9.8</ele><time>2026-04-25T15:23:00.554Z</time></trkpt><trkpt lat="45.2921436" lon="11.7696495"><ele>9.200000000000001</ele><time>2026-04-25T15:23:02.553Z</time></trkpt><trkpt lat="45.2920667" lon="11.7697474"><ele>8.600000000000001</ele><time>2026-04-25T15:23:04.553Z</time></trkpt><trkpt lat="45.2919937" lon="11.7698458"><ele>8.0</ele><time>2026-04-25T15:23:06.554Z</time></trkpt><trkpt lat="45.2919356" lon="11.769915"><ele>7.999999999999999</ele><time>2026-04-25T15:23:08.554Z</time></trkpt><trkpt lat="45.291889" lon="11.7699757"><ele>8.0</ele><time>2026-04-25T15:23:10.553Z</time></trkpt><trkpt lat="45.2918314" lon="11.7700692"><ele>8.0</ele><time>2026-04-25T15:23:13.554Z</time></trkpt><trkpt lat="45.2917891" lon="11.7701608"><ele>8.0</ele><time>2026-04-25T15:23:15.554Z</time></trkpt><trkpt lat="45.2917417" lon="11.7702657"><ele>7.999999999999999</ele><time>2026-04-25T15:23:17.554Z</time></trkpt><trkpt lat="45.291703" lon="11.77038"><ele>8.0</ele><time>2026-04-25T15:23:19.553Z</time></trkpt><trkpt lat="45.2916717" lon="11.7705116"><ele>8.8</ele><time>2026-04-25T15:23:21.553Z</time></trkpt><trkpt lat="45.2916425" lon="11.7706486"><ele>9.600000000000001</ele><time>2026-04-25T15:23:23.553Z</time></trkpt><trkpt lat="45.2915836" lon="11.770782"><ele>10.399999999999999</ele><time>2026-04-25T15:23:25.554Z</time></trkpt><trkpt lat="45.2915509" lon="11.7709368"><ele>11.2</ele><time>2026-04-25T15:23:27.553Z</time></trkpt><trkpt lat="45.2915281" lon="11.7710973"><ele>12.0</ele><time>2026-04-25T15:23:29.554Z</time></trkpt><trkpt lat="45.2915118" lon="11.7712658"><ele>12.5</ele><time>2026-04-25T15:23:31.553Z</time></trkpt><trkpt lat="45.2914986" lon="11.7714319"><ele>13.0</ele><time>2026-04-25T15:23:33.553Z</time></trkpt><trkpt lat="45.2914897" lon="11.771598"><ele>13.5</ele><time>2026-04-25T15:23:35.553Z</time></trkpt><trkpt lat="45.2914795" lon="11.771762"><ele>14.0</ele><time>2026-04-25T15:23:37.553Z</time></trkpt><trkpt lat="45.2914692" lon="11.7719253"><ele>14.2</ele><time>2026-04-25T15:23:39.554Z</time></trkpt><trkpt lat="45.2914618" lon="11.7720813"><ele>14.399999999999999</ele><time>2026-04-25T15:23:41.553Z</time></trkpt><trkpt lat="45.2914536" lon="11.7722362"><ele>14.6</ele><time>2026-04-25T15:23:43.554Z</time></trkpt><trkpt lat="45.291445" lon="11.7723846"><ele>14.8</ele><time>2026-04-25T15:23:45.555Z</time></trkpt><trkpt lat="45.2914392" lon="11.7725311"><ele>15.0</ele><time>2026-04-25T15:23:47.554Z</time></trkpt><trkpt lat="45.2914314" lon="11.7726778"><ele>13.2</ele><time>2026-04-25T15:23:49.553Z</time></trkpt><trkpt lat="45.291423" lon="11.7728244"><ele>11.4</ele><time>2026-04-25T15:23:51.553Z</time></trkpt><trkpt lat="45.2914141" lon="11.772968"><ele>9.6</ele><time>2026-04-25T15:23:53.553Z</time></trkpt><trkpt lat="45.2914097" lon="11.7731106"><ele>7.8</ele><time>2026-04-25T15:23:55.554Z</time></trkpt><trkpt lat="45.2913984" lon="11.7732476"><ele>6.0</ele><time>2026-04-25T15:23:57.554Z</time></trkpt><trkpt lat="45.2913926" lon="11.7733767"><ele>5.999999999999999</ele><time>2026-04-25T15:23:59.554Z</time></trkpt><trkpt lat="45.2913831" lon="11.7734894"><ele>6.0</ele><time>2026-04-25T15:24:01.554Z</time></trkpt><trkpt lat="45.2913489" lon="11.7735776"><ele>6.0</ele><time>2026-04-25T15:24:03.554Z</time></trkpt><trkpt lat="45.291285" lon="11.773592"><ele>6.0</ele><time>2026-04-25T15:24:05.555Z</time></trkpt><trkpt lat="45.2912231" lon="11.7735449"><ele>6.0</ele><time>2026-04-25T15:24:08.553Z</time></trkpt><trkpt lat="45.2911689" lon="11.7736179"><ele>5.999999999999999</ele><time>2026-04-25T15:24:12.554Z</time></trkpt><trkpt lat="45.2912248" lon="11.7737087"><ele>6.0</ele><time>2026-04-25T15:24:15.553Z</time></trkpt><trkpt lat="45.2912597" lon="11.7738084"><ele>6.166666666666667</ele><time>2026-04-25T15:24:18.553Z</time></trkpt><trkpt lat="45.2912763" lon="11.773895"><ele>6.333333333333334</ele><time>2026-04-25T15:24:20.553Z</time></trkpt><trkpt lat="45.2912739" lon="11.7739948"><ele>6.5</ele><time>2026-04-25T15:24:22.553Z</time></trkpt><trkpt lat="45.2912295" lon="11.7740766"><ele>6.666666666666667</ele><time>2026-04-25T15:24:25.553Z</time></trkpt><trkpt lat="45.291199" lon="11.7742061"><ele>6.833333333333334</ele><time>2026-04-25T15:24:28.553Z</time></trkpt><trkpt lat="45.2911735" lon="11.7743067"><ele>7.0</ele><time>2026-04-25T15:24:30.553Z</time></trkpt><trkpt lat="45.2911488" lon="11.7744121"><ele>7.0</ele><time>2026-04-25T15:24:32.553Z</time></trkpt><trkpt lat="45.2911299" lon="11.7745237"><ele>6.999999999999999</ele><time>2026-04-25T15:24:34.553Z</time></trkpt><trkpt lat="45.2911002" lon="11.7746422"><ele>6.999999999999999</ele><time>2026-04-25T15:24:36.553Z</time></trkpt><trkpt lat="45.2910744" lon="11.7747699"><ele>7.0</ele><time>2026-04-25T15:24:38.554Z</time></trkpt><trkpt lat="45.2910428" lon="11.7748968"><ele>7.0</ele><time>2026-04-25T15:24:40.553Z</time></trkpt><trkpt lat="45.2910103" lon="11.7750223"><ele>7.0</ele><time>2026-04-25T15:24:42.553Z</time></trkpt><trkpt lat="45.2909817" lon="11.7751475"><ele>6.999999999999999</ele><time>2026-04-25T15:24:44.554Z</time></trkpt><trkpt lat="45.2909524" lon="11.7752734"><ele>6.999999999999999</ele><time>2026-04-25T15:24:46.553Z</time></trkpt><trkpt lat="45.2909205" lon="11.7754031"><ele>7.0</ele><time>2026-04-25T15:24:48.553Z</time></trkpt><trkpt lat="45.2908903" lon="11.7755188"><ele>7.0</ele><time>2026-04-25T15:24:50.553Z</time></trkpt><trkpt lat="45.2908614" lon="11.7756647"><ele>7.0</ele><time>2026-04-25T15:24:52.553Z</time></trkpt><trkpt lat="45.2908328" lon="11.7757977"><ele>6.999999999999999</ele><time>2026-04-25T15:24:54.553Z</time></trkpt><trkpt lat="45.2907995" lon="11.7759304"><ele>6.999999999999999</ele><time>2026-04-25T15:24:56.554Z</time></trkpt><trkpt lat="45.2907602" lon="11.7760612"><ele>7.0</ele><time>2026-04-25T15:24:58.554Z</time></trkpt><trkpt lat="45.2907214" lon="11.7761829"><ele>7.0</ele><time>2026-04-25T15:25:00.553Z</time></trkpt><trkpt lat="45.2906646" lon="11.7762943"><ele>7.0</ele><time>2026-04-25T15:25:02.553Z</time></trkpt><trkpt lat="45.2906101" lon="11.7764082"><ele>6.999999999999999</ele><time>2026-04-25T15:25:04.553Z</time></trkpt><trkpt lat="45.2905632" lon="11.7765272"><ele>6.999999999999999</ele><time>2026-04-25T15:25:06.554Z</time></trkpt><trkpt lat="45.2905156" lon="11.7766431"><ele>7.0</ele><time>2026-04-25T15:25:08.553Z</time></trkpt><trkpt lat="45.2904726" lon="11.7767525"><ele>7.0</ele><time>2026-04-25T15:25:10.553Z</time></trkpt><trkpt lat="45.2904325" lon="11.7768441"><ele>7.0</ele><time>2026-04-25T15:25:12.553Z</time></trkpt><trkpt lat="45.2904018" lon="11.7769287"><ele>7.0</ele><time>2026-04-25T15:25:14.554Z</time></trkpt><trkpt lat="45.2903695" lon="11.7770163"><ele>7.0</ele><time>2026-04-25T15:25:16.554Z</time></trkpt><trkpt lat="45.2903304" lon="11.7771041"><ele>7.0</ele><time>2026-04-25T15:25:18.554Z</time></trkpt><trkpt lat="45.2902934" lon="11.7771906"><ele>7.0</ele><time>2026-04-25T15:25:20.554Z</time></trkpt><trkpt lat="45.2902611" lon="11.7772772"><ele>7.0</ele><time>2026-04-25T15:25:22.553Z</time></trkpt><trkpt lat="45.2902241" lon="11.7773593"><ele>7.0</ele><time>2026-04-25T15:25:24.553Z</time></trkpt><trkpt lat="45.2901605" lon="11.7774103"><ele>7.0</ele><time>2026-04-25T15:25:26.553Z</time></trkpt><trkpt lat="45.2900774" lon="11.7774113"><ele>6.999999999999999</ele><time>2026-04-25T15:25:28.553Z</time></trkpt><trkpt lat="45.289988" lon="11.7773558"><ele>6.999999999999999</ele><time>2026-04-25T15:25:30.554Z</time></trkpt><trkpt lat="45.2898928" lon="11.7772825"><ele>7.0</ele><time>2026-04-25T15:25:32.553Z</time></trkpt><trkpt lat="45.2897838" lon="11.7771937"><ele>7.0</ele><time>2026-04-25T15:25:34.554Z</time></trkpt><trkpt lat="45.2897255" lon="11.7771497"><ele>6.857142857142857</ele><time>2026-04-25T15:25:35.553Z</time></trkpt><trkpt lat="45.2896635" lon="11.7771134"><ele>6.714285714285714</ele><time>2026-04-25T15:25:36.554Z</time></trkpt><trkpt lat="45.2895944" lon="11.7771055"><ele>6.571428571428571</ele><time>2026-04-25T15:25:37.553Z</time></trkpt><trkpt lat="45.2895253" lon="11.7771331"><ele>6.428571428571429</ele><time>2026-04-25T15:25:38.554Z</time></trkpt><trkpt lat="45.2894635" lon="11.7771843"><ele>6.285714285714286</ele><time>2026-04-25T15:25:39.554Z</time></trkpt><trkpt lat="45.2894224" lon="11.7772675"><ele>6.142857142857142</ele><time>2026-04-25T15:25:40.553Z</time></trkpt><trkpt lat="45.2893911" lon="11.7773502"><ele>6.0</ele><time>2026-04-25T15:25:41.553Z</time></trkpt><trkpt lat="45.2893607" lon="11.7774289"><ele>6.0</ele><time>2026-04-25T15:25:42.554Z</time></trkpt><trkpt lat="45.2893418" lon="11.7775177"><ele>6.0</ele><time>2026-04-25T15:25:43.553Z</time></trkpt><trkpt lat="45.2893303" lon="11.777608"><ele>6.0</ele><time>2026-04-25T15:25:44.553Z</time></trkpt><trkpt lat="45.2893328" lon="11.7777041"><ele>6.0</ele><time>2026-04-25T15:25:45.554Z</time></trkpt><trkpt lat="45.2893496" lon="11.7777968"><ele>6.0</ele><time>2026-04-25T15:25:46.553Z</time></trkpt><trkpt lat="45.2894122" lon="11.7779375"><ele>6.0</ele><time>2026-04-25T15:25:48.554Z</time></trkpt><trkpt lat="45.2894987" lon="11.7780267"><ele>6.0</ele><time>2026-04-25T15:25:50.553Z</time></trkpt><trkpt lat="45.2895885" lon="11.7780838"><ele>6.0</ele><time>2026-04-25T15:25:52.553Z</time></trkpt><trkpt lat="45.2896568" lon="11.7781352"><ele>6.0</ele><time>2026-04-25T15:25:54.553Z</time></trkpt><trkpt lat="45.2897162" lon="11.7782018"><ele>6.0</ele><time>2026-04-25T15:25:56.553Z</time></trkpt><trkpt lat="45.2897501" lon="11.778297"><ele>6.0</ele><time>2026-04-25T15:25:58.553Z</time></trkpt><trkpt lat="45.2897684" lon="11.7784008"><ele>6.0</ele><time>2026-04-25T15:26:00.554Z</time></trkpt><trkpt lat="45.2898068" lon="11.7784787"><ele>6.8</ele><time>2026-04-25T15:26:02.554Z</time></trkpt><trkpt lat="45.289865" lon="11.7785297"><ele>7.6</ele><time>2026-04-25T15:26:04.554Z</time></trkpt><trkpt lat="45.2899387" lon="11.7785894"><ele>8.4</ele><time>2026-04-25T15:26:06.553Z</time></trkpt><trkpt lat="45.2900169" lon="11.7786841"><ele>9.2</ele><time>2026-04-25T15:26:08.553Z</time></trkpt><trkpt lat="45.290106" lon="11.7787503"><ele>10.0</ele><time>2026-04-25T15:26:10.553Z</time></trkpt><trkpt lat="45.2901923" lon="11.7788163"><ele>10.0</ele><time>2026-04-25T15:26:12.554Z</time></trkpt><trkpt lat="45.2902827" lon="11.7788828"><ele>10.0</ele><time>2026-04-25T15:26:14.554Z</time></trkpt><trkpt lat="45.2903693" lon="11.7789481"><ele>10.0</ele><time>2026-04-25T15:26:16.553Z</time></trkpt><trkpt lat="45.2904535" lon="11.7790112"><ele>10.0</ele><time>2026-04-25T15:26:18.554Z</time></trkpt><trkpt lat="45.2905384" lon="11.7790733"><ele>10.0</ele><time>2026-04-25T15:26:20.554Z</time></trkpt><trkpt lat="45.2906211" lon="11.7791382"><ele>9.666666666666668</ele><time>2026-04-25T15:26:22.555Z</time></trkpt><trkpt lat="45.2907055" lon="11.7791992"><ele>9.333333333333334</ele><time>2026-04-25T15:26:24.554Z</time></trkpt><trkpt lat="45.2907855" lon="11.779262"><ele>9.0</ele><time>2026-04-25T15:26:26.554Z</time></trkpt><trkpt lat="45.2908647" lon="11.7793187"><ele>8.666666666666666</ele><time>2026-04-25T15:26:28.554Z</time></trkpt><trkpt lat="45.2909433" lon="11.7793795"><ele>8.333333333333332</ele><time>2026-04-25T15:26:30.553Z</time></trkpt><trkpt lat="45.2910159" lon="11.7794341"><ele>8.0</ele><time>2026-04-25T15:26:32.552Z</time></trkpt><trkpt lat="45.2910733" lon="11.7794796"><ele>8.0</ele><time>2026-04-25T15:26:34.552Z</time></trkpt><trkpt lat="45.2911312" lon="11.7795148"><ele>7.999999999999999</ele><time>2026-04-25T15:26:37.552Z</time></trkpt><trkpt lat="45.2911938" lon="11.7795575"><ele>8.0</ele><time>2026-04-25T15:26:42.553Z</time></trkpt><trkpt lat="45.2912745" lon="11.7795486"><ele>8.0</ele><time>2026-04-25T15:26:45.552Z</time></trkpt><trkpt lat="45.2913058" lon="11.7794593"><ele>7.999999999999999</ele><time>2026-04-25T15:26:47.553Z</time></trkpt><trkpt lat="45.2913213" lon="11.7793589"><ele>8.0</ele><time>2026-04-25T15:26:49.553Z</time></trkpt><trkpt lat="45.2913425" lon="11.7792623"><ele>8.0</ele><time>2026-04-25T15:26:51.553Z</time></trkpt><trkpt lat="45.2913619" lon="11.77916"><ele>7.999999999999999</ele><time>2026-04-25T15:26:53.552Z</time></trkpt><trkpt lat="45.2913934" lon="11.7790456"><ele>8.0</ele><time>2026-04-25T15:26:55.552Z</time></trkpt><trkpt lat="45.2914171" lon="11.7789385"><ele>8.0</ele><time>2026-04-25T15:26:57.552Z</time></trkpt><trkpt lat="45.2914838" lon="11.7788985"><ele>8.0</ele><time>2026-04-25T15:26:59.552Z</time></trkpt><trkpt lat="45.2915698" lon="11.7789473"><ele>7.999999999999999</ele><time>2026-04-25T15:27:01.56Z</time></trkpt><trkpt lat="45.2916747" lon="11.7790156"><ele>8.0</ele><time>2026-04-25T15:27:03.552Z</time></trkpt><trkpt lat="45.2917766" lon="11.7790624"><ele>8.200000000000001</ele><time>2026-04-25T15:27:05.552Z</time></trkpt><trkpt lat="45.2918806" lon="11.7791127"><ele>8.4</ele><time>2026-04-25T15:27:07.552Z</time></trkpt><trkpt lat="45.291988" lon="11.779156"><ele>8.600000000000001</ele><time>2026-04-25T15:27:09.552Z</time></trkpt><trkpt lat="45.292096" lon="11.7791985"><ele>8.8</ele><time>2026-04-25T15:27:11.553Z</time></trkpt><trkpt lat="45.2922017" lon="11.7792319"><ele>9.0</ele><time>2026-04-25T15:27:13.552Z</time></trkpt><trkpt lat="45.2923118" lon="11.7792497"><ele>8.25</ele><time>2026-04-25T15:27:15.552Z</time></trkpt><trkpt lat="45.2924232" lon="11.7792726"><ele>7.5</ele><time>2026-04-25T15:27:17.552Z</time></trkpt><trkpt lat="45.2925348" lon="11.7793057"><ele>6.75</ele><time>2026-04-25T15:27:19.553Z</time></trkpt><trkpt lat="45.2926418" lon="11.7793442"><ele>6.0</ele><time>2026-04-25T15:27:21.553Z</time></trkpt><trkpt lat="45.2927475" lon="11.7794007"><ele>6.0</ele><time>2026-04-25T15:27:23.553Z</time></trkpt><trkpt lat="45.2928526" lon="11.779455"><ele>6.0</ele><time>2026-04-25T15:27:25.552Z</time></trkpt><trkpt lat="45.2929483" lon="11.7795236"><ele>6.0</ele><time>2026-04-25T15:27:27.553Z</time></trkpt><trkpt lat="45.2929947" lon="11.7796473"><ele>6.0</ele><time>2026-04-25T15:27:29.552Z</time></trkpt><trkpt lat="45.2929711" lon="11.7797844"><ele>6.0</ele><time>2026-04-25T15:27:31.552Z</time></trkpt><trkpt lat="45.2929263" lon="11.7799161"><ele>6.0</ele><time>2026-04-25T15:27:33.553Z</time></trkpt><trkpt lat="45.2928808" lon="11.7800428"><ele>6.0</ele><time>2026-04-25T15:27:35.553Z</time></trkpt><trkpt lat="45.2928398" lon="11.7801742"><ele>6.0</ele><time>2026-04-25T15:27:37.553Z</time></trkpt><trkpt lat="45.2928016" lon="11.7803073"><ele>6.0</ele><time>2026-04-25T15:27:39.552Z</time></trkpt><trkpt lat="45.2927603" lon="11.7804391"><ele>6.0</ele><time>2026-04-25T15:27:41.553Z</time></trkpt><trkpt lat="45.2927213" lon="11.7805762"><ele>6.0</ele><time>2026-04-25T15:27:43.553Z</time></trkpt><trkpt lat="45.2926805" lon="11.7807113"><ele>6.0</ele><time>2026-04-25T15:27:45.552Z</time></trkpt><trkpt lat="45.2926447" lon="11.7808439"><ele>6.0</ele><time>2026-04-25T15:27:47.552Z</time></trkpt><trkpt lat="45.292607" lon="11.7809721"><ele>6.0</ele><time>2026-04-25T15:27:49.552Z</time></trkpt><trkpt lat="45.2925711" lon="11.7810942"><ele>6.0</ele><time>2026-04-25T15:27:51.553Z</time></trkpt><trkpt lat="45.2925308" lon="11.7812148"><ele>6.0</ele><time>2026-04-25T15:27:53.553Z</time></trkpt><trkpt lat="45.292485" lon="11.7813308"><ele>6.0</ele><time>2026-04-25T15:27:55.552Z</time></trkpt><trkpt lat="45.2924445" lon="11.7814508"><ele>6.0</ele><time>2026-04-25T15:27:57.552Z</time></trkpt><trkpt lat="45.2924052" lon="11.7815787"><ele>6.0</ele><time>2026-04-25T15:27:59.552Z</time></trkpt><trkpt lat="45.292366" lon="11.7817002"><ele>6.0</ele><time>2026-04-25T15:28:01.553Z</time></trkpt><trkpt lat="45.2923213" lon="11.7818244"><ele>6.0</ele><time>2026-04-25T15:28:03.552Z</time></trkpt><trkpt lat="45.2922844" lon="11.7819428"><ele>6.0</ele><time>2026-04-25T15:28:05.553Z</time></trkpt><trkpt lat="45.2922502" lon="11.7820627"><ele>6.0</ele><time>2026-04-25T15:28:07.553Z</time></trkpt><trkpt lat="45.2922119" lon="11.7821661"><ele>6.0</ele><time>2026-04-25T15:28:09.552Z</time></trkpt><trkpt lat="45.2921784" lon="11.7822642"><ele>6.0</ele><time>2026-04-25T15:28:11.553Z</time></trkpt><trkpt lat="45.2921521" lon="11.7823528"><ele>6.0</ele><time>2026-04-25T15:28:13.553Z</time></trkpt><trkpt lat="45.2921497" lon="11.782477"><ele>5.0</ele><time>2026-04-25T15:28:16.552Z</time></trkpt><trkpt lat="45.2921948" lon="11.7825494"><ele>5.0</ele><time>2026-04-25T15:28:19.552Z</time></trkpt></trkseg></trk></gpx>